[[{"header":{"parameterUnit":"m.s-1","parameterCategory":1,"la1":31.0,"la2":29.5877,"lo1":-88.7671,"lo2":-86.6584,"dy":0.0162,"dx":0.0185,"nx":115,"ny":88,"refTime":"2024-08-16T00:00:00:Z","depth":0,"parameterNumber":2,"parameterNumberName":"U-component_of_WINDS"},"data":[0.0,0.0,0.0,0.0,0.0,0.0,0.0,0.0,0.0,0.0,0.0,0.0,0.0,0.0,0.0,0.0,0.0,0.0,0.0,0.0,0.0,0.0,0.0,0.0,0.0,0.0,0.0,0.0,0.0,0.0,0.0,0.0,0.0,0.0,0.0,0.0,0.0,0.0,0.0,0.0,0.0,0.0,0.0,0.0,0.0,0.0,0.0,0.0,0.0,0.0,0.0,0.0,0.0,0.0,0.0,0.0,0.0,0.0,0.0,0.0,0.0,0.0,0.0,0.0,0.0,0.0,0.0,0.0,0.0,0.0,0.0,0.0,0.0,0.0,0.0,0.0,0.0,0.0,0.0,0.0,0.0,0.0,0.0,0.0,0.0,0.0,0.0,0.0,0.0,0.0,0.0,0.0,0.0,0.0,0.0,0.0,0.0,0.0,0.0,0.0,0.0,0.0,0.0,0.0,0.0,0.0,0.0,0.0,0.0,0.0,0.0,0.0,0.0,0.0,0.0,0.0,0.0,0.0,0.0,0.0,0.0,0.0,0.0,0.0,0.0,0.0,0.0,0.0,0.0,0.0,0.0,0.0,0.0,0.0,0.0,0.0,0.0,0.0,0.0,0.0,0.0,0.0,0.0,0.0,0.0,0.0,0.0,0.0,0.0,0.0,0.0,0.0,0.0,0.0,0.0,0.0,0.0,0.0,0.0,0.0,0.0,0.0,0.0,0.0,0.0,0.0,0.0,0.0,0.0,0.0,0.0,0.0,0.0,0.0,0.0,0.0,0.0,0.0,0.0,0.0,0.0,0.0,0.0,0.0,0.0,0.0,0.0,0.0,0.0,0.0,0.0,0.0,0.0,0.0,0.0,0.0,0.0,0.0,0.0,0.0,0.0,0.0,0.0,0.0,0.0,0.0,0.0,0.0,0.0,0.0,0.0,0.0,0.0,0.0,0.0,0.0,0.0,0.0,0.0,0.0,0.0,0.0,0.0,0.0,0.0,0.0,0.0,0.0,0.0,0.0,0.0,0.0,0.0,0.0,0.0,0.0,0.0,0.0,0.0,0.0,0.0,0.0,0.0,0.0,0.0,0.0,0.0,0.0,0.0,0.0,0.0,0.0,0.0,0.0,0.0,0.0,0.0,0.0,0.0,0.0,0.0,0.0,0.0,0.0,0.0,0.0,0.0,0.0,0.0,0.0,0.0,0.0,0.0,0.0,0.0,0.0,0.0,0.0,0.0,0.0,0.0,0.0,0.0,0.0,0.0,0.0,0.0,0.0,0.0,0.0,0.0,0.0,0.0,0.0,0.0,0.0,0.0,0.0,0.0,0.0,0.0,0.0,0.0,0.0,0.0,0.0,0.0,0.0,0.0,0.0,0.0,0.0,0.0,0.0,0.0,0.0,0.0,0.0,0.0,0.0,0.0,0.0,0.0,0.0,0.0,0.0,0.0,0.0,0.0,0.0,0.0,0.0,0.0,0.0,0.0,0.0,0.0,0.0,0.0,0.0,0.0,0.0,0.0,0.0,0.0,0.0,0.0,0.0,0.0,0.0,0.0,0.0,0.0,0.0,0.0,0.0,0.0,0.0,0.0,0.0,0.0,0.0,0.0,0.0,0.0,0.0,0.0,0.0,0.0,0.0,0.0,0.0,0.0,0.0,0.0,0.0,0.0,0.0,0.0,0.0,0.0,0.0,0.0,0.0,0.0,0.0,0.0,0.0,0.0,0.0,0.0,0.0,0.0,0.0,0.0,0.0,0.0,0.0,0.0,0.0,0.0,0.0,0.0,0.0,0.0,0.0,0.0,0.0,0.0,0.0,0.0,0.0,0.0,0.0,0.0,0.0,0.0,0.0,0.0,0.0,0.0,0.0,0.0,0.0,0.0,0.0,0.0,0.0,0.0,0.0,0.0,0.0,0.0,0.0,0.0,0.0,0.0,0.0,0.0,0.0,0.0,0.0,0.0,0.0,0.0,0.0,0.0,0.0,0.0,0.0,0.0,0.0,0.0,0.0,0.0,0.0,0.0,0.0,0.0,0.0,0.0,0.0,0.0,0.0,0.0,0.0,0.0,0.0,0.0,0.0,0.0,0.0,0.0,0.0,0.0,0.0,0.0,0.0,0.0,0.0,0.0,0.0,0.0,0.0,0.0,0.0,0.0,0.0,0.0,0.0,0.0,0.0,0.0,0.0,0.0,0.0,0.0,0.0,0.0,0.0,0.0,0.0,0.0,0.0,0.0,0.0,0.0,0.0,0.0,0.0,0.0,0.0,0.0,0.0,0.0,0.0,0.0,0.0,0.0,0.0,0.0,0.0,0.0,0.0,0.0,0.0,0.0,0.0,0.0,0.0,0.0,0.0,0.0,0.0,0.0,0.0,0.0,0.0,0.0,0.0,0.0,0.0,0.0,0.0,0.0,0.0,0.0,0.0,0.0,0.0,0.0,0.0,0.0,0.0,0.0,0.0,0.0,0.0,0.0,0.0,0.0,0.0,0.0,0.0,0.0,0.0,0.0,0.0,0.0,0.0,0.0,0.0,0.0,0.0,0.0,0.0,0.0,0.0,0.0,0.0,0.0,0.0,0.0,0.0,0.0,0.0,0.0,0.0,0.0,0.0,0.0,0.0,0.0,0.0,0.0,0.0,0.0,0.0,0.0,0.0,0.0,0.0,0.0,0.0,0.0,0.0,0.0,0.0,0.0,0.0,0.0,0.0,0.0,0.0,0.0,0.0,0.0,0.0,0.0,0.0,0.0,0.0,0.0,0.0,0.0,0.0,0.0,0.0,0.0,0.0,0.0,0.0,0.0,0.0,0.0,0.0,0.0,0.0,0.0,0.0,0.0,0.0,0.0,0.0,0.0,0.0,0.0,0.0,0.0,0.0,0.0,0.0,0.0,0.0,0.0,0.0,0.0,0.0,0.0,0.0,0.0,0.0,0.0,0.0,0.0,0.0,0.0,0.0,0.0,0.0,0.0,0.0,0.0,0.0,0.0,0.0,0.0,0.0,0.0,0.0,0.0,0.0,0.0,0.0,0.0,0.0,0.0,0.0,0.0,0.0,0.0,0.0,0.0,0.0,0.0,0.0,0.0,0.0,0.0,0.0,0.0,0.0,0.0,0.0,0.0,0.0,0.0,0.0,0.0,0.0,0.0,0.0,0.0,0.0,0.0,0.0,0.0,0.0,0.0,0.0,0.0,0.0,0.0,0.0,0.0,0.0,0.0,0.0,0.0,0.0,0.0,0.0,0.0,0.0,0.0,0.0,0.0,0.0,0.0,0.0,0.0,0.0,0.0,0.0,0.0,0.0,0.0,0.0,0.0,0.0,0.0,0.0,0.0,0.0,0.0,0.0,0.0,0.0,0.0,0.0,0.0,0.0,0.0,0.0,0.0,0.0,0.0,0.0,0.0,0.0,0.0,0.0,0.0,0.0,0.0,0.0,0.0,0.0,0.0,0.0,0.0,0.0,0.0,0.0,0.0,0.0,0.0,0.0,0.0,0.0,0.0,0.0,0.0,0.0,0.0,0.0,0.0,0.0,0.0,0.0,0.0,0.0,0.0,0.0,0.0,0.0,0.0,0.0,0.0,0.0,0.0,0.0,0.0,0.0,0.0,0.0,0.0,0.0,0.0,0.0,0.0,0.0,0.0,0.0,0.0,0.0,0.0,0.0,0.0,0.0,0.0,0.0,0.0,0.0,0.0,0.0,0.0,0.0,0.0,0.0,0.0,0.0,0.0,0.0,0.0,0.0,0.0,0.0,0.0,0.0,0.0,0.0,0.0,0.0,0.0,0.0,0.0,0.0,0.0,0.0,0.0,0.0,0.0,0.0,0.0,0.0,0.0,0.0,0.0,0.0,0.0,0.0,0.0,0.0,0.0,0.0,0.0,0.0,0.0,0.0,0.0,0.0,0.0,0.0,0.0,0.0,0.0,0.0,0.0,0.0,0.0,0.0,0.0,0.0,0.0,0.0,0.0,0.0,0.0,0.0,0.0,0.0,0.0,0.0,0.0,0.0,0.0,0.0,0.0,0.0,0.0,0.0,0.0,0.0,0.0,0.0,0.0,0.0,0.0,0.0,0.0,0.0,0.0,0.0,0.0,0.0,0.0,0.0,0.0,0.0,0.0,0.0,0.0,0.0,0.0,0.0,0.0,0.0,0.0,0.0,0.0,0.0,0.0,0.0,0.0,0.0,0.0,0.0,0.0,0.0,0.0,0.0,0.0,0.0,0.0,0.0,0.0,0.0,0.0,0.0,0.0,0.0,0.0,0.0,0.0,0.0,-1.742,0.0,0.0,0.0,0.0,0.0,0.0,0.0,0.0,0.0,0.0,0.0,0.0,0.0,0.0,0.0,0.0,0.0,0.0,0.0,0.0,0.0,0.0,0.0,0.0,0.0,0.0,0.0,0.0,0.0,0.0,0.0,0.0,0.0,0.0,0.0,0.0,0.0,0.0,0.0,0.0,0.0,0.0,0.0,0.0,0.0,0.0,0.0,0.0,0.0,0.0,0.0,0.0,0.0,0.0,0.0,0.0,0.0,0.0,0.0,0.0,0.0,0.0,0.0,0.0,0.0,0.0,0.0,0.0,0.0,0.0,0.0,0.0,0.0,0.0,0.0,0.0,0.0,0.0,0.0,0.0,0.0,0.0,0.0,0.0,0.0,0.0,0.0,0.0,0.0,0.0,0.0,0.0,0.0,0.0,0.0,0.0,0.0,0.0,0.0,0.0,0.0,0.0,0.0,0.0,0.0,0.0,0.0,0.0,0.0,0.0,-1.9056,-1.9552,-1.8048,-1.7303,-1.7455,0.0,0.0,0.0,0.0,0.0,0.0,0.0,0.0,0.0,0.0,0.0,0.0,0.0,0.0,0.0,0.0,0.0,0.0,0.0,0.0,0.0,0.0,0.0,0.0,0.0,0.0,0.0,0.0,0.0,0.0,0.0,0.0,0.0,0.0,0.0,0.0,0.0,0.0,0.0,0.0,0.0,0.0,0.0,0.0,0.0,0.0,0.0,0.0,0.0,0.0,0.0,0.0,0.0,0.0,0.0,0.0,0.0,0.0,0.0,0.0,0.0,0.0,0.0,0.0,0.0,0.0,0.0,0.0,0.0,0.0,0.0,0.0,0.0,0.0,0.0,0.0,0.0,0.0,0.0,0.0,0.0,0.0,0.0,0.0,0.0,0.0,0.0,0.0,0.0,0.0,0.0,0.0,0.0,0.0,0.0,0.0,0.0,0.0,0.0,0.0,0.0,0.0,0.0,0.0,0.0,0.0,0.0,0.0,0.0,0.0,0.0,0.0,-1.8819,-1.8094,-1.7834,0.0,0.0,0.0,0.0,0.0,0.0,0.0,0.0,0.0,0.0,0.0,0.0,0.0,0.0,0.0,0.0,0.0,0.0,0.0,0.0,0.0,0.0,0.0,0.0,0.0,0.0,0.0,0.0,0.0,0.0,0.0,0.0,0.0,0.0,0.0,0.0,0.0,0.0,0.0,0.0,0.0,0.0,0.0,0.0,0.0,0.0,0.0,0.0,0.0,0.0,0.0,0.0,0.0,0.0,0.0,0.0,0.0,0.0,0.0,0.0,0.0,0.0,0.0,0.0,0.0,0.0,0.0,0.0,0.0,0.0,0.0,0.0,0.0,0.0,0.0,0.0,0.0,0.0,0.0,0.0,0.0,0.0,0.0,0.0,0.0,0.0,0.0,0.0,0.0,0.0,0.0,0.0,0.0,0.0,0.0,0.0,0.0,0.0,0.0,0.0,0.0,0.0,0.0,0.0,0.0,0.0,0.0,0.0,0.0,0.0,-1.9249,-2.0815,-2.0882,0.0,-1.9025,0.0,0.0,0.0,0.0,0.0,0.0,0.0,0.0,0.0,0.0,0.0,0.0,0.0,0.0,0.0,0.0,0.0,0.0,0.0,0.0,0.0,0.0,0.0,0.0,0.0,0.0,0.0,0.0,0.0,0.0,0.0,0.0,0.0,0.0,0.0,0.0,0.0,0.0,0.0,0.0,0.0,0.0,0.0,0.0,0.0,0.0,0.0,0.0,0.0,0.0,0.0,0.0,0.0,0.0,0.0,0.0,0.0,0.0,0.0,0.0,0.0,0.0,0.0,0.0,0.0,0.0,0.0,0.0,0.0,0.0,0.0,0.0,0.0,0.0,0.0,0.0,0.0,0.0,0.0,0.0,0.0,0.0,0.0,0.0,0.0,0.0,0.0,0.0,0.0,0.0,0.0,0.0,0.0,0.0,0.0,0.0,0.0,0.0,0.0,0.0,0.0,0.0,0.0,0.0,0.0,0.0,0.0,0.0,0.0,0.0,0.0,-2.1029,-2.0843,-1.9953,0.0,0.0,0.0,0.0,0.0,0.0,0.0,0.0,0.0,0.0,0.0,0.0,0.0,0.0,0.0,0.0,0.0,0.0,0.0,0.0,0.0,0.0,0.0,0.0,0.0,0.0,0.0,0.0,0.0,0.0,0.0,0.0,0.0,0.0,0.0,0.0,0.0,0.0,0.0,0.0,0.0,0.0,0.0,0.0,0.0,0.0,0.0,0.0,0.0,0.0,0.0,0.0,0.0,0.0,0.0,0.0,0.0,0.0,0.0,0.0,0.0,0.0,0.0,0.0,0.0,0.0,0.0,0.0,0.0,0.0,0.0,0.0,0.0,0.0,0.0,0.0,0.0,0.0,0.0,0.0,0.0,0.0,0.0,0.0,0.0,0.0,0.0,0.0,0.0,0.0,0.0,0.0,0.0,0.0,0.0,0.0,0.0,0.0,0.0,0.0,0.0,0.0,0.0,0.0,0.0,0.0,0.0,0.0,0.0,0.0,-1.943,0.0,-2.1805,-2.135,-2.0029,-1.7898,0.0,0.0,0.0,0.0,0.0,0.0,0.0,0.0,0.0,0.0,0.0,0.0,0.0,0.0,0.0,0.0,0.0,0.0,0.0,0.0,0.0,0.0,0.0,0.0,0.0,0.0,0.0,0.0,0.0,0.0,0.0,0.0,0.0,0.0,0.0,0.0,0.0,0.0,0.0,0.0,0.0,0.0,0.0,0.0,0.0,0.0,0.0,0.0,0.0,0.0,0.0,0.0,0.0,0.0,0.0,0.0,0.0,0.0,0.0,0.0,0.0,0.0,0.0,0.0,0.0,0.0,0.0,0.0,0.0,0.0,0.0,0.0,0.0,0.0,0.0,0.0,0.0,0.0,0.0,0.0,0.0,0.0,0.0,0.0,0.0,0.0,0.0,0.0,0.0,0.0,0.0,0.0,0.0,0.0,0.0,0.0,0.0,0.0,0.0,0.0,0.0,0.0,0.0,0.0,0.0,0.0,0.0,0.0,0.0,-2.0876,-2.1463,-2.3875,-2.3237,-2.1305,0.0,0.0,0.0,0.0,0.0,0.0,0.0,0.0,0.0,0.0,0.0,0.0,0.0,0.0,0.0,0.0,0.0,0.0,0.0,0.0,0.0,0.0,0.0,0.0,0.0,0.0,0.0,0.0,0.0,0.0,0.0,0.0,0.0,0.0,0.0,0.0,0.0,0.0,0.0,0.0,0.0,0.0,0.0,0.0,0.0,0.0,0.0,0.0,0.0,0.0,0.0,0.0,0.0,0.0,0.0,0.0,0.0,0.0,0.0,0.0,0.0,0.0,0.0,0.0,0.0,0.0,0.0,0.0,0.0,0.0,0.0,0.0,0.0,0.0,0.0,0.0,0.0,0.0,0.0,0.0,0.0,0.0,0.0,0.0,0.0,0.0,0.0,0.0,0.0,0.0,0.0,0.0,0.0,0.0,0.0,0.0,0.0,0.0,0.0,0.0,0.0,0.0,0.0,0.0,0.0,0.0,0.0,0.0,0.0,-1.7644,-1.8759,-2.1577,0.0,-2.2044,-1.9622,0.0,0.0,0.0,0.0,0.0,0.0,0.0,0.0,0.0,0.0,0.0,0.0,0.0,0.0,0.0,0.0,0.0,0.0,0.0,0.0,0.0,0.0,0.0,0.0,0.0,0.0,0.0,0.0,0.0,0.0,0.0,0.0,0.0,0.0,0.0,0.0,0.0,0.0,0.0,0.0,0.0,0.0,0.0,0.0,0.0,0.0,0.0,0.0,0.0,0.0,0.0,0.0,0.0,0.0,0.0,0.0,0.0,0.0,0.0,0.0,0.0,0.0,0.0,0.0,0.0,0.0,0.0,0.0,0.0,0.0,0.0,0.0,0.0,0.0,0.0,0.0,0.0,0.0,0.0,0.0,0.0,0.0,0.0,0.0,0.0,0.0,0.0,0.0,0.0,0.0,0.0,0.0,0.0,0.0,0.0,0.0,0.0,0.0,0.0,0.0,0.0,0.0,0.0,0.0,0.0,0.0,0.0,0.0,0.0,-1.7524,0.0,-2.2882,0.0,-2.1826,-1.9025,0.0,0.0,0.0,0.0,0.0,0.0,0.0,0.0,0.0,0.0,0.0,0.0,0.0,0.0,0.0,0.0,0.0,0.0,0.0,0.0,0.0,0.0,0.0,0.0,0.0,0.0,0.0,0.0,0.0,0.0,0.0,0.0,0.0,0.0,0.0,0.0,0.0,0.0,0.0,0.0,0.0,0.0,0.0,0.0,0.0,0.0,0.0,0.0,0.0,0.0,0.0,0.0,0.0,0.0,0.0,0.0,0.0,0.0,0.0,0.0,0.0,0.0,0.0,0.0,0.0,0.0,0.0,0.0,0.0,0.0,0.0,0.0,0.0,0.0,0.0,0.0,0.0,0.0,0.0,0.0,0.0,0.0,0.0,0.0,0.0,0.0,0.0,0.0,0.0,0.0,0.0,0.0,0.0,0.0,0.0,0.0,0.0,0.0,0.0,0.0,0.0,0.0,0.0,0.0,0.0,0.0,0.0,0.0,-1.7712,-2.2524,-2.5,-2.5168,-2.3106,-2.2813,-1.9701,0.0,0.0,0.0,0.0,0.0,0.0,0.0,0.0,0.0,0.0,0.0,0.0,0.0,0.0,0.0,0.0,0.0,0.0,0.0,0.0,0.0,0.0,0.0,0.0,0.0,0.0,0.0,0.0,0.0,0.0,0.0,0.0,0.0,0.0,0.0,0.0,0.0,0.0,0.0,0.0,0.0,0.0,0.0,0.0,0.0,0.0,0.0,0.0,0.0,0.0,0.0,0.0,0.0,0.0,0.0,0.0,0.0,0.0,0.0,0.0,0.0,0.0,0.0,0.0,0.0,0.0,0.0,0.0,0.0,0.0,0.0,0.0,0.0,0.0,0.0,0.0,0.0,0.0,0.0,0.0,0.0,0.0,0.0,0.0,0.0,0.0,0.0,0.0,0.0,0.0,0.0,0.0,0.0,0.0,0.0,0.0,0.0,0.0,0.0,0.0,0.0,0.0,0.0,0.0,0.0,0.0,0.0,0.0,0.0,-2.187,-2.2677,-2.4159,-2.6111,-2.1305,-1.87,0.0,0.0,0.0,0.0,0.0,0.0,0.0,0.0,0.0,0.0,0.0,0.0,0.0,0.0,0.0,0.0,0.0,0.0,0.0,0.0,0.0,0.0,0.0,0.0,0.0,0.0,0.0,0.0,0.0,0.0,0.0,0.0,0.0,0.0,0.0,0.0,0.0,0.0,0.0,0.0,0.0,0.0,0.0,0.0,0.0,0.0,0.0,0.0,0.0,0.0,0.0,0.0,0.0,0.0,0.0,0.0,0.0,0.0,0.0,0.0,0.0,0.0,0.0,0.0,0.0,0.0,0.0,0.0,0.0,0.0,0.0,0.0,0.0,0.0,0.0,0.0,0.0,0.0,0.0,0.0,0.0,0.0,0.0,0.0,0.0,0.0,0.0,0.0,0.0,0.0,0.0,0.0,0.0,0.0,0.0,0.0,0.0,0.0,0.0,0.0,0.0,0.0,0.0,0.0,0.0,0.0,0.0,0.0,0.0,-2.394,-2.4504,-2.5663,-2.7458,-2.2244,-1.9545,-1.9715,0.0,0.0,0.0,0.0,0.0,0.0,0.0,0.0,0.0,0.0,0.0,0.0,0.0,0.0,0.0,0.0,0.0,0.0,0.0,0.0,0.0,0.0,0.0,0.0,0.0,0.0,0.0,0.0,0.0,0.0,0.0,0.0,0.0,0.0,0.0,0.0,0.0,0.0,0.0,0.0,0.0,0.0,0.0,0.0,0.0,0.0,0.0,0.0,0.0,0.0,0.0,0.0,0.0,0.0,0.0,0.0,0.0,0.0,0.0,0.0,0.0,0.0,0.0,0.0,0.0,0.0,0.0,0.0,0.0,0.0,0.0,0.0,0.0,0.0,0.0,0.0,0.0,0.0,0.0,0.0,0.0,0.0,0.0,0.0,0.0,0.0,0.0,0.0,0.0,0.0,0.0,0.0,0.0,0.0,0.0,0.0,0.0,0.0,0.0,0.0,0.0,0.0,0.0,0.0,0.0,0.0,0.0,0.0,-2.8113,-2.9722,-2.9389,-2.7117,-2.515,-2.1971,0.0,0.0,0.0,0.0,0.0,0.0,0.0,0.0,0.0,0.0,0.0,0.0,0.0,0.0,0.0,0.0,0.0,0.0,0.0,0.0,0.0,0.0,0.0,0.0,0.0,0.0,0.0,0.0,0.0,0.0,0.0,0.0,0.0,0.0,0.0,0.0,0.0,0.0,0.0,0.0,0.0,0.0,0.0,0.0,0.0,0.0,0.0,0.0,0.0,0.0,0.0,0.0,0.0,0.0,0.0,0.0,0.0,0.0,0.0,0.0,0.0,0.0,0.0,0.0,0.0,0.0,0.0,0.0,0.0,0.0,0.0,0.0,0.0,0.0,0.0,0.0,0.0,0.0,0.0,0.0,0.0,0.0,0.0,0.0,0.0,0.0,0.0,0.0,0.0,0.0,0.0,0.0,0.0,0.0,0.0,0.0,0.0,0.0,0.0,0.0,0.0,0.0,0.0,0.0,0.0,0.0,0.0,0.0,0.0,-2.9836,-3.1591,-3.1829,-3.0421,-2.6391,-2.3313,0.0,0.0,0.0,0.0,0.0,0.0,0.0,0.0,0.0,0.0,0.0,0.0,0.0,0.0,0.0,0.0,0.0,0.0,0.0,0.0,0.0,0.0,0.0,0.0,0.0,0.0,0.0,0.0,0.0,0.0,0.0,0.0,0.0,0.0,0.0,0.0,0.0,0.0,0.0,0.0,0.0,0.0,0.0,0.0,0.0,0.0,0.0,0.0,0.0,0.0,0.0,0.0,0.0,0.0,0.0,0.0,0.0,0.0,0.0,0.0,0.0,0.0,0.0,0.0,0.0,0.0,0.0,0.0,0.0,0.0,0.0,0.0,0.0,0.0,0.0,0.0,0.0,0.0,0.0,0.0,0.0,0.0,0.0,0.0,0.0,0.0,0.0,0.0,0.0,0.0,0.0,0.0,0.0,0.0,0.0,0.0,0.0,0.0,0.0,0.0,0.0,0.0,0.0,0.0,0.0,0.0,0.0,0.0,-2.8474,-3.1109,-3.318,-3.368,-3.2451,-2.8526,-2.5184,0.0,0.0,0.0,0.0,0.0,0.0,0.0,0.0,0.0,0.0,0.0,0.0,0.0,0.0,0.0,0.0,0.0,0.0,0.0,0.0,0.0,0.0,0.0,0.0,0.0,0.0,0.0,0.0,0.0,0.0,0.0,0.0,0.0,0.0,0.0,0.0,0.0,0.0,0.0,0.0,0.0,0.0,0.0,0.0,0.0,0.0,0.0,0.0,0.0,0.0,0.0,0.0,0.0,0.0,0.0,0.0,0.0,0.0,0.0,0.0,0.0,0.0,0.0,0.0,0.0,0.0,0.0,0.0,0.0,0.0,0.0,0.0,0.0,0.0,0.0,0.0,0.0,0.0,0.0,0.0,0.0,0.0,0.0,0.0,0.0,0.0,0.0,0.0,0.0,0.0,0.0,0.0,0.0,0.0,0.0,0.0,0.0,0.0,0.0,0.0,0.0,0.0,0.0,0.0,0.0,0.0,0.0,0.0,-3.0238,-3.193,-3.4405,-3.4961,-3.3326,-3.0828,-2.7159,0.0,0.0,0.0,0.0,0.0,0.0,0.0,0.0,0.0,0.0,0.0,0.0,0.0,0.0,0.0,0.0,0.0,0.0,0.0,0.0,0.0,0.0,0.0,0.0,0.0,0.0,0.0,0.0,0.0,0.0,0.0,0.0,0.0,0.0,0.0,0.0,0.0,0.0,0.0,0.0,0.0,0.0,0.0,0.0,0.0,0.0,0.0,0.0,0.0,0.0,0.0,0.0,0.0,0.0,0.0,0.0,0.0,0.0,0.0,0.0,0.0,0.0,0.0,0.0,0.0,0.0,0.0,0.0,0.0,0.0,0.0,0.0,0.0,0.0,0.0,0.0,0.0,0.0,0.0,0.0,0.0,0.0,0.0,0.0,0.0,0.0,0.0,0.0,0.0,0.0,0.0,0.0,0.0,0.0,0.0,0.0,0.0,0.0,0.0,0.0,0.0,0.0,0.0,0.0,0.0,0.0,0.0,0.0,-3.0407,-3.2123,-3.4623,-3.5112,-3.3416,-3.0799,-2.7665,0.0,0.0,0.0,0.0,0.0,0.0,0.0,0.0,0.0,0.0,0.0,0.0,0.0,0.0,0.0,0.0,0.0,0.0,0.0,0.0,0.0,0.0,0.0,0.0,0.0,0.0,0.0,0.0,0.0,0.0,0.0,0.0,0.0,0.0,0.0,0.0,0.0,0.0,0.0,0.0,0.0,0.0,0.0,0.0,0.0,0.0,0.0,0.0,-1.9491,0.0,0.0,0.0,0.0,0.0,0.0,0.0,0.0,0.0,0.0,0.0,0.0,0.0,0.0,0.0,0.0,0.0,0.0,0.0,0.0,0.0,0.0,0.0,0.0,0.0,0.0,0.0,0.0,0.0,0.0,0.0,0.0,0.0,0.0,0.0,0.0,0.0,0.0,0.0,0.0,0.0,0.0,0.0,0.0,0.0,0.0,0.0,0.0,0.0,0.0,0.0,0.0,0.0,0.0,0.0,0.0,0.0,0.0,0.0,-3.123,-3.3296,-3.5078,-3.5156,-3.3418,-3.1245,-2.8318,0.0,0.0,0.0,0.0,0.0,0.0,0.0,0.0,0.0,0.0,0.0,0.0,0.0,0.0,0.0,0.0,0.0,0.0,0.0,0.0,0.0,0.0,0.0,0.0,0.0,0.0,0.0,0.0,0.0,0.0,0.0,0.0,0.0,0.0,0.0,0.0,0.0,0.0,0.0,0.0,0.0,0.0,0.0,0.0,0.0,0.0,0.0,0.0,0.0,0.0,0.0,0.0,0.0,0.0,0.0,0.0,0.0,0.0,0.0,0.0,0.0,0.0,0.0,0.0,0.0,0.0,0.0,0.0,0.0,0.0,0.0,0.0,0.0,0.0,0.0,0.0,0.0,0.0,0.0,0.0,0.0,0.0,0.0,0.0,0.0,0.0,0.0,0.0,0.0,0.0,0.0,0.0,0.0,0.0,0.0,0.0,0.0,0.0,0.0,0.0,0.0,0.0,0.0,0.0,0.0,0.0,0.0,-2.904,-3.1912,-3.432,-3.533,-3.5039,-3.3437,-3.1641,-2.871,-2.4544,0.0,0.0,0.0,0.0,0.0,0.0,0.0,0.0,0.0,0.0,0.0,0.0,0.0,0.0,0.0,0.0,0.0,0.0,0.0,0.0,0.0,0.0,0.0,0.0,0.0,0.0,0.0,0.0,0.0,0.0,0.0,0.0,0.0,0.0,0.0,0.0,0.0,0.0,-1.5636,-1.8609,0.0,0.0,0.0,0.0,0.0,0.0,0.0,0.0,-2.2293,0.0,0.0,0.0,0.0,0.0,0.0,0.0,0.0,0.0,0.0,0.0,0.0,0.0,0.0,0.0,0.0,0.0,0.0,0.0,0.0,0.0,0.0,0.0,0.0,0.0,0.0,0.0,0.0,0.0,0.0,0.0,0.0,0.0,0.0,0.0,0.0,0.0,0.0,0.0,0.0,0.0,0.0,0.0,0.0,0.0,0.0,0.0,0.0,0.0,0.0,0.0,0.0,0.0,0.0,0.0,0.0,-2.6718,-2.8789,-3.1055,-3.3534,-3.4453,-3.4434,-3.3398,-3.1074,-2.8105,-2.4492,0.0,0.0,0.0,0.0,0.0,0.0,0.0,0.0,0.0,0.0,0.0,0.0,0.0,0.0,0.0,0.0,0.0,0.0,0.0,0.0,0.0,0.0,0.0,0.0,0.0,0.0,0.0,0.0,0.0,0.0,0.0,0.0,0.0,0.0,0.0,0.0,0.0,0.0,0.0,-2.1069,-2.2447,0.0,0.0,0.0,0.0,0.0,0.0,0.0,0.0,-2.1908,0.0,0.0,0.0,0.0,0.0,0.0,0.0,0.0,0.0,0.0,0.0,0.0,0.0,0.0,0.0,0.0,0.0,0.0,0.0,0.0,0.0,0.0,0.0,0.0,0.0,0.0,0.0,0.0,0.0,0.0,0.0,0.0,0.0,0.0,0.0,0.0,0.0,0.0,0.0,0.0,0.0,0.0,0.0,0.0,0.0,0.0,0.0,0.0,0.0,0.0,0.0,0.0,0.0,0.0,0.0,-2.6836,-2.9141,-3.1504,-3.3965,-3.4492,-3.4277,-3.3379,-3.0059,-2.705,0.0,0.0,0.0,0.0,0.0,0.0,0.0,0.0,0.0,0.0,0.0,0.0,0.0,0.0,0.0,0.0,0.0,0.0,0.0,0.0,0.0,0.0,0.0,0.0,0.0,0.0,0.0,0.0,0.0,0.0,0.0,0.0,0.0,0.0,0.0,0.0,0.0,0.0,0.0,0.0,-2.2367,-2.3475,-2.3475,0.0,0.0,0.0,0.0,0.0,0.0,-2.3417,-2.2836,0.0,0.0,0.0,0.0,0.0,0.0,0.0,0.0,0.0,0.0,0.0,0.0,0.0,0.0,0.0,0.0,0.0,0.0,0.0,0.0,0.0,0.0,0.0,0.0,0.0,0.0,0.0,0.0,0.0,0.0,0.0,0.0,0.0,0.0,0.0,0.0,0.0,0.0,0.0,0.0,0.0,0.0,0.0,0.0,0.0,0.0,0.0,0.0,0.0,0.0,0.0,0.0,0.0,0.0,0.0,-2.6641,-2.9141,-3.1621,-3.4062,-3.418,-3.3867,-3.3105,-2.9316,-2.6288,0.0,0.0,0.0,0.0,0.0,0.0,0.0,0.0,0.0,0.0,0.0,0.0,0.0,0.0,0.0,0.0,0.0,0.0,0.0,0.0,0.0,0.0,0.0,0.0,0.0,0.0,0.0,0.0,0.0,0.0,0.0,0.0,0.0,0.0,0.0,0.0,0.0,0.0,0.0,0.0,0.0,-2.461,-2.461,-2.5005,0.0,0.0,0.0,0.0,-2.4822,-2.4721,0.0,0.0,0.0,0.0,0.0,0.0,0.0,0.0,0.0,0.0,0.0,0.0,0.0,0.0,0.0,0.0,0.0,0.0,0.0,0.0,0.0,0.0,0.0,0.0,0.0,0.0,0.0,0.0,0.0,0.0,0.0,0.0,0.0,0.0,0.0,0.0,0.0,0.0,0.0,0.0,0.0,0.0,0.0,0.0,0.0,0.0,0.0,0.0,0.0,0.0,0.0,0.0,0.0,0.0,0.0,0.0,-2.5742,-2.7656,-2.9863,-3.2324,-3.248,-3.2441,-3.2305,-2.9609,-2.66,0.0,0.0,0.0,0.0,0.0,0.0,0.0,0.0,0.0,0.0,0.0,0.0,0.0,0.0,0.0,0.0,0.0,0.0,0.0,0.0,0.0,0.0,0.0,0.0,0.0,0.0,0.0,0.0,0.0,0.0,0.0,0.0,0.0,0.0,0.0,0.0,0.0,0.0,0.0,0.0,0.0,-2.6308,-2.6313,-2.5731,-2.5769,0.0,0.0,0.0,-2.7222,-2.6813,0.0,0.0,0.0,0.0,0.0,0.0,0.0,0.0,0.0,0.0,0.0,0.0,0.0,0.0,0.0,0.0,0.0,0.0,0.0,0.0,0.0,0.0,0.0,0.0,0.0,0.0,0.0,0.0,0.0,0.0,0.0,0.0,0.0,0.0,0.0,0.0,0.0,0.0,0.0,0.0,0.0,0.0,0.0,0.0,0.0,0.0,0.0,0.0,0.0,0.0,0.0,0.0,0.0,0.0,0.0,-2.1406,-2.5605,-2.7891,-3.0059,-3.2109,-3.2187,-3.1953,-3.1484,-2.8457,-2.5408,0.0,0.0,0.0,0.0,0.0,0.0,0.0,0.0,0.0,0.0,0.0,0.0,0.0,0.0,0.0,0.0,0.0,0.0,0.0,0.0,0.0,0.0,0.0,0.0,0.0,0.0,0.0,0.0,0.0,0.0,0.0,0.0,0.0,0.0,0.0,0.0,0.0,0.0,0.0,0.0,0.0,0.0,-2.6621,-2.7101,0.0,0.0,0.0,-2.7563,-2.7857,0.0,0.0,0.0,0.0,0.0,0.0,0.0,0.0,0.0,0.0,0.0,0.0,0.0,0.0,0.0,0.0,0.0,0.0,0.0,0.0,0.0,0.0,0.0,0.0,0.0,0.0,0.0,0.0,0.0,0.0,0.0,0.0,0.0,0.0,0.0,0.0,0.0,0.0,0.0,0.0,0.0,0.0,0.0,0.0,0.0,0.0,0.0,0.0,0.0,0.0,0.0,0.0,0.0,0.0,0.0,0.0,0.0,-2.5604,-2.8026,-3.0116,-3.1797,-3.1894,-3.1465,-3.0566,-2.7812,0.0,0.0,0.0,0.0,0.0,0.0,0.0,0.0,0.0,0.0,0.0,0.0,0.0,0.0,0.0,0.0,0.0,0.0,0.0,0.0,0.0,0.0,0.0,0.0,0.0,0.0,0.0,-1.0481,0.0,0.0,0.0,0.0,0.0,0.0,0.0,0.0,0.0,0.0,0.0,0.0,0.0,0.0,-2.7313,-2.7519,-2.8813,-2.9602,0.0,0.0,-2.9292,-2.8944,-2.8667,-2.7862,0.0,0.0,0.0,0.0,0.0,0.0,0.0,0.0,0.0,0.0,0.0,0.0,0.0,0.0,0.0,0.0,0.0,0.0,0.0,0.0,0.0,0.0,0.0,0.0,0.0,0.0,0.0,0.0,0.0,0.0,0.0,0.0,0.0,0.0,0.0,0.0,0.0,0.0,0.0,0.0,0.0,0.0,0.0,0.0,0.0,0.0,0.0,0.0,0.0,0.0,0.0,0.0,0.0,0.0,0.0,-2.5493,-2.7386,-2.9191,-3.0918,-3.0996,-3.0566,-2.9707,-2.8691,-2.609,0.0,0.0,0.0,0.0,0.0,0.0,0.0,0.0,0.0,0.0,0.0,0.0,0.0,0.0,0.0,0.0,0.0,0.0,0.0,0.0,0.0,0.0,0.0,0.0,0.0,0.0,0.0,0.0,0.0,0.0,0.0,0.0,0.0,0.0,0.0,0.0,0.0,0.0,0.0,0.0,0.0,-2.9217,-3.0038,-3.0923,-3.1775,0.0,0.0,-3.059,-3.142,-3.0807,-2.941,-2.6997,0.0,0.0,0.0,0.0,0.0,0.0,0.0,0.0,0.0,0.0,0.0,0.0,0.0,0.0,0.0,0.0,0.0,0.0,0.0,0.0,0.0,0.0,0.0,0.0,0.0,0.0,0.0,0.0,0.0,0.0,0.0,0.0,0.0,0.0,0.0,0.0,0.0,0.0,0.0,0.0,0.0,0.0,0.0,0.0,0.0,0.0,0.0,0.0,0.0,0.0,0.0,0.0,0.0,-2.0724,-2.553,-2.7257,-2.9,-3.0671,-3.0752,-3.0305,-2.9425,-2.8608,-2.6367,0.0,0.0,0.0,0.0,0.0,0.0,0.0,0.0,0.0,0.0,0.0,0.0,0.0,0.0,0.0,0.0,0.0,0.0,0.0,0.0,0.0,0.0,0.0,0.0,0.0,0.0,0.0,0.0,-1.3041,-1.3529,-1.4683,0.0,0.0,0.0,0.0,0.0,0.0,0.0,0.0,0.0,0.0,-3.01,-3.0405,-3.1713,0.0,0.0,-3.2997,-3.2679,-3.1956,-3.1107,-2.985,-2.7874,-2.6449,0.0,0.0,0.0,0.0,0.0,0.0,0.0,0.0,0.0,0.0,0.0,0.0,0.0,0.0,0.0,0.0,0.0,0.0,0.0,0.0,0.0,0.0,0.0,0.0,0.0,0.0,0.0,0.0,0.0,0.0,0.0,0.0,0.0,0.0,0.0,0.0,0.0,0.0,0.0,0.0,0.0,0.0,0.0,0.0,0.0,0.0,0.0,0.0,0.0,0.0,0.0,0.0,-2.0573,-2.548,-2.7218,-2.8899,-3.0634,-3.0633,-3.0175,-2.9329,-2.8515,-2.6587,0.0,0.0,0.0,0.0,0.0,0.0,0.0,0.0,0.0,0.0,0.0,0.0,0.0,0.0,0.0,0.0,0.0,0.0,0.0,0.0,0.0,0.0,0.0,0.0,0.0,0.0,0.0,0.0,-1.4531,-1.4981,-1.5355,0.0,0.0,0.0,0.0,0.0,0.0,0.0,0.0,0.0,0.0,-3.141,-3.1658,-3.2976,-3.3945,-3.3945,-3.404,-3.3695,-3.2508,-3.1576,-3.042,-2.8788,0.0,0.0,0.0,0.0,0.0,0.0,0.0,0.0,0.0,0.0,0.0,0.0,0.0,0.0,0.0,0.0,0.0,0.0,0.0,0.0,0.0,0.0,0.0,0.0,0.0,0.0,0.0,0.0,0.0,0.0,-1.1012,0.0,0.0,0.0,0.0,0.0,0.0,0.0,0.0,0.0,0.0,0.0,0.0,0.0,0.0,0.0,0.0,0.0,0.0,0.0,0.0,0.0,0.0,0.0,-2.5344,-2.7171,-2.8876,-3.0525,-3.0603,-3.0188,-2.9343,-2.8515,-2.6856,-2.4215,0.0,0.0,0.0,0.0,0.0,0.0,0.0,0.0,0.0,0.0,0.0,0.0,0.0,0.0,0.0,0.0,0.0,0.0,0.0,0.0,0.0,0.0,0.0,0.0,0.0,0.0,-1.4025,-1.5557,-1.6237,0.0,0.0,0.0,0.0,0.0,0.0,0.0,0.0,0.0,0.0,-3.1521,-3.3459,-3.4254,-3.5107,-3.558,-3.5593,-3.4289,-3.3259,-3.3275,-3.2465,-3.132,0.0,0.0,0.0,0.0,0.0,0.0,0.0,0.0,0.0,0.0,0.0,0.0,0.0,0.0,0.0,0.0,0.0,0.0,0.0,0.0,0.0,0.0,0.0,0.0,0.0,0.0,0.0,-1.8563,-1.7129,0.0,0.0,0.0,0.0,0.0,0.0,0.0,0.0,0.0,0.0,0.0,-2.5739,-2.6526,0.0,0.0,0.0,0.0,0.0,0.0,0.0,0.0,0.0,0.0,0.0,0.0,-2.198,-2.6102,-2.7898,-2.9322,-3.049,-3.0495,-3.0332,-3.0018,-2.8695,-2.6502,-2.3361,0.0,0.0,0.0,0.0,0.0,0.0,0.0,0.0,0.0,0.0,0.0,0.0,0.0,0.0,0.0,0.0,0.0,0.0,0.0,0.0,0.0,0.0,0.0,0.0,0.0,-1.4003,0.0,0.0,0.0,0.0,0.0,0.0,0.0,0.0,0.0,0.0,0.0,-2.9205,-3.085,-3.2827,-3.4232,-3.4523,-3.5324,-3.5902,0.0,0.0,0.0,0.0,0.0,0.0,0.0,0.0,0.0,0.0,0.0,0.0,0.0,0.0,-2.9274,-2.5814,-2.4669,-2.4261,-2.4243,0.0,0.0,0.0,0.0,0.0,0.0,0.0,0.0,0.0,0.0,0.0,0.0,0.0,0.0,-2.1852,0.0,-1.9635,0.0,0.0,0.0,0.0,0.0,0.0,0.0,0.0,-2.6417,-2.8345,-2.9256,-3.0044,-3.0012,0.0,-2.8346,-2.564,0.0,0.0,0.0,0.0,0.0,0.0,0.0,0.0,-2.3287,-2.6562,-2.8275,-2.9536,-3.0404,-3.0417,-3.0404,-3.0365,-2.8775,-2.6433,-2.3336,-2.2201,-2.0946,0.0,0.0,0.0,0.0,0.0,0.0,0.0,0.0,0.0,0.0,0.0,0.0,0.0,0.0,0.0,0.0,0.0,0.0,0.0,0.0,0.0,0.0,0.0,-1.5703,0.0,0.0,0.0,0.0,0.0,0.0,0.0,0.0,0.0,-2.7082,-2.9247,-3.1585,-3.3518,-3.4531,-3.5185,-3.5498,0.0,0.0,0.0,0.0,0.0,0.0,0.0,-3.3867,-3.3574,-3.2578,-3.1719,-3.1406,-3.2539,-3.3242,-3.2344,0.0,0.0,-2.895,-2.8049,-2.7846,-2.7805,-2.7991,-2.842,-2.9255,-2.9385,-2.9612,0.0,0.0,0.0,0.0,0.0,0.0,0.0,0.0,-2.4697,-2.4582,0.0,-2.321,0.0,0.0,0.0,0.0,0.0,0.0,0.0,0.0,-3.0891,-3.2487,-3.1833,-3.2583,-3.2564,-3.1872,-3.2487,-3.1121,-2.7799,-2.3058,0.0,0.0,0.0,0.0,0.0,0.0,-2.501,-2.6703,-2.8338,-2.9544,-3.0371,-3.0404,-3.0365,-3.025,-2.8736,-2.6722,-2.4298,-2.411,-2.297,-2.0562,-1.9546,0.0,0.0,0.0,0.0,0.0,0.0,0.0,0.0,0.0,0.0,0.0,0.0,0.0,0.0,0.0,0.0,0.0,0.0,0.0,0.0,-1.7051,0.0,0.0,0.0,0.0,0.0,0.0,0.0,0.0,0.0,0.0,-3.0117,-3.1992,-3.4453,-3.6973,0.0,0.0,0.0,0.0,-3.6387,-3.7226,-3.6641,-3.6387,-3.7187,-3.7285,-3.6973,-3.6191,0.0,0.0,-3.2793,-3.4355,-3.5156,-3.2812,-3.3711,-3.4433,-3.3478,-3.2481,-3.1947,-3.1804,-3.1196,-3.1076,-3.1748,-3.1848,-3.2071,-2.9255,0.0,0.0,0.0,0.0,-2.7549,-2.8436,-2.9293,-2.9066,-2.8671,-2.8149,-2.6975,0.0,0.0,0.0,0.0,0.0,0.0,-2.9063,-3.0294,-3.2102,-3.3103,-3.3506,-3.4353,-3.4288,-3.3506,-3.3725,-3.2718,-3.0621,-2.914,-2.6159,-2.1797,0.0,0.0,0.0,0.0,-2.6697,-2.8357,-2.9486,-3.0154,-3.0385,-3.0404,-2.9846,-2.8659,-2.814,-2.6967,-2.5038,-2.4966,-2.437,-2.3067,-2.1585,0.0,0.0,0.0,0.0,0.0,0.0,0.0,0.0,0.0,0.0,0.0,0.0,0.0,0.0,0.0,0.0,0.0,0.0,0.0,-1.791,-1.8633,-1.9648,0.0,0.0,0.0,0.0,0.0,0.0,0.0,0.0,0.0,-3.5,-3.5703,-3.668,0.0,0.0,-3.793,-3.8184,-3.8008,-3.7949,-3.8203,0.0,0.0,0.0,-3.7695,-3.7441,-3.7793,-3.7344,-3.668,-3.5957,-3.5937,-3.5762,-3.5019,-3.5293,-3.5527,-3.5233,-3.4022,-3.3105,-3.2962,-3.2786,-3.2904,-3.3644,-3.3396,-3.3144,-3.3703,-3.126,-3.0815,-3.0453,-3.0259,-3.1065,-3.1773,-3.2333,-3.2333,-3.217,-3.184,-3.0924,-2.9718,-2.8329,-2.7489,0.0,0.0,0.0,-3.1377,-3.2718,-3.3433,-3.4062,-3.4568,-3.5085,-3.5085,-3.4575,-3.4665,-3.4026,-3.2699,-3.2699,-3.0544,-2.6447,0.0,0.0,-2.6111,-2.7087,-2.8082,-2.9088,-2.9967,-3.0404,-3.0404,-3.0404,-2.9596,-2.7967,-2.789,-2.7082,-2.5365,-2.5308,-2.5077,-2.4582,-2.3278,-2.162,0.0,0.0,0.0,0.0,0.0,0.0,0.0,0.0,0.0,0.0,0.0,-1.3684,0.0,0.0,0.0,0.0,-1.5954,-1.8301,-2.1074,-2.1934,0.0,0.0,0.0,0.0,0.0,0.0,0.0,-3.3476,-3.5508,-3.7148,-3.8203,-3.8633,-3.9043,-3.957,-3.9043,-3.873,-3.9062,0.0,-3.873,-3.9062,-3.9121,-3.9219,-3.9551,-3.9199,-3.8926,-3.9082,-3.8711,-3.8184,-3.7832,-3.7363,-3.7031,-3.7012,-3.6758,-3.6523,-3.6523,-3.5371,-3.4434,-3.4434,-3.4434,-3.4609,-3.5117,-3.4744,-3.4542,-3.7254,-3.6376,-3.405,-3.3154,-3.3343,-3.4048,-3.4452,-3.4636,-3.4628,-3.4951,-3.5416,-3.4686,-3.3827,-3.2787,-3.1044,0.0,0.0,-3.2684,-3.3684,-3.4433,-3.4934,-3.5166,-3.5166,-3.5089,-3.5088,-3.5086,-3.5354,-3.507,-3.4334,-3.4295,-3.3506,-3.2006,-3.0333,-2.9454,-2.9319,-2.9377,-2.9377,-2.9338,-3.0115,-3.0481,-3.0404,-3.0404,-2.9583,-2.7948,-2.789,-2.7063,-2.5404,-2.5308,-2.5308,-2.5269,-2.4606,-2.3105,-2.0712,0.0,0.0,0.0,0.0,0.0,0.0,0.0,0.0,0.0,0.0,0.0,0.0,0.0,0.0,0.0,-2.0609,0.0,-2.451,-2.621,0.0,0.0,0.0,-3.1269,-3.1464,-3.4219,-3.6152,-3.6269,0.0,0.0,0.0,0.0,-4.1289,-4.1211,-3.9805,-3.9101,-3.9883,-3.9355,-3.9101,-3.9902,-4.0,-4.0293,-4.0879,-4.0996,-4.0723,-4.0117,-3.9961,-3.9531,-3.8848,-3.8555,-3.8574,-3.8496,-3.793,-3.7402,-3.7383,-3.666,-3.6094,-3.6055,-3.5976,-3.5957,-3.5937,-3.5898,-3.5859,-3.9203,-3.8927,-3.7753,-3.6585,-3.5533,-3.5717,-3.5814,-3.5882,-3.5882,-3.5938,-3.6085,-3.5901,-3.5657,-3.5413,-3.5144,-3.5147,-3.5357,-3.5872,-3.6224,-3.6375,-3.5929,-3.5719,-3.5681,-3.5086,-3.4908,-3.5096,-3.5174,-3.5201,-3.5185,-3.5173,-3.4981,-3.4558,-3.3526,-3.2359,-3.116,-3.1698,-3.1698,-3.1083,-3.1295,-3.1077,-3.0423,-3.0404,-2.9602,-2.7948,-2.789,-2.7082,-2.5385,-2.5308,-2.5308,-2.5308,-2.5115,-2.4466,-2.324,-2.0966,0.0,0.0,0.0,0.0,0.0,0.0,0.0,0.0,0.0,-1.856,-1.5171,0.0,-2.0489,0.0,-2.3068,-2.5265,-2.698,-2.8158,0.0,0.0,-3.3461,-3.4524,-3.634,-3.6819,-3.7459,-3.869,-4.0035,-4.0879,-4.0879,-4.1601,-4.1875,-4.1269,-4.084,-4.0644,-4.0859,-4.0742,-4.0664,-4.082,-4.0859,-4.0976,-4.1152,-4.1191,-4.1113,-4.0918,-4.0351,-3.9824,-3.9629,-3.9043,-3.8613,-3.8594,-3.8457,-3.8301,-3.8301,-3.7578,-3.7051,-3.6953,-3.6465,-3.6016,-3.6016,-3.6016,-3.6016,-4.0451,-4.0377,-3.957,-3.8707,-3.7881,-3.7514,-3.7367,-3.7386,-3.7367,-3.7367,-3.7349,-3.6982,-3.6615,-3.6313,-3.657,-3.6713,-3.6739,-3.6974,-3.7099,-3.7062,-3.6517,-3.6058,-3.5713,-3.5274,-3.4929,-3.4715,-3.4851,-3.499,-3.5149,-3.5138,-3.5138,-3.5119,-3.4661,-3.3947,-3.3069,-3.2959,-3.266,-3.2256,-3.1872,-3.1275,-3.0442,-3.0404,-2.9602,-2.7967,-2.789,-2.7082,-2.5365,-2.5308,-2.5308,-2.5308,-2.5308,-2.4947,-2.4129,-2.2389,-2.1023,0.0,0.0,0.0,0.0,0.0,0.0,0.0,0.0,0.0,0.0,0.0,-2.3779,0.0,-2.7018,0.0,-3.1241,-3.2246,-3.3679,-3.5896,-3.6587,-3.742,-3.8754,-3.9199,-3.9776,-4.0658,-4.1586,-4.2188,-4.2188,-4.2561,-4.2541,-4.1724,-4.1587,-4.1477,-4.1162,-4.1105,-4.1105,-4.1125,-4.1151,-4.1191,-4.1191,-4.1191,-4.1191,-4.1172,-4.0801,-4.0469,-4.0469,-4.0098,-3.9746,-3.9746,-3.9453,-3.918,-3.916,-3.8476,-3.7891,-3.7812,-3.75,-3.6894,-3.6172,-3.6016,-3.6016,-4.126,-4.1187,-4.0396,-4.0047,-3.9992,-3.9313,-3.8891,-3.8707,-3.8707,-3.8707,-3.867,-3.7955,-3.7272,-3.6611,-3.6832,-3.6965,-3.6991,-3.7205,-3.7305,-3.7293,-3.6963,-3.6439,-3.5758,-3.5634,-3.5175,-3.4386,-3.4647,-3.4766,-3.4713,-3.4694,-3.4694,-3.4694,-3.4694,-3.4694,-3.4658,-3.3657,-3.3115,-3.3045,-3.216,-3.1327,-3.0577,-3.0462,-2.9615,-2.7986,-2.789,-2.7063,-2.5404,-2.5404,-2.5481,-2.5481,-2.5577,-2.5274,-2.4452,-2.3701,-2.2851,0.0,-2.1177,0.0,0.0,0.0,0.0,0.0,0.0,0.0,0.0,-2.5701,-2.749,-2.9734,-3.16,-3.3557,-3.5638,-3.6712,-3.7618,-3.8367,-3.931,-3.9925,-3.9954,-4.1298,-4.2263,-4.225,-4.3013,-4.3527,-4.3361,-4.3489,-4.3259,-4.2455,-4.2267,-4.2054,-4.1443,-4.1132,-4.0988,-4.0972,-4.1103,-4.1152,-4.1172,-4.1152,-4.1133,-4.1152,-4.1094,-4.115,-4.1074,-4.1074,-4.1094,-4.1016,-4.0469,-4.0039,-4.0039,-3.9355,-3.8789,-3.875,-3.8613,-3.7969,-3.6641,-3.625,-3.6133,-4.2066,-4.2011,-4.1187,-4.0875,-4.0838,-4.0691,-3.9903,-3.8707,-3.8707,-3.8707,-3.8707,-3.8542,-3.8414,-3.8248,-3.8309,-3.8335,-3.8335,-3.8376,-3.8387,-3.8368,-3.7665,-3.7282,-3.708,-3.6454,-3.5848,-3.5286,-3.5321,-3.5117,-3.4694,-3.4694,-3.4694,-3.4694,-3.4694,-3.4694,-3.4675,0.0,0.0,0.0,-3.2468,-3.1621,-3.1448,-3.0769,-2.9596,-2.7967,-2.789,0.0,-2.5442,-2.5981,-2.6346,-2.6365,-2.7024,0.0,0.0,0.0,0.0,0.0,0.0,0.0,0.0,0.0,0.0,0.0,-2.8904,-2.8,-2.6428,-3.0042,-3.2736,-3.328,-3.5445,-3.6755,-3.653,-3.7998,-3.8988,-3.9161,-4.0601,-4.1573,-4.1452,-4.2446,-4.3102,-4.3017,-4.384,-4.4193,-4.3616,-4.3999,-4.4111,-4.3296,-4.3072,-4.2959,-4.2768,-4.1667,-4.0932,-4.0966,-4.1023,-4.1048,-4.1048,-4.0955,-4.0889,-4.0874,-4.087,-4.0877,-4.0883,-4.088,-4.0877,-4.088,-4.0823,-4.0774,-4.0774,-4.017,-3.9629,-3.9668,-3.9101,-3.8281,-3.7285,-3.7051,-3.6855,-4.2892,0.0,-4.2029,-4.1699,0.0,-4.1279,-4.0636,-3.9863,-3.946,-3.9074,-3.8707,-3.8707,-3.8707,-3.8707,-3.8707,-3.8707,-3.8707,-3.8707,-3.8707,-3.8689,-3.8267,-3.7863,-3.7492,-3.7088,-3.655,-3.5898,-3.546,-3.5106,-3.484,-3.4442,-3.4255,-3.4267,-3.4255,-3.4267,-3.4267,-3.4379,-3.4301,-3.4002,-3.3159,-3.2396,-3.1731,-3.1275,-3.0237,-2.8588,0.0,0.0,0.0,0.0,0.0,0.0,0.0,0.0,0.0,0.0,0.0,-2.7236,-2.7607,-2.8198,-2.8981,-2.9467,-3.025,-3.1519,-3.2423,-3.2192,-3.0487,-3.3122,-3.5353,-3.661,-3.7911,-3.8642,-3.863,-3.941,-4.0105,-4.0512,-4.1376,-4.2053,-4.2476,-4.3274,-4.3814,-4.3861,-4.4555,-4.4957,-4.4563,-4.4841,-4.4763,-4.4002,-4.38,-4.36,-4.3132,-4.2168,-4.1338,-4.0971,-4.0908,-4.0908,-4.0905,-4.0857,-4.0797,-4.0797,-4.0797,-4.0797,-4.0797,-4.0797,-4.0797,-4.0801,-4.086,-4.0889,-4.0872,-4.0586,-4.035,-4.0313,-3.9999,-3.9414,-3.8615,-3.8194,-3.7675,-4.3479,-4.3441,-4.28,-4.2506,-4.2451,-4.1774,-4.1425,-4.126,0.0,0.0,0.0,-3.8927,-3.8854,-3.8707,-3.8707,-3.8707,-3.8707,-3.8707,-3.8707,-3.8707,-3.8707,-3.834,-3.7731,-3.7713,-3.729,-3.6501,-3.5775,-3.5371,-3.5206,-3.4399,-3.4009,-3.399,-3.388,-3.3807,-3.3802,-3.4037,-3.4046,-3.3872,-3.3781,-3.3176,-3.203,-3.1845,-3.1021,-2.9449,-2.943,-2.9027,-2.8235,-2.835,-2.8427,-2.8427,-2.8561,-2.858,-2.8465,-2.92,-2.9902,-3.0528,-3.1373,-3.2218,-3.3064,-3.3141,-3.3244,-3.3492,-3.4864,-3.5481,-3.4898,-3.568,-3.7096,-3.9315,-3.9515,-3.9785,-4.0439,-4.065,-4.1027,-4.1739,-4.2058,-4.2547,-4.3239,-4.4028,-4.4545,-4.4605,-4.515,-4.5594,-4.5535,-4.5535,-4.5364,-4.471,-4.4553,-4.422,-4.3418,-4.2555,-4.1737,-4.1213,-4.0963,-4.0788,-4.0768,-4.0757,-4.0761,-4.0738,-4.0747,-4.0737,-4.0761,-4.0757,-4.0757,-4.0738,-4.0751,-4.0768,-4.0773,-4.0758,-4.0797,-4.0797,-4.0797,-4.0603,-3.9968,-3.9379,-3.8677,-4.3479,-4.3496,-4.3369,-4.3349,-4.3313,-4.3204,-4.2763,-4.2084,-4.1295,-4.0487,-3.9717,-3.9735,-3.935,-3.8707,-3.8707,-3.8707,-3.8707,-3.8707,-3.8707,0.0,-3.8707,-3.8652,-3.8524,-3.8524,-3.812,-3.7364,-3.7199,-3.678,-3.6083,-3.5261,-3.4839,-3.4747,-3.4156,-3.3807,-3.382,-3.3842,-3.3956,-3.4128,-3.3679,-3.3355,-3.3157,-3.2411,-3.1608,-3.0721,-3.0636,-3.024,-2.9422,-3.0071,-3.0476,-3.0495,-3.1127,-3.1202,-3.057,-3.122,-3.1535,-3.1245,-3.1943,-3.2866,-3.3923,-3.4013,-3.4527,-3.5709,-3.6263,-3.6796,-3.743,-3.8265,-3.9207,-4.0227,-4.0304,-4.0362,-4.0554,-4.1162,-4.1643,-4.1912,-4.3104,-4.3989,-4.4124,-4.4844,-4.5364,-4.5364,-4.5498,-4.5594,-4.5594,-4.5594,-4.5556,-4.5421,-4.5287,-4.5094,-4.4177,-4.2908,-4.2047,-4.1747,-4.1172,-4.079,-4.0682,-4.0617,-4.0563,-4.054,-4.0542,-4.0563,-4.057,-4.0563,-4.0563,-4.0554,-4.0636,-4.0701,-4.0693,-4.0752,-4.0788,-4.0773,-4.0773,-4.0699,-4.0535,-4.0404,-3.9896,-4.3479,-4.3479,-4.3479,-4.3479,-4.3479,-4.3479,-4.3294,-4.291,-4.2561,-4.1699,-4.0598,-4.0561,-4.0102,-3.9368,-3.935,-3.9111,-3.8707,-3.8707,-3.8707,-3.8707,-3.8707,-3.8707,-3.8707,-3.8707,-3.8505,-3.8138,-3.7694,-3.7309,-3.6886,-3.6101,-3.5463,-3.4986,-3.4197,-3.3807,-3.3807,-3.3807,-3.385,-3.3968,-3.388,-3.3709,-3.3409,-3.3004,-3.242,-3.1572,-3.1553,-3.1384,-3.097,-3.1318,-3.1553,-3.1534,-3.1883,-3.1939,-3.161,-3.2345,-3.2704,-3.2493,-3.3231,-3.3982,-3.4649,-3.5109,-3.5539,-3.6074,-3.7173,-3.7991,-3.8393,-3.8965,-3.9631,-4.04,-4.0496,-4.07,-4.1162,-4.1585,-4.2162,-4.3085,-4.3874,-4.4489,-4.4932,-4.5297,-4.5594,-4.5594,-4.5594,-4.5594,-4.5594,-4.5594,-4.5594,-4.5594,-4.5594,-4.5421,-4.5009,-4.4005,-4.2891,-4.208,-4.1559,-4.1103,-4.0698,-4.0545,-4.0496,-4.0496,-4.0496,-4.0496,-4.0496,-4.0496,-4.0496,-4.0496,-4.0552,-4.0575,-4.0589,-4.061,-4.0615,-4.0647,-4.0647,-4.0647,-4.0628,-4.0628,-4.0051,-4.3479,-4.3479,-4.3479,-4.3479,-4.3479,-4.3479,-4.3479,-4.3479,-4.3479,-4.28,-4.1717,-4.1479,-4.0836,-3.9918,-3.9882,-3.946,-3.8781,-3.8707,-3.8707,-3.8707,-3.8707,-3.8707,-3.8707,-3.8707,-3.8707,-3.8634,-3.8065,-3.7753,-3.7694,-3.696,-3.6138,-3.5298,-3.4454,-3.4082,-3.4082,-3.3899,-3.3807,-3.3834,-3.4012,-3.3902,-3.3513,-3.3487,-3.3149,-3.2558,-3.2472,-3.2483,-3.2483,-3.2483,-3.2483,-3.2483,-3.2483,-3.2483,-3.252,-3.3112,-3.35,-3.3638,-3.4204,-3.479,-3.5276,-3.5845,-3.6253,-3.6389,-3.7787,-3.8725,-3.8866,-3.9165,-3.9682,-4.0358,-4.0708,-4.1104,-4.17,-4.2212,-4.2893,-4.4143,-4.4489,-4.4874,-4.5479,-4.5594,-4.5594,-4.5594,-4.5594,-4.5594,-4.5594,-4.5594,-4.5594,-4.5594,-4.5594,-4.5594,-4.5518,-4.497,-4.3989,-4.2816,-4.2077,-4.1439,-4.0689,-4.0496,-4.0496,-4.0496,-4.0496,-4.0496,-4.0496,-4.0496,-4.0496,-4.0496,-4.0496,-4.0512,-4.0496,-4.0504,-4.05,-4.0515,-4.0523,-4.0519,-4.0515,-4.0508,-4.0106,-4.3479,-4.3479,-4.3479,-4.3479,-4.3479,-4.3479,-4.3479,-4.3479,-4.3479,-4.3441,-4.313,-4.2525,-4.135,-4.001,-3.9918,-3.9515,-3.8781,-3.8707,-3.8707,-3.8707,-3.8707,-3.8707,-3.8707,-3.8707,-3.8707,-3.8689,-3.8579,-3.8505,-3.8469,-3.7731,-3.6978,-3.6174,-3.5316,-3.4894,-3.4821,-3.4192,-3.3825,-3.3807,-3.3815,-3.3818,-3.3758,-3.3753,-3.3716,-3.3661,-3.3642,-3.3647,-3.3576,-3.3647,-3.3642,-3.3629,-3.3618,-3.3624,-3.3637,-3.3716,-3.3857,-3.4081,-3.4197,-3.469,-3.5692,-3.5885,-3.6479,-3.7579,-3.8068,-3.8602,-3.902,-3.9366,-3.982,-4.0462,-4.1204,-4.1621,-4.1885,-4.3088,-4.3983,-4.431,-4.4981,-4.5537,-4.5575,-4.5594,-4.5594,-4.5594,-4.5594,-4.5594,-4.5594,-4.5594,-4.5594,-4.5594,-4.5594,-4.5594,-4.5575,-4.5479,-4.5009,-4.3989,-4.2874,-4.1643,-4.0893,-4.0516,-4.0612,-4.0573,-4.0496,-4.0496,-4.0496,-4.0496,-4.0496,-4.0496,-4.0496,-4.0496,-4.0496,-4.0496,-4.0496,-4.0496,-4.0496,-4.0496,-4.0496,-4.0496,-4.0115,-4.3479,-4.3479,-4.3479,-4.3479,-4.3479,-4.3479,-4.3479,-4.3479,-4.3479,-4.3479,-4.3442,-4.3147,-4.2378,-4.1295,-4.0818,-4.0157,-3.9386,-3.8927,-3.8707,-3.8707,-3.8707,-3.8707,-3.8707,-3.8707,-3.8707,-3.8707,-3.8707,-3.8707,-3.856,-3.7896,-3.7345,-3.696,-3.6193,-3.5775,-3.5701,-3.4931,-3.4509,-3.4491,-3.4045,-3.3807,-3.3807,-3.3807,-3.3807,-3.3807,-3.3807,-3.3807,-3.3807,-3.3807,-3.3807,-3.3807,-3.3807,-3.3807,-3.3807,-3.3807,-3.3855,-3.3998,-3.4612,-3.5318,-3.6073,-3.6721,-3.7243,-3.765,-3.8353,-3.8876,-3.9083,-3.942,-3.9902,-4.0587,-4.1009,-4.1381,-4.2003,-4.3194,-4.4211,-4.471,-4.5284,-4.5586,-4.5594,-4.5594,-4.5594,-4.5594,-4.5594,-4.5594,-4.5594,-4.5594,-4.5594,-4.5594,-4.5594,-4.5594,-4.5594,-4.5594,-4.5229,-4.4451,-4.3662,-4.3008,-4.2143,-4.1546,-4.1335,-4.1181,-4.0823,-4.0516,-4.0496,-4.0496,-4.0496,-4.0496,-4.0496,-4.0496,-4.0496,-4.0496,-4.0496,-4.0496,-4.0496,-4.0496,-4.0496,-4.0496,-4.0304,-4.3479,-4.3479,-4.3479,-4.3479,-4.3479,-4.3479,-4.3479,-4.3479,-4.3479,-4.3479,-4.3479,-4.3479,-4.3185,-4.2561,-4.1791,-4.1001,-4.0194,-3.9386,-3.9019,-3.9001,-3.8817,-3.8707,-3.8707,-3.8707,-3.8707,-3.8707,-3.8707,-3.8707,-3.8634,-3.8138,-3.7841,-3.7731,-3.7033,-3.6648,-3.6523,-3.5771,-3.5353,-3.5279,-3.4559,-3.4137,-3.4119,-3.3917,-3.3807,-3.3807,-3.3807,-3.3807,-3.3807,-3.3807,-3.3807,-3.3807,-3.3807,-3.3807,-3.3807,-3.3807,-3.3899,-3.4187,-3.5114,-3.5985,-3.6589,-3.7336,-3.7789,-3.7882,-3.8584,-3.8985,-3.9064,-3.9416,-3.9907,-4.045,-4.0942,-4.1595,-4.2372,-4.3391,-4.4266,-4.4901,-4.5201,-4.5352,-4.5438,-4.5467,-4.5475,-4.5577,-4.5594,-4.5594,-4.5594,-4.5594,-4.5594,-4.5594,-4.5594,-4.5594,-4.5594,-4.5575,-4.5364,-4.4767,-4.4671,-4.4162,-4.3297,-4.2297,-4.1912,-4.1623,-4.1085,-4.0516,-4.0496,-4.0496,-4.0496,-4.0496,-4.0496,-4.0496,-4.0496,-4.0496,-4.0496,-4.0496,-4.0496,-4.0496,-4.0496,-4.0496,-4.0496,-4.3479,-4.3479,-4.3479,-4.3479,-4.3479,-4.3479,-4.3479,-4.3479,-4.3479,-4.3479,-4.3479,-4.3479,-4.3461,-4.3349,-4.2561,-4.1809,-4.1003,-4.0212,-3.9808,-3.9698,-3.9093,-3.8707,-3.8707,-3.8707,-3.8707,-3.8707,-3.8707,-3.8707,-3.8707,-3.8652,-3.8652,-3.8579,-3.7808,-3.7456,-3.7345,-3.6652,-3.6248,-3.6156,-3.5389,-3.4949,-3.4876,-3.4247,-3.3935,-3.3954,-3.3807,-3.3807,-3.3825,-3.3825,-3.3844,-3.3825,-3.3917,-3.388,-3.3844,-3.388,-3.4215,-3.4949,-3.5803,-3.6622,-3.7309,-3.7555,-3.7871,-3.845,-3.8661,-3.8735,-3.8799,-3.9433,-3.9924,-4.0013,-4.1364,-4.2424,-4.3139,-4.3899,-4.4436,-4.4581,-4.4644,-4.4818,-4.5085,-4.5118,-4.5263,-4.5466,-4.5504,-4.5504,-4.5568,-4.5594,-4.5522,-4.5522,-4.5568,-4.5568,-4.554,-4.5577,-4.5518,-4.5498,-4.5344,-4.4979,-4.347,-4.2777,-4.22,-4.1816,-4.1431,-4.0554,-4.0516,-4.0496,-4.0496,-4.0496,-4.0496,-4.0496,-4.0496,-4.0496,-4.0496,-4.0496,-4.0496,-4.0496,-4.0496,-4.0496,-4.0496,-4.3479,-4.3479,-4.3479,-4.3479,-4.3479,-4.3479,-4.3479,-4.3479,-4.3479,-4.3479,-4.3479,-4.3479,-4.3479,-4.3479,-4.3185,-4.2635,-4.1846,-4.1038,-4.0396,-3.9918,-3.9606,-3.9184,-3.8726,-3.8707,-3.8707,-3.8707,-3.8707,-3.8707,-3.8707,-3.8707,-3.8707,-3.8689,-3.8414,-3.8267,-3.812,-3.7474,-3.707,-3.6997,-3.6248,-3.5844,-3.5826,-3.5532,-3.5404,-3.533,-3.4339,-3.3807,-3.3807,-3.427,-3.4564,-3.4564,-3.5092,-3.5404,-3.5404,-3.5404,-3.5752,-3.6486,-3.6905,-3.7419,-3.812,-3.8248,-3.8377,-3.8634,-3.8707,-3.8726,-3.8836,-3.9423,-4.0084,-4.0744,-4.1625,-4.2595,-4.332,-4.3927,-4.4223,-4.4233,-4.4447,-4.4618,-4.4751,-4.4788,-4.483,-4.4912,-4.4966,-4.5052,-4.5182,-4.5088,-4.4966,-4.4977,-4.514,-4.5253,-4.5303,-4.5438,-4.5568,-4.5586,-4.5594,-4.5421,-4.4932,-4.3989,-4.3278,-4.2604,-4.1989,-4.1162,-4.0816,-4.0554,-4.0496,-4.0496,-4.0496,-4.0496,-4.0496,-4.0496,-4.0496,-4.0496,-4.0496,-4.0496,-4.0496,-4.0496,-4.0496,-4.3392,-4.325,-4.3232,-4.3124,-4.2959,-4.2959,-4.2959,-4.2959,-4.2959,-4.2959,-4.294,-4.294,-4.2959,-4.2959,-4.294,-4.2668,-4.2141,-4.1659,-4.1084,-4.0402,-4.0112,-3.9516,-3.8692,-3.8549,-3.8439,-3.8289,-3.8382,-3.843,-3.8465,-3.8609,-3.8707,-3.8707,-3.8707,-3.8707,-3.8597,-3.8138,-3.7878,-3.7749,-3.7107,-3.6703,-3.6666,-3.6431,-3.6285,-3.6138,-3.5165,-3.4614,-3.4614,-3.5147,-3.5408,-3.55,-3.5991,-3.6285,-3.6303,-3.6541,-3.6923,-3.7419,-3.7734,-3.8102,-3.8597,-3.8707,-3.8689,-3.8707,-3.8707,-3.8781,-3.9074,-3.9827,-4.0616,-4.1407,-4.2213,-4.2965,-4.3365,-4.371,-4.3833,-4.3865,-4.4095,-4.4294,-4.4392,-4.4406,-4.4474,-4.4606,-4.4644,-4.472,-4.4861,-4.472,-4.4644,-4.4593,-4.4825,-4.4919,-4.4966,-4.5118,-4.5292,-4.5273,-4.5232,-4.5203,-4.4942,-4.4357,-4.4019,-4.3422,-4.2268,-4.1517,-4.096,-4.068,-4.0446,-4.0473,-4.0481,-4.0489,-4.0489,-4.0489,-4.0481,-4.0473,-4.0496,-4.0496,-4.0496,-4.0496,-4.0446,-4.316,-4.2713,-4.2692,-4.242,-4.1982,-4.1979,-4.1874,-4.1937,-4.1916,-4.2,-4.2041,-4.1895,-4.2,-4.1895,-4.2021,-4.186,-4.1892,-4.2014,-4.1759,-4.1141,-4.0527,-3.9585,-3.8491,-3.8386,-3.7961,-3.7395,-3.7702,-3.7876,-3.7929,-3.83,-3.8546,-3.8627,-3.8611,-3.8578,-3.8658,-3.8535,-3.8603,-3.8435,-3.7796,-3.7448,-3.7419,-3.6853,-3.6541,-3.6468,-3.634,-3.627,-3.6274,-3.627,-3.6303,-3.6303,-3.6395,-3.634,-3.6597,-3.711,-3.7529,-3.7694,-3.8248,-3.8634,-3.8689,-3.8707,-3.8707,-3.8707,-3.8707,-3.9019,-3.9698,-4.0506,-4.1297,-4.2084,-4.2873,-4.3461,-4.3461,-4.3531,-4.3565,-4.3515,-4.3614,-4.3742,-4.3943,-4.4016,-4.4146,-4.4428,-4.4501,-4.4585,-4.4599,-4.4487,-4.4433,-4.4447,-4.454,-4.458,-4.4593,-4.4682,-4.4663,-4.4657,-4.4757,-4.4842,-4.472,-4.4569,-4.4432,-4.4087,-4.2708,-4.1653,-4.1167,-4.0794,-4.0307,-4.0239,-4.023,-4.023,-4.0202,-4.0202,-4.0266,-4.0274,-4.0362,-4.0353,-4.0283,-4.0239,-4.03,-4.2226,-4.2101,-4.2062,-4.1979,-4.181,-4.181,-4.181,-4.181,-4.181,-4.181,-4.181,-4.181,-4.181,-4.181,-4.181,-4.1789,-4.1814,-4.1899,-4.1562,-4.09,-4.0595,-3.9962,-3.9095,-3.8528,-3.7895,-3.7334,-3.7359,-3.7433,-3.7469,-3.7596,-3.7667,-3.7721,-3.7998,-3.8132,-3.8167,-3.8148,-3.8281,-3.859,-3.8079,-3.7952,-3.8273,-3.8068,-3.794,-3.7955,-3.7955,-3.7796,-3.7437,-3.7217,-3.7129,-3.7129,-3.7661,-3.7955,-3.801,-3.8193,-3.8322,-3.834,-3.8542,-3.8707,-3.8707,-3.8707,-3.8707,-3.8707,-3.8707,-3.9111,-3.9827,-4.0671,-4.1479,-4.2249,-4.3002,-4.3479,-4.3479,-4.3479,-4.3479,-4.3479,-4.3496,-4.3531,-4.3646,-4.3679,-4.382,-4.4058,-4.3989,-4.3962,-4.4095,-4.405,-4.3899,-4.3931,-4.4065,-4.4175,-4.4204,-4.4392,-4.4593,-4.4593,-4.4593,-4.4487,-4.4419,-4.4378,-4.4316,-4.395,-4.2862,-4.1893,-4.1386,-4.0633,-4.0185,-3.9984,-3.9974,-3.9964,-3.9935,-3.9945,-3.9985,-3.9945,-3.9915,-3.9913,-3.9903,-3.9954,-4.0034,-4.1664,-4.1468,-4.1468,-4.1335,-4.119,-4.1168,-4.115,-4.119,-4.115,-4.1173,-4.1168,-4.1168,-4.119,-4.119,-4.1173,-4.1168,-4.119,-4.1173,-4.0906,-4.0528,-4.0657,-4.0193,-3.9264,-3.8512,-3.7784,-3.7222,-3.7241,-3.7165,-3.6939,-3.7097,-3.7209,-3.7267,-3.7506,-3.7632,-3.7649,-3.7667,-3.7843,-3.805,-3.7808,-3.7808,-3.8066,-3.8152,-3.8152,-3.8135,-3.8133,-3.7982,-3.7649,-3.7476,-3.7473,-3.7724,-3.8339,-3.8673,-3.8707,-3.8689,-3.8707,-3.8707,-3.8707,-3.8707,-3.8707,-3.8707,-3.8707,-3.8726,-3.8982,-3.9515,-4.0286,-4.1075,-4.1882,-4.2671,-4.3203,-4.3479,-4.3479,-4.3479,-4.3479,-4.3479,-4.3479,-4.3479,-4.3479,-4.3479,-4.3563,-4.3742,-4.3646,-4.3629,-4.3677,-4.3679,-4.3496,-4.3512,-4.366,-4.382,-4.3868,-4.402,-4.4136,-4.4194,-4.4091,-4.408,-4.4154,-4.4154,-4.4136,-4.3633,-4.2936,-4.2195,-4.1616,-4.0503,-3.9746,-3.9757,-3.9746,-3.9767,-3.9757,-3.9724,-3.9724,-3.9611,-3.9571,-3.9656,-3.9735,-3.9701,-3.9757,-4.1375,-4.088,-4.0874,-4.0601,-4.0204,-4.0196,-4.0229,-4.0171,-4.0171,-4.0204,-4.0196,-4.0279,-4.0221,-4.0171,-4.0303,-4.0303,-4.0146,-4.0254,-4.0262,-4.03,-4.048,-4.0133,-3.9068,-3.8408,-3.7767,-3.7161,-3.7347,-3.7128,-3.6617,-3.6936,-3.715,-3.6999,-3.7058,-3.7154,-3.7154,-3.7171,-3.7192,-3.7304,-3.721,-3.7173,-3.7303,-3.7267,-3.7267,-3.7285,-3.7322,-3.7267,-3.7155,-3.7121,-3.7362,-3.7876,-3.8364,-3.8611,-3.8673,-3.8707,-3.8707,-3.8707,-3.8707,-3.8707,-3.8707,-3.8593,-3.8635,-3.88,-3.9328,-4.0253,-4.0923,-4.1687,-4.247,-4.324,-4.3442,-4.3479,-4.3479,-4.3479,-4.3479,-4.3479,-4.3479,-4.3479,-4.3479,-4.3479,-4.3531,-4.3531,-4.3496,-4.3496,-4.3529,-4.3513,-4.3496,-4.3496,-4.3531,-4.3546,-4.3563,-4.3646,-4.3548,-4.358,-4.3693,-4.3726,-4.3855,-4.3855,-4.3836,-4.3581,-4.294,-4.2357,-4.1801,-4.074,-3.9977,-3.9921,-3.9826,-3.9768,-3.9726,-3.9802,-3.9602,-3.9377,-3.9396,-3.9536,-3.9512,-3.9421,-3.9408,-4.0441,-4.0311,-4.0311,-4.0229,-4.0096,-4.0113,-4.0113,-4.0113,-4.0113,-4.0113,-4.0113,-4.0113,-4.0113,-4.0113,-4.0113,-4.0113,-4.0113,-4.0113,-4.0113,-4.0121,-4.0229,-3.9829,-3.9114,-3.8819,-3.8328,-3.7733,-3.7738,-3.7393,-3.6735,-3.6906,-3.668,-3.6071,-3.6527,-3.6638,-3.662,-3.662,-3.6843,-3.7076,-3.6766,-3.6803,-3.7097,-3.7135,-3.7209,-3.7209,-3.7171,-3.6962,-3.6664,-3.6603,-3.7022,-3.7825,-3.8013,-3.83,-3.8578,-3.8627,-3.8611,-3.8611,-3.8643,-3.8676,-3.8596,-3.8336,-3.837,-3.8879,-3.9259,-3.9892,-4.1216,-4.1917,-4.2656,-4.3296,-4.3479,-4.3479,-4.3479,-4.3479,-4.3479,-4.3479,-4.3479,-4.3479,-4.3479,-4.3479,-4.3479,-4.3479,-4.3479,-4.3479,-4.3479,-4.3479,-4.3479,-4.3479,-4.3479,-4.3479,-4.3479,-4.3479,-4.3479,-4.3479,-4.3546,-4.3531,-4.3531,-4.3531,-4.3493,-4.3433,-4.2984,-4.2424,-4.1927,-4.1295,-4.088,-4.0754,-4.0529,-4.0448,-4.0314,-4.0273,-3.9834,-3.9491,-3.963,-3.9891,-3.9239,-3.8958,-3.8983,-4.0113,-4.0113,-4.0113,-4.0113,-4.0113,-4.0113,-4.0113,-4.0113,-4.0113,-4.0113,-4.0113,-4.0113,-4.0113,-4.0113,-4.0113,-4.0113,-4.0113,-4.0113,-4.0113,-4.0113,-4.0121,-3.9859,-3.9554,-3.9469,-3.9073,-3.843,-3.8379,-3.7939,-3.7388,-3.7263,-3.6992,-3.6729,-3.6551,-3.6568,-3.659,-3.6212,-3.6203,-3.6419,-3.6207,-3.6228,-3.6501,-3.6504,-3.6522,-3.6522,-3.6522,-3.6336,-3.6097,-3.6054,-3.6525,-3.7342,-3.7614,-3.7755,-3.7998,-3.8066,-3.8066,-3.805,-3.8066,-3.8068,-3.8088,-3.8025,-3.8258,-3.8758,-3.9224,-4.0101,-4.102,-4.1867,-4.2759,-4.3051,-4.3339,-4.3462,-4.3479,-4.3479,-4.3479,-4.3479,-4.3479,-4.3479,-4.3479,-4.3479,-4.3479,-4.3479,-4.3479,-4.3479,-4.3479,-4.3479,-4.3479,-4.3479,-4.3479,-4.3479,-4.3479,-4.3479,-4.3479,-4.3479,-4.3479,-4.3479,-4.3479,-4.3479,-4.3479,-4.3386,-4.3258,-4.2653,-4.2121,-4.1699,-4.1422,-4.1199,-4.1148,-4.1077,-4.0893,-4.0763,-4.057,-4.0372,-4.0357,-4.0065,-3.9551,-3.9205,-3.9148,-4.0113,-4.0113,-4.0113,-4.0113,-4.0113,-4.0113,-4.0113,-4.0113,-4.0113,-4.0113,-4.0113,-4.0113,-4.0113,-4.0113,-4.0113,-4.0113,-4.0113,-4.0113,-4.0113,-4.0113,-4.0113,-4.0028,-3.9994,-3.996,-3.9631,-3.9157,-3.9089,-3.8667,-3.8176,-3.8024,-3.7939,-3.7625,-3.7157,-3.6954,-3.6921,-3.6327,-3.5926,-3.6124,-3.6231,-3.6243,-3.6264,-3.6162,-3.61,-3.61,-3.6082,-3.614,-3.6084,-3.6067,-3.6435,-3.7244,-3.7164,-3.719,-3.7228,-3.7265,-3.7389,-3.7569,-3.7714,-3.7766,-3.7581,-3.8182,-3.8415,-3.8768,-3.9791,-4.0567,-4.0887,-4.1795,-4.2508,-4.258,-4.305,-4.3123,-4.3178,-4.3232,-4.316,-4.3142,-4.3249,-4.341,-4.3427,-4.3462,-4.3479,-4.3479,-4.3479,-4.3479,-4.3479,-4.3479,-4.3479,-4.3479,-4.3479,-4.3479,-4.3479,-4.3479,-4.3479,-4.3479,-4.3479,-4.3479,-4.3479,-4.3479,-4.3479,-4.346,-4.346,-4.3057,-4.2396,-4.1974,-4.1682,-4.1572,-4.1992,-4.1864,-4.1407,-4.1279,-4.1315,-4.1077,-4.0965,-4.0634,-4.0267,-4.0102,-3.9976,-4.0113,-4.0113,-4.0113,-4.0113,-4.0113,-4.0113,-4.0113,-4.0113,-4.0113,-4.0113,-4.0113,-4.0113,-4.0113,-4.0113,-4.0113,-4.0113,-4.0113,-4.0113,-4.0113,-4.0113,-4.0113,-4.0113,-4.0113,-4.0113,-4.0011,-3.9808,-3.9859,-3.9445,-3.892,-3.8717,-3.8481,-3.7973,-3.7855,-3.7669,-3.7601,-3.7398,-3.7398,-3.7391,-3.7364,-3.7297,-3.7144,-3.6772,-3.6535,-3.6535,-3.6535,-3.6857,-3.7297,-3.7415,-3.7515,-3.7507,-3.7093,-3.6933,-3.7246,-3.7711,-3.7939,-3.806,-3.8523,-3.8826,-3.8856,-3.8632,-3.8816,-3.9281,-3.9703,-4.0234,-4.0854,-4.1502,-4.1958,-4.2,-4.2103,-4.2286,-4.2306,-4.2206,-4.2286,-4.2386,-4.2619,-4.2846,-4.2921,-4.325,-4.3462,-4.3479,-4.3479,-4.3479,-4.3479,-4.3479,-4.3479,-4.3479,-4.3479,-4.3479,-4.3479,-4.3479,-4.3479,-4.3479,-4.3479,-4.3479,-4.3479,-4.3479,-4.3479,-4.341,-4.3374,-4.3303,-4.2644,-4.2513,-4.2314,-4.2585,-4.3057,-4.2708,-4.2121,-4.2396,-4.2543,-4.2066,-4.159,-4.1387,-4.1185,-4.1001,-4.0655,-4.0409,-4.0113,-4.0113,-4.0113,-4.0113,-4.0113,-4.0113,-4.0113,-4.0113,-4.0113,-4.0113,-4.0113,-4.0113,-4.0113,-4.0113,-4.0113,-4.0113,-4.0113,-4.0113,-4.0113,-4.0113,-4.0113,-4.0113,-4.0113,-4.0113,-4.007,-4.0096,-3.9842,-3.9605,-3.9469,-3.9326,-3.8903,-3.8582,-3.8413,-3.8328,-3.8125,-3.7872,-3.7831,-3.7898,-3.7898,-3.7821,-3.755,-3.7313,-3.7313,-3.7313,-3.7533,-3.7821,-3.7889,-3.7865,-3.7773,-3.7428,-3.7222,-3.7482,-3.7893,-3.8101,-3.82,-3.8425,-3.8685,-3.8592,-3.8802,-3.8956,-3.9384,-3.9716,-4.0117,-4.0552,-4.1059,-4.1335,-4.1446,-4.1639,-4.181,-4.181,-4.1832,-4.181,-4.1853,-4.2062,-4.2244,-4.2402,-4.2977,-4.3479,-4.3479,-4.3479,-4.3479,-4.3479,-4.3374,-4.3427,-4.341,-4.3444,-4.3462,-4.3479,-4.3479,-4.3479,-4.3479,-4.3479,-4.3479,-4.3479,-4.3479,-4.3479,-4.3339,-4.316,-4.3069,-4.2759,-4.2869,-4.305,-4.3249,-4.3335,-4.3351,-4.2965,-4.3368,-4.3404,-4.2965,-4.2543,-4.2304,-4.2047,-4.1772,-4.135,-4.0764,-4.0113,-4.0113,-4.0113,-4.0113,-4.0113,-4.0113,-4.0113,-4.0113,-4.0113,-4.0113,-4.0113,-4.0113,-4.0113,-4.0113,-4.0113,-4.0113,-4.0113,-4.0113,-4.0113,-3.985,-3.9825,-3.9756,-3.9653,-3.9549,-3.9773,-3.9995,-4.002,-4.0062,-4.0096,-3.991,-3.991,-3.9503,-3.9174,-3.9005,-3.8633,-3.843,-3.8481,-3.8481,-3.8464,-3.8345,-3.8227,-3.8075,-3.8058,-3.8075,-3.821,-3.8396,-3.8447,-3.8345,-3.8227,-3.8244,-3.8244,-3.8227,-3.8091,-3.8075,-3.8122,-3.8404,-3.8639,-3.8789,-3.8933,-3.9248,-3.9208,-3.9714,-4.0053,-4.0237,-4.0497,-4.0726,-4.092,-4.1105,-4.1358,-4.153,-4.1397,-4.142,-4.1468,-4.1534,-4.1664,-4.1874,-4.262,-4.3014,-4.3123,-4.2959,-4.2903,-4.3051,-4.3087,-4.3196,-4.3303,-4.3339,-4.3356,-4.3356,-4.341,-4.3339,-4.3462,-4.3479,-4.3268,-4.3232,-4.2866,-4.2959,-4.294,-4.279,-4.2675,-4.2559,-4.2578,-4.2696,-4.316,-4.3303,-4.33,-4.337,-4.3441,-4.3461,-4.3479,-4.3332,-4.2928,-4.269,-4.2506,-4.2035,-4.0764,-4.0113,-4.0113,-4.0113,-4.0113,-4.0096,-4.0045,-4.0113,-3.9995,-4.007,-4.0045,-4.007,-4.0045,-4.007,-4.0113,-4.0096,-4.002,-3.9952,-3.9969,-3.9808,-3.9411,-3.9129,-3.9049,-3.8695,-3.839,-3.8557,-3.9252,-3.9876,-3.9944,-4.0113,-3.9901,-4.0011,-3.9868,-3.9767,-3.9708,-3.9757,-3.9446,-3.9386,-3.9395,-3.9362,-3.9394,-3.9073,-3.8802,-3.8802,-3.8802,-3.9073,-3.9537,-3.969,-3.974,-3.974,-3.974,-3.969,-3.9478,-3.9073,-3.8853,-3.8903,-3.9259,-3.9469,-3.9537,-3.974,-3.991,-3.996,-4.0028,-4.0079,-4.0121,-4.0179,-4.0319,-4.0336,-4.0385,-4.0441,-4.0385,-4.0563,-4.0458,-4.0497,-4.0797,-4.1059,-4.1201,-4.1621,-4.2065,-4.2085,-4.2103,-4.2226,-4.2464,-4.2619,-4.2638,-4.2676,-4.2733,-4.2771,-4.2809,-4.2921,-4.3014,-4.3232,-4.3479,-4.3178,-4.2902,-4.2384,-4.2144,-4.2188,-4.2106,-4.2041,-4.1958,-4.1958,-4.2165,-4.2503,-4.294,-4.3178,-4.3285,-4.3321,-4.3267,-4.3105,-4.3213,-4.3371,-4.2939,-4.2487,-4.2596,-4.1339,-4.0646,-4.0265,-4.0113,-4.002,-3.9636,-3.9489,-3.9411,-3.9076,-3.8914,-3.9022,-3.9279,-3.9489,-3.9584,-3.9969,-3.9901,-3.9558,-3.9489,-3.9279,-3.8897,-3.8513,-3.8346,-3.8346,-3.7892,-3.7851,-3.7994,-3.8585,-3.8914,-3.8968,-3.9305,-3.9279,-3.9049,-3.9236,-3.9463,-3.9489,-3.9387,-3.9731,-3.9876,-3.9731,-3.9688,-4.002,-3.9665,-3.9563,-3.9546,-3.9529,-3.9774,-3.9977,-4.0113,-4.0096,-4.0079,-4.0096,-4.0113,-3.9994,-3.9825,-3.9571,-3.958,-3.9868,-4.0113,-4.0113,-4.0113,-4.0079,-4.0096,-4.0113,-4.0113,-4.0113,-4.0096,-4.0113,-4.0113,-4.0113,-4.0113,-4.0146,-4.0113,-4.0113,-4.0146,-4.0343,-4.0473,-4.057,-4.0814,-4.0955,-4.1122,-4.1552,-4.181,-4.1937,-4.2041,-4.2038,-4.2059,-4.2101,-4.2162,-4.2223,-4.2402,-4.2541,-4.26,-4.2773,-4.2562,-4.2264,-4.1895,-4.153,-4.1512,-4.1468,-4.1397,-4.1353,-4.1335,-4.1402,-4.1582,-4.2106,-4.2581,-4.26,-4.2464,-4.2562,-4.2658,-4.2602,-4.2582,-4.2563,-4.2524,-4.2521,-4.1769,-4.0937,-4.0493,-4.0053,-3.9575,-3.9139,-3.8799,-3.8596,-3.8108,-3.7892,-3.7892,-3.8386,-3.869,-3.8827,-3.9183,-3.9252,-3.869,-3.8707,-3.8386,-3.8007,-3.7661,-3.7544,-3.7544,-3.7383,-3.7191,-3.7055,-3.7235,-3.7501,-3.8064,-3.8458,-3.8318,-3.8246,-3.8497,-3.869,-3.869,-3.8707,-3.9172,-3.9209,-3.9102,-3.9059,-3.9506,-3.9782,-3.9859,-3.9876,-3.985,-3.9791,-3.9756,-3.9756,-3.9756,-3.9833,-3.9952,-4.0113,-4.0113,-4.0096,-4.002,-3.991,-4.0003,-4.007,-4.0113,-4.0113,-4.0113,-4.0113,-4.0113,-4.0113,-4.0113,-4.0113,-4.0113,-4.0113,-4.0113,-4.0113,-4.0113,-4.0113,-4.0113,-4.0096,-4.0096,-4.0121,-4.0171,-4.0279,-4.0328,-4.0618,-4.1122,-4.1263,-4.1303,-4.1446,-4.1446,-4.1331,-4.1353,-4.1556,-4.1643,-4.1853,-4.1961,-4.1877,-4.186,-4.1732,-4.1556,-4.1397,-4.1105,-4.1007,-4.0891,-4.0791,-4.0767,-4.075,-4.0827,-4.092,-4.1059,-4.1486,-4.153,-4.1789,-4.2062,-4.2144,-4.1916,-4.1895,-4.2103,-4.2085,-4.1982,-4.1423,-4.0266,-4.0824,-3.992,-3.8355,-3.8624,-3.8469,-3.7921,-3.7748,-3.7822,-3.7618,-3.7879,-3.795,-3.8064,-3.8092,-3.8064,-3.795,-3.7921,-3.7777,-3.7442,-3.701,-3.6737,-3.6661,-3.6006,-3.6085,-3.6101,-3.599,-3.66,-3.7324,-3.7748,-3.7835,-3.7719,-3.7703,-3.7921,-3.7905,-3.7905,-3.7978,-3.8064,-3.8035,-3.8035,-3.8206,-3.8734,-3.9005,-3.9059,-3.9032,-3.9032,-3.9059,-3.9076,-3.9059,-3.9113,-3.9688,-4.002,-4.0113,-4.0113,-3.9688,-3.9489,-3.961,-4.0096,-4.002,-3.9969,-3.9969,-3.9927,-3.9944,-4.0045,-3.9978,-3.9952,-3.9978,-4.0113,-4.0113,-4.0113,-4.0113,-4.0113,-4.0113,-4.0113,-4.0113,-4.0113,-4.0113,-4.0113,-4.0113,-4.0121,-4.0618,-4.0514,-4.0458,-4.0696,-4.085,-4.0703,-4.0648,-4.0874,-4.1059,-4.1241,-4.153,-4.1508,-4.1223,-4.1059,-4.099,-4.0821,-4.0744,-4.057,-4.0466,-4.0311,-4.0385,-4.0417,-4.0286,-4.0385,-4.049,-4.0761,-4.1145,-4.1464,-4.1703,-4.1617,-4.1375,-4.153,-4.1814,-4.1686,-4.1424,-4.1051,-4.051,-4.0046,-3.9312,-3.8352,-3.7863,-3.7424,-3.7084,-3.6677,-3.6492,-3.66,-3.6995,-3.7368,-3.7648,-3.7822,-3.7544,-3.7219,-3.713,-3.686,-3.66,-3.6212,-3.6006,-3.5926,-3.5668,-3.5489,-3.5489,-3.5522,-3.5765,-3.6508,-3.6905,-3.695,-3.6631,-3.6919,-3.7114,-3.713,-3.7114,-3.7427,-3.769,-3.7793,-3.7573,-3.7456,-3.7819,-3.8274,-3.8258,-3.829,-3.829,-3.8274,-3.829,-3.829,-3.8302,-3.8695,-3.8778,-3.8805,-3.8778,-3.8569,-3.8402,-3.8569,-3.8941,-3.9315,-3.9411,-3.9437,-3.9305,-3.9156,-3.8914,-3.9246,-3.942,-3.9662,-4.007,-4.0096,-4.0045,-4.002,-4.0113,-4.0113,-4.0113,-4.0045,-4.0113,-4.0113,-4.0113,-4.0113,-4.0113,-4.0113,-4.0113,-4.0113,-4.0286,-4.0497,-4.0441,-4.036,-4.0441,-4.0497,-4.0514,-4.0879,-4.1253,-4.0861,-4.0449,-4.0441,-4.036,-4.041,-4.0286,-4.0286,-4.0196,-4.0171,-4.0121,-4.0113,-4.0113,-4.0229,-4.0538,-4.0868,-4.0908,-4.0908,-4.0885,-4.0814,-4.0961,-4.1099,-4.0885,-4.0666,-4.0337,-4.0195,-3.9417,-3.8702,-3.7914,-3.6986,-3.6492,-3.6244,-3.5814,-3.5522,-3.5636,-3.6086,-3.6692,-3.7101,-3.7101,-3.6799,-3.6337,-3.6337,-3.6006,-3.5636,-3.5489,-3.5522,-3.5554,-3.5489,-3.5489,-3.5489,-3.5489,-3.5587,-3.5733,-3.599,-3.607,-3.5537,-3.6133,-3.6306,-3.6322,-3.6368,-3.6585,-3.6951,-3.7041,-3.6783,-3.6569,-3.71,-3.7427,-3.7499,-3.7515,-3.7515,-3.7515,-3.7515,-3.7485,-3.7515,-3.7835,-3.8007,-3.8007,-3.8035,-3.7835,-3.769,-3.7806,-3.8035,-3.8302,-3.8442,-3.8674,-3.8608,-3.8318,-3.8206,-3.8525,-3.8663,-3.8761,-3.9305,-3.9332,-3.9401,-3.9558,-3.9584,-3.9705,-3.9782,-3.9944,-4.002,-4.007,-4.002,-4.0045,-4.0113,-4.0113,-4.0113,-4.0113,-4.0113,-4.0146,-4.0121,-4.0113,-4.0113,-4.0096,-4.0121,-4.0353,-4.0802,-4.0611,-4.0229,-4.0179,-4.0121,-4.0113,-4.0113,-4.0113,-4.0113,-4.0113,-4.0113,-4.0113,-4.0113,-4.0113,-4.0204,-4.049,-4.0303,-4.0096,-4.0328,-4.0458,-4.0279,-4.0229,-4.0113,-4.0096,-3.9148,-3.8616,-3.9408,-3.82,-3.5918,-3.6399,-3.6196,-3.5686,-3.5522,-3.5489,-3.5489,-3.5619,-3.5718,-3.5797,-3.5941,-3.5846,-3.5604,-3.5602,-3.5554,-3.5522,-3.5489,-3.5489,-3.5489,-3.5489,-3.5489,-3.5489,-3.5489,-3.5489,-3.5489,-3.5604,-3.5604,-3.5554,-3.5701,-3.5651,-3.5668,-3.5782,-3.5782,-3.6022,-3.599,-3.5926,-3.5894,-3.629,-3.6676,-3.6661,-3.6691,-3.6691,-3.6707,-3.6676,-3.6676,-3.6707,-3.716,-3.7442,-3.7383,-3.7413,-3.713,-3.6905,-3.7175,-3.7279,-3.7293,-3.7629,-3.8161,-3.8414,-3.8161,-3.7589,-3.7819,-3.7863,-3.7966,-3.8177,-3.8402,-3.8262,-3.8374,-3.8513,-3.8924,-3.9102,-3.9305,-3.961,-3.9705,-3.9876,-3.9901,-4.0045,-4.0113,-4.0113,-4.0113,-4.0113,-4.0113,-4.0113,-4.0113,-4.0113,-4.0113,-4.0096,-4.0096,-4.0279,-4.0254,-4.0121,-4.0121,-4.0113,-4.0113,-4.0113,-4.0113,-4.0113,-4.0113,-4.0113,-4.0113,-4.0113,-4.0113,-4.0113,-4.0113,-4.0113,-4.0113,-4.0113,-4.0113,-4.0113,-4.0113,-4.0113,-4.0113,-3.8392,-3.7803,-3.7813,-3.7166,-3.6106,-3.598,-3.5765,-3.5522,-3.5489,-3.5489,-3.5489,-3.5489,-3.5489,-3.5489,-3.5489,-3.5489,-3.5489,-3.5489,-3.5489,-3.5489,-3.5489,-3.5489,-3.5489,-3.5489,-3.5489,-3.5489,-3.5489,-3.5489,-3.5489,-3.5489,-3.5489,-3.5489,-3.5489,-3.5489,-3.5489,-3.5489,-3.5489,-3.5489,-3.5489,-3.5489,-3.5554,-3.5701,-3.5926,-3.5911,-3.5911,-3.5911,-3.5911,-3.5926,-3.5911,-3.6038,-3.6305,-3.6461,-3.6538,-3.6508,-3.6337,-3.6038,-3.6384,-3.6461,-3.6646,-3.6828,-3.701,-3.6677,-3.6538,-3.66,-3.7025,-3.707,-3.7397,-3.7602,-3.7706,-3.7589,-3.7863,-3.8035,-3.8234,-3.8302,-3.8569,-3.8995,-3.9209,-3.9332,-3.9679,-3.9756,-3.9969,-4.0113,-4.0113,-4.0113,-4.0113,-4.0113,-4.0113,-4.0113,-4.0113,-4.0113,-4.0113,-4.0113,-4.0113,-4.0113,-4.0113,-4.0113,-4.0113,-4.0045,-4.0045,-4.002,-3.9995,-4.0113,-4.0113,-4.0113,-4.0045,-3.9952,-3.9952,-4.007,-4.0096,-4.007,-4.007,-4.0113,-4.0113,-4.0113,-4.0113,-3.8003,-3.736,-3.6746,-3.6357,-3.6133,-3.5699,-3.5489,-3.5489,-3.5489,-3.5489,-3.5489,-3.5489,-3.5489,-3.5489,-3.5489,-3.5489,-3.5489,-3.5489,-3.5489,-3.5489,-3.5489,-3.5489,-3.5489,-3.5489,-3.5489,-3.5489,-3.5489,-3.5489,-3.5489,-3.5489,-3.5489,-3.5489,-3.5489,-3.5489,-3.5489,-3.5489,-3.5489,-3.5489,-3.5489,-3.5489,-3.5489,-3.5537,-3.5537,-3.5554,-3.5587,-3.5572,-3.5572,-3.5604,-3.5587,-3.5572,-3.5619,-3.5554,-3.5522,-3.5489,-3.5489,-3.5489,-3.5554,-3.5782,-3.6134,-3.6446,-3.6259,-3.5894,-3.5701,-3.5894,-3.6117,-3.6306,-3.6538,-3.6844,-3.7041,-3.7145,-3.7205,-3.7219,-3.7397,-3.7499,-3.795,-3.8346,-3.8486,-3.8624,-3.9102,-3.9437,-3.961,-3.9714,-4.007,-4.0045,-4.002,-4.0045,-4.0113,-4.0113,-4.0113,-4.0113,-4.0113,-4.0113,-4.0113,-4.0113,-4.0113,-4.007,-3.9978,-3.9662,-3.9662,-3.9756,-3.9808,-3.9876,-4.002,-4.007,-3.9978,-3.9808,-3.9584,-3.9305,-3.9627,-4.0045,-3.9995,-3.9927,-4.0113,-4.0113,-4.0113,-3.7988,-3.736,-3.6716,-3.6103,-3.5609,-3.5519,-3.5489,-3.5489,-3.5489,-3.5489,-3.5489,-3.5489,-3.5489,-3.5489,-3.5489,-3.5489,-3.5489,-3.5489,-3.5489,-3.5489,-3.5489,-3.5489,-3.5489,-3.5489,-3.5489,-3.5489,-3.5489,-3.5489,-3.5489,-3.5489,-3.5489,-3.5489,-3.5489,-3.5489,-3.5489,-3.5489,-3.5489,-3.5489,-3.5489,-3.5489,-3.5489,-3.5489,-3.5489,-3.5489,-3.5489,-3.5489,-3.5489,-3.5489,-3.5489,-3.5489,-3.5489,-3.5489,-3.5489,-3.5489,-3.5489,-3.5489,-3.5489,-3.5522,-3.5604,-3.6212,-3.6086,-3.5604,-3.5489,-3.5604,-3.5587,-3.5619,-3.5701,-3.6101,-3.5894,-3.5782,-3.5894,-3.6212,-3.6523,-3.6783,-3.7205,-3.7515,-3.7645,-3.7819,-3.823,-3.8761,-3.8951,-3.9166,-3.9688,-3.9995,-3.9927,-3.9952,-4.007,-4.0096,-4.007,-4.0113,-4.0113,-4.0113,-4.007,-3.9876,-3.985,-3.9952,-3.9833,-3.9463,-3.9183,-3.9156,-3.9252,-3.9305,-3.9506,-3.9825,-3.9532,-3.9022,-3.8679,-3.8402,-3.8832,-3.9252,-3.9653,-3.9731,-3.9927,-3.9876,-3.9627,-3.7614,-3.733,-3.6267,-3.5714,-3.5504,-3.5489,-3.5489,-3.5489,-3.5489,-3.5489,-3.5489,-3.5489,-3.5489,-3.5489,-3.5489,-3.5489,-3.5489,-3.5489,-3.5489,-3.5489,-3.5489,-3.5489,-3.5489,-3.5489,-3.5489,-3.5489,-3.5489,-3.5489,-3.5489,-3.5489,-3.5489,-3.5489,-3.5489,-3.5489,-3.5489,-3.5489,-3.5489,-3.5489,-3.5489,-3.5489,-3.5489,-3.5489,-3.5489,-3.5489,-3.5489,-3.5489,-3.5489,-3.5489,-3.5489,-3.5489,-3.5489,-3.5489,-3.5489,-3.5489,-3.5489,-3.5489,-3.5489,-3.5489,-3.5537,-3.5782,-3.575,-3.5554,-3.5489,-3.5489,-3.5489,-3.5489,-3.5489,-3.5489,-3.5489,-3.5489,-3.5636,-3.5718,-3.5894,-3.5863,-3.6196,-3.6523,-3.6753,-3.6934,-3.7277,-3.7847,-3.8218,-3.858,-3.9059,-3.9156,-3.9172,-3.9428,-3.9506,-3.985,-3.9944,-4.002,-4.0087,-4.0113,-4.0045,-3.9731,-3.9558,-3.9411,-3.9022,-3.8469,-3.8274,-3.8262,-3.8374,-3.8596,-3.8652,-3.8778,-3.8458,-3.8149,-3.7863,-3.769,-3.8023,-3.8418,-3.8513,-3.875,-3.8859,-3.8723,-3.8446,-3.709,-3.6971,-3.5953,-3.5489,-3.5489,-3.5489,-3.5489,-3.5489,-3.5489,-3.5489,-3.5489,-3.5489,-3.5489,-3.5489,-3.5489,-3.5489,-3.5489,-3.5489,-3.5489,-3.5489,-3.5489,-3.5489,-3.5489,-3.5457,-3.5489,-3.5489,-3.5489,-3.5489,-3.5489,-3.5489,-3.5489,-3.5489,-3.5457,-3.5489,-3.5489,-3.5489,-3.5489,-3.5489,-3.5489,-3.5489,-3.5489,-3.5489,-3.5489,-3.5489,-3.5489,-3.5489,-3.5489,-3.5489,-3.5489,-3.5489,-3.5489,-3.5489,-3.5489,-3.5489,-3.5489,-3.5489,-3.5489,-3.5489,-3.5537,-3.5537,-3.5554,-3.5489,-3.5489,-3.5489,-3.5489,-3.5489,-3.5489,-3.5489,-3.5489,-3.5489,-3.5489,-3.5489,-3.5489,-3.5522,-3.5636,-3.6006,-3.6054,-3.629,-3.6538,-3.7115,-3.7456,-3.786,-3.8302,-3.8218,-3.8234,-3.8569,-3.8941,-3.9279,-3.9558,-3.9575,-3.9601,-3.9653,-3.9454,-3.8968,-3.8707,-3.8596,-3.8104,-3.7485,-3.7456,-3.756,-3.7602,-3.7819,-3.7777,-3.7706,-3.7544,-3.7352,-3.7055,-3.6981,-3.7071,-3.7041,-3.6981,-3.7265,-3.7648,-3.7706,-3.7589,-3.6507,-3.6402,-3.5789,-3.5489,-3.5489,-3.5489,-3.5489,-3.5489,-3.5489,-3.5489,-3.5489,-3.5489,-3.5489,-3.5489,-3.5489,-3.5489,-3.5489,-3.5489,-3.5489,-3.5392,-3.5279,-3.5311,-3.5279,-3.5279,-3.5166,-3.5311,-3.5424,-3.5392,-3.5424,-3.492,-3.4953,-3.5198,-3.5085,-3.5166,-3.5198,-3.5392,-3.5424,-3.5489,-3.5489,-3.5489,-3.5489,-3.5489,-3.5489,-3.5489,-3.5489,-3.5489,-3.5489,-3.5489,-3.5489,-3.5489,-3.5489,-3.5489,-3.5489,-3.5489,-3.5489,-3.5489,-3.5489,-3.5489,-3.5489,-3.5489,-3.5489,-3.5489,-3.5489,-3.5489,-3.5489,-3.5489,-3.5489,-3.5489,-3.5489,-3.5489,-3.5489,-3.5489,-3.5489,-3.5489,-3.5489,-3.5604,-3.5572,-3.575,-3.6006,-3.6337,-3.6523,-3.6919,-3.7499,-3.7573,-3.7387,-3.7602,-3.7876,-3.8019,-3.8274,-3.8486,-3.8569,-3.8832,-3.8541,-3.8035,-3.7835,-3.7761,-3.7338,-3.6722,-3.6935,-3.7055,-3.7086,-3.6995,-3.6965,-3.6905,-3.6768,-3.6569,-3.6337,-3.6053,-3.5814,-3.5814,-3.6085,-3.6321,-3.686,-3.7115,-3.7145,-3.6492,-3.6417,-3.5774,-3.5489,-3.5489,-3.5489,-3.5489,-3.5489,-3.5489,-3.5489,-3.5489,-3.5504,-3.5392,-3.5489,-3.5489,-3.5424,-3.5457,-3.5489,-3.5489,-3.5279,-3.4725,-3.4509,-3.4442,-3.4442,-3.4442,-3.4691,-3.492,-3.4953,-3.4361,-3.3939,-3.3547,-3.3429,-3.4177,-3.4361,-3.4691,-3.5133,-3.5279,-3.5424,-3.5424,-3.5489,-3.5489,-3.5489,-3.5489,-3.5489,-3.5489,-3.5489,-3.5489,-3.5489,-3.5489,-3.5489,-3.5489,-3.5457,-3.5489,-3.5489,-3.5489,-3.5489,-3.5489,-3.5489,-3.5489,-3.5489,-3.5457,-3.5424,-3.5472,-3.5489,-3.5489,-3.5424,-3.5424,-3.5489,-3.5489,-3.5489,-3.5489,-3.5489,-3.5489,-3.5489,-3.5489,-3.5489,-3.5489,-3.5554,-3.5797,-3.5995,-3.6174,-3.6503,-3.7032,-3.6739,-3.6583,-3.6677,-3.6783,-3.6919,-3.71,-3.7308,-3.7645,-3.7933,-3.7748,-3.7265,-3.704,-3.6934,-3.6446,-3.6086,-3.6321,-3.643,-3.6243,-3.6164,-3.6164,-3.6149,-3.6149,-3.5943,-3.5701,-3.5489,-3.5489,-3.5489,-3.5701,-3.5846,-3.6022,-3.6337,-3.6477,-3.6103,-3.6043,-3.5684,-3.5489,-3.5489,-3.5489,-3.5489,-3.5489,-3.5489,-3.5489,-3.5424,-3.5067,-3.4905,-3.4773,-3.4476,-3.4442,-3.4839,-3.4327,-3.4327,-3.4576,-3.3891,-3.3602,-3.3463,-3.3463,-3.3449,-3.3705,-3.3891,-3.3891,-3.3394,-3.3031,-3.2664,-3.2784,-3.3276,-3.338,-3.3602,-3.3939,-3.4442,-3.4839,-3.5198,-3.5424,-3.5457,-3.5424,-3.5504,-3.5392,-3.5424,-3.5424,-3.5457,-3.5457,-3.5457,-3.5359,-3.5279,-3.4905,-3.4872,-3.4872,-3.5231,-3.5279,-3.5489,-3.5489,-3.5489,-3.5489,-3.5279,-3.5133,-3.518,-3.4968,-3.492,-3.482,-3.5213,-3.5489,-3.5489,-3.5489,-3.5489,-3.5489,-3.5489,-3.5489,-3.5489,-3.5489,-3.5489,-3.5489,-3.5687,-3.5896,-3.6147,-3.6416,-3.6418,-3.6052,-3.5929,-3.6288,-3.6266,-3.607,-3.6212,-3.6384,-3.6783,-3.7174,-3.6905,-3.6538,-3.6368,-3.6275,-3.5991,-3.575,-3.5782,-3.575,-3.5489,-3.5554,-3.5782,-3.5733,-3.5572,-3.5489,-3.5489,-3.5489,-3.5489,-3.5489,-3.5489,-3.5619,-3.5701,-3.5765,-3.5814,-3.5504,-3.5502,-3.5407,-3.5311,-3.5359,-3.5213,-3.5133,-3.5294,-3.5156,-3.5323,-3.5115,-3.4327,-3.3925,-3.3788,-3.3359,-3.3394,-3.3616,-3.3359,-3.3429,-3.3822,-3.2925,-3.25,-3.25,-3.25,-3.25,-3.2486,-3.2664,-3.2961,-3.2558,-3.2105,-3.1901,-3.2379,-3.2451,-3.2486,-3.2558,-3.289,-3.3394,-3.3925,-3.4476,-3.4854,-3.51,-3.5246,-3.5294,-3.5133,-3.51,-3.5133,-3.5261,-3.5326,-3.5374,-3.5067,-3.4691,-3.4129,-3.391,-3.3925,-3.4428,-3.4691,-3.4806,-3.4806,-3.4773,-3.4739,-3.4476,-3.4428,-3.4658,-3.4158,-3.3953,-3.4739,-3.5344,-3.4839,-3.4658,-3.492,-3.4986,-3.4691,-3.4624,-3.4953,-3.5198,-3.5493,-3.5786,-3.5968,-3.6297,-3.6462,-3.6585,-3.6824,-3.6929,-3.6671,-3.6537,-3.6484,-3.6382,-3.6019,-3.5964,-3.6112,-3.6205,-3.6662,-3.6321,-3.6052,-3.5863,-3.5767,-3.5653,-3.5522,-3.5519,-3.5489,-3.5489,-3.5489,-3.5489,-3.5489,-3.5489,-3.5489,-3.5489,-3.5489,-3.5489,-3.5489,-3.5489,-3.5489,-3.5489,-3.5489,-3.5489,-3.5489,-3.5424,-3.4691,-3.4361,-3.4245,-3.3581,-3.3325,-3.3332,-3.3726,-3.4078,-3.4133,-3.3429,-3.2947,-3.2855,-3.2571,-3.2607,-3.2713,-3.2464,-3.2713,-3.2607,-3.1974,-3.1549,-3.1536,-3.1536,-3.1549,-3.1779,-3.1983,-3.2069,-3.1536,-3.102,-3.057,-3.0633,-3.1082,-3.1536,-3.1573,-3.196,-3.2522,-3.2947,-3.308,-3.3699,-3.4158,-3.365,-3.329,-3.3359,-3.3429,-3.3905,-3.409,-3.4375,-3.4361,-3.4225,-3.4177,-3.3671,-3.2982,-3.2947,-3.3066,-3.3255,-3.3498,-3.3581,-3.3581,-3.3616,-3.3359,-3.3185,-3.3185,-3.2996,-3.3359,-3.4691,-3.4986,-3.4192,-3.3871,-3.4192,-3.4293,-3.3959,-3.3831,-3.437,-3.4979,-3.5537,-3.6111,-3.6518,-3.6926,-3.709,-3.718,-3.73,-3.7419,-3.7375,-3.724,-3.7165,-3.7169,-3.7019,-3.69,-3.6862,-3.6325,-3.6487,-3.5965,-3.5694,-3.5639,-3.5729,-3.5848,-3.5714,-3.5669,-3.5609,-3.5519,-3.5489,-3.5489,-3.5489,-3.5489,-3.5489,-3.5489,-3.5489,-3.5489,-3.5489,-3.5489,-3.5489,-3.5489,-3.5489,-3.5489,-3.5489,-3.5359,-3.4428,-3.3979,-3.3808,-3.2996,-3.2593,-3.2646,-3.2731,-3.2872,-3.3071,-3.2582,-3.2218,-3.1882,-3.1586,-3.1769,-3.1829,-3.1476,-3.1609,-3.1536,-3.1193,-3.0709,-3.0595,-3.0658,-3.0595,-3.0771,-3.102,-3.0921,-3.0582,-3.0241,-2.9934,-2.9856,-3.0406,-3.0658,-3.0709,-3.1156,-3.1646,-3.1924,-3.1646,-3.1974,-3.282,-3.2571,-3.2571,-3.2593,-3.2713,-3.2961,-3.3101,-3.3394,-3.338,-3.3171,-3.2925,-3.2571,-3.2069,-3.1983,-3.2249,-3.2571,-3.27,-3.2593,-3.2522,-3.2464,-3.2285,-3.2155,-3.2464,-3.2571,-3.1599,-3.2706,-3.3768,-3.3115,-3.3115,-3.3394,-3.3394,-3.3136,-3.3381,-3.3839,-3.4727,-3.5468,-3.6274,-3.703,-3.7449,-3.7808,-3.7928,-3.8108,-3.8167,-3.8063,-3.7913,-3.7734,-3.7734,-3.7509,-3.7494,-3.7639,-3.709,-3.6701,-3.6462,-3.6357,-3.6552,-3.6522,-3.6417,-3.6207,-3.5953,-3.5774,-3.5699,-3.5564,-3.5489,-3.5489,-3.5489,-3.5489,-3.5489,-3.5489,-3.5489,-3.5489,-3.5489,-3.5489,-3.5424,-3.5279,-3.5246,-3.5424,-3.5166,-3.4211,-3.3739,-3.3498,-3.2593,-3.2196,-3.2264,-3.2057,-3.1952,-3.2029,-3.2056,-3.1651,-3.0968,-3.0433,-3.0647,-3.0684,-3.0495,-3.0633,-3.0658,-3.0241,-3.0101,-2.9998,-2.9895,-2.996,-2.996,-3.0113,-3.0113,-2.996,-2.9779,-2.9779,-2.9779,-2.9779,-2.9818,-2.9792,-2.9934,-3.0355,-3.0696,-3.0658,-3.0482,-3.1082,-3.1756,-3.1924,-3.2105,-3.2263,-3.2321,-3.2357,-3.2429,-3.2415,-3.2105,-3.1669,-3.1254,-3.1082,-3.1044,-3.1352,-3.1683,-3.1792,-3.1865,-3.1974,-3.1865,-3.1549,-3.1452,-3.201,-3.1746,-3.0697,-3.0998,-3.2015,-3.24,-3.24,-3.2503,-3.2503,-3.2432,-3.2745,-3.3678,-3.4654,-3.5592,-3.6525,-3.7491,-3.7993,-3.8426,-3.8596,-3.879,-3.8781,-3.8676,-3.8556,-3.8377,-3.8167,-3.7883,-3.7778,-3.8088,-3.8013,-3.7868,-3.7749,-3.7674,-3.7419,-3.721,-3.6985,-3.6806,-3.6537,-3.6178,-3.5908,-3.5893,-3.5774,-3.5489,-3.5489,-3.5484,-3.5487,-3.5489,-3.5489,-3.5302,-3.5052,-3.4839,-3.4442,-3.4375,-3.4691,-3.5034,-3.4211,-3.3276,-3.2464,-3.1706,-3.0771,-3.0561,-3.1008,-3.1439,-3.1534,-3.1676,-3.194,-3.1671,-3.076,-3.0615,-3.0594,-3.0406,-3.0058,-2.9881,-2.9934,-3.0109,-2.9943,-2.9804,-2.9842,-2.9792,-2.9779,-2.9779,-2.9779,-2.9779,-2.9779,-2.9779,-2.9779,-2.9779,-2.9792,-2.9829,-2.9919,-3.0008,-3.0266,-3.024,-3.0125,-3.0061,-3.0432,-3.0292,-3.0317,-3.033,-3.0809,-3.118,-3.1426,-3.1462,-3.118,-3.0683,-3.0305,-3.0203,-3.0241,-3.0444,-3.062,-3.0771,-3.0746,-3.0784,-3.0784,-3.0457,-3.0444,-3.0823,-3.0763,-3.0176,-3.0227,-3.102,-3.1369,-3.1509,-3.1883,-3.1858,-3.1434,-3.1669,-3.3707,-3.5101,-3.596,-3.6852,-3.784,-3.8644,-3.885,-3.8981,-3.9143,-3.9164,-3.9119,-3.9104,-3.897,-3.8955,-3.8701,-3.8383,-3.8618,-3.8799,-3.8633,-3.8537,-3.8212,-3.7644,-3.7674,-3.7509,-3.7345,-3.7018,-3.6461,-3.6193,-3.6372,-3.6159,-3.5451,-3.5414,-3.5502,-3.5508,-3.5251,-3.5003,-3.4724,-3.4395,-3.4075,-3.3693,-3.3676,-3.4133]},{"header":{"parameterUnit":"m.s-1","parameterCategory":1,"la1":31.0,"la2":29.5877,"lo1":-88.7671,"lo2":-86.6584,"dy":0.0162,"dx":0.0185,"nx":115,"ny":88,"refTime":"2024-08-16T00:00:00:Z","depth":0,"parameterNumber":3,"parameterNumberName":"V-component_of_WINDS"},"data":[0.0,0.0,0.0,0.0,0.0,0.0,0.0,0.0,0.0,0.0,0.0,0.0,0.0,0.0,0.0,0.0,0.0,0.0,0.0,0.0,0.0,0.0,0.0,0.0,0.0,0.0,0.0,0.0,0.0,0.0,0.0,0.0,0.0,0.0,0.0,0.0,0.0,0.0,0.0,0.0,0.0,0.0,0.0,0.0,0.0,0.0,0.0,0.0,0.0,0.0,0.0,0.0,0.0,0.0,0.0,0.0,0.0,0.0,0.0,0.0,0.0,0.0,0.0,0.0,0.0,0.0,0.0,0.0,0.0,0.0,0.0,0.0,0.0,0.0,0.0,0.0,0.0,0.0,0.0,0.0,0.0,0.0,0.0,0.0,0.0,0.0,0.0,0.0,0.0,0.0,0.0,0.0,0.0,0.0,0.0,0.0,0.0,0.0,0.0,0.0,0.0,0.0,0.0,0.0,0.0,0.0,0.0,0.0,0.0,0.0,0.0,0.0,0.0,0.0,0.0,0.0,0.0,0.0,0.0,0.0,0.0,0.0,0.0,0.0,0.0,0.0,0.0,0.0,0.0,0.0,0.0,0.0,0.0,0.0,0.0,0.0,0.0,0.0,0.0,0.0,0.0,0.0,0.0,0.0,0.0,0.0,0.0,0.0,0.0,0.0,0.0,0.0,0.0,0.0,0.0,0.0,0.0,0.0,0.0,0.0,0.0,0.0,0.0,0.0,0.0,0.0,0.0,0.0,0.0,0.0,0.0,0.0,0.0,0.0,0.0,0.0,0.0,0.0,0.0,0.0,0.0,0.0,0.0,0.0,0.0,0.0,0.0,0.0,0.0,0.0,0.0,0.0,0.0,0.0,0.0,0.0,0.0,0.0,0.0,0.0,0.0,0.0,0.0,0.0,0.0,0.0,0.0,0.0,0.0,0.0,0.0,0.0,0.0,0.0,0.0,0.0,0.0,0.0,0.0,0.0,0.0,0.0,0.0,0.0,0.0,0.0,0.0,0.0,0.0,0.0,0.0,0.0,0.0,0.0,0.0,0.0,0.0,0.0,0.0,0.0,0.0,0.0,0.0,0.0,0.0,0.0,0.0,0.0,0.0,0.0,0.0,0.0,0.0,0.0,0.0,0.0,0.0,0.0,0.0,0.0,0.0,0.0,0.0,0.0,0.0,0.0,0.0,0.0,0.0,0.0,0.0,0.0,0.0,0.0,0.0,0.0,0.0,0.0,0.0,0.0,0.0,0.0,0.0,0.0,0.0,0.0,0.0,0.0,0.0,0.0,0.0,0.0,0.0,0.0,0.0,0.0,0.0,0.0,0.0,0.0,0.0,0.0,0.0,0.0,0.0,0.0,0.0,0.0,0.0,0.0,0.0,0.0,0.0,0.0,0.0,0.0,0.0,0.0,0.0,0.0,0.0,0.0,0.0,0.0,0.0,0.0,0.0,0.0,0.0,0.0,0.0,0.0,0.0,0.0,0.0,0.0,0.0,0.0,0.0,0.0,0.0,0.0,0.0,0.0,0.0,0.0,0.0,0.0,0.0,0.0,0.0,0.0,0.0,0.0,0.0,0.0,0.0,0.0,0.0,0.0,0.0,0.0,0.0,0.0,0.0,0.0,0.0,0.0,0.0,0.0,0.0,0.0,0.0,0.0,0.0,0.0,0.0,0.0,0.0,0.0,0.0,0.0,0.0,0.0,0.0,0.0,0.0,0.0,0.0,0.0,0.0,0.0,0.0,0.0,0.0,0.0,0.0,0.0,0.0,0.0,0.0,0.0,0.0,0.0,0.0,0.0,0.0,0.0,0.0,0.0,0.0,0.0,0.0,0.0,0.0,0.0,0.0,0.0,0.0,0.0,0.0,0.0,0.0,0.0,0.0,0.0,0.0,0.0,0.0,0.0,0.0,0.0,0.0,0.0,0.0,0.0,0.0,0.0,0.0,0.0,0.0,0.0,0.0,0.0,0.0,0.0,0.0,0.0,0.0,0.0,0.0,0.0,0.0,0.0,0.0,0.0,0.0,0.0,0.0,0.0,0.0,0.0,0.0,0.0,0.0,0.0,0.0,0.0,0.0,0.0,0.0,0.0,0.0,0.0,0.0,0.0,0.0,0.0,0.0,0.0,0.0,0.0,0.0,0.0,0.0,0.0,0.0,0.0,0.0,0.0,0.0,0.0,0.0,0.0,0.0,0.0,0.0,0.0,0.0,0.0,0.0,0.0,0.0,0.0,0.0,0.0,0.0,0.0,0.0,0.0,0.0,0.0,0.0,0.0,0.0,0.0,0.0,0.0,0.0,0.0,0.0,0.0,0.0,0.0,0.0,0.0,0.0,0.0,0.0,0.0,0.0,0.0,0.0,0.0,0.0,0.0,0.0,0.0,0.0,0.0,0.0,0.0,0.0,0.0,0.0,0.0,0.0,0.0,0.0,0.0,0.0,0.0,0.0,0.0,0.0,0.0,0.0,0.0,0.0,0.0,0.0,0.0,0.0,0.0,0.0,0.0,0.0,0.0,0.0,0.0,0.0,0.0,0.0,0.0,0.0,0.0,0.0,0.0,0.0,0.0,0.0,0.0,0.0,0.0,0.0,0.0,0.0,0.0,0.0,0.0,0.0,0.0,0.0,0.0,0.0,0.0,0.0,0.0,0.0,0.0,0.0,0.0,0.0,0.0,0.0,0.0,0.0,0.0,0.0,0.0,0.0,0.0,0.0,0.0,0.0,0.0,0.0,0.0,0.0,0.0,0.0,0.0,0.0,0.0,0.0,0.0,0.0,0.0,0.0,0.0,0.0,0.0,0.0,0.0,0.0,0.0,0.0,0.0,0.0,0.0,0.0,0.0,0.0,0.0,0.0,0.0,0.0,0.0,0.0,0.0,0.0,0.0,0.0,0.0,0.0,0.0,0.0,0.0,0.0,0.0,0.0,0.0,0.0,0.0,0.0,0.0,0.0,0.0,0.0,0.0,0.0,0.0,0.0,0.0,0.0,0.0,0.0,0.0,0.0,0.0,0.0,0.0,0.0,0.0,0.0,0.0,0.0,0.0,0.0,0.0,0.0,0.0,0.0,0.0,0.0,0.0,0.0,0.0,0.0,0.0,0.0,0.0,0.0,0.0,0.0,0.0,0.0,0.0,0.0,0.0,0.0,0.0,0.0,0.0,0.0,0.0,0.0,0.0,0.0,0.0,0.0,0.0,0.0,0.0,0.0,0.0,0.0,0.0,0.0,0.0,0.0,0.0,0.0,0.0,0.0,0.0,0.0,0.0,0.0,0.0,0.0,0.0,0.0,0.0,0.0,0.0,0.0,0.0,0.0,0.0,0.0,0.0,0.0,0.0,0.0,0.0,0.0,0.0,0.0,0.0,0.0,0.0,0.0,0.0,0.0,0.0,0.0,0.0,0.0,0.0,0.0,0.0,0.0,0.0,0.0,0.0,0.0,0.0,0.0,0.0,0.0,0.0,0.0,0.0,0.0,0.0,0.0,0.0,0.0,0.0,0.0,0.0,0.0,0.0,0.0,0.0,0.0,0.0,0.0,0.0,0.0,0.0,0.0,0.0,0.0,0.0,0.0,0.0,0.0,0.0,0.0,0.0,0.0,0.0,0.0,0.0,0.0,0.0,0.0,0.0,0.0,0.0,0.0,0.0,0.0,0.0,0.0,0.0,0.0,0.0,0.0,0.0,0.0,0.0,0.0,0.0,0.0,0.0,0.0,0.0,0.0,0.0,0.0,0.0,0.0,0.0,0.0,0.0,0.0,0.0,0.0,0.0,0.0,0.0,0.0,0.0,0.0,0.0,0.0,0.0,0.0,0.0,0.0,0.0,0.0,0.0,0.0,0.0,0.0,0.0,0.0,0.0,0.0,0.0,0.0,0.0,0.0,0.0,0.0,0.0,0.0,0.0,0.0,0.0,0.0,0.0,0.0,0.0,0.0,0.0,0.0,0.0,0.0,0.0,0.0,0.0,0.0,0.0,0.0,0.0,0.0,0.0,0.0,0.0,0.0,0.0,0.0,0.0,0.0,0.0,0.0,0.0,0.0,0.0,0.0,0.0,0.0,0.0,0.0,0.0,0.0,0.0,0.0,0.0,0.0,0.0,0.0,0.0,0.0,0.0,0.0,0.0,0.0,0.0,0.0,0.0,0.0,0.0,0.0,0.0,0.0,0.0,0.0,0.0,0.0,0.0,0.0,0.0,0.0,0.0,0.0,0.0,0.0,0.0,0.0,0.0,0.0,0.0,0.0,0.0,0.0,0.0,0.0,0.0,0.0,0.0,-0.4162,0.0,0.0,0.0,0.0,0.0,0.0,0.0,0.0,0.0,0.0,0.0,0.0,0.0,0.0,0.0,0.0,0.0,0.0,0.0,0.0,0.0,0.0,0.0,0.0,0.0,0.0,0.0,0.0,0.0,0.0,0.0,0.0,0.0,0.0,0.0,0.0,0.0,0.0,0.0,0.0,0.0,0.0,0.0,0.0,0.0,0.0,0.0,0.0,0.0,0.0,0.0,0.0,0.0,0.0,0.0,0.0,0.0,0.0,0.0,0.0,0.0,0.0,0.0,0.0,0.0,0.0,0.0,0.0,0.0,0.0,0.0,0.0,0.0,0.0,0.0,0.0,0.0,0.0,0.0,0.0,0.0,0.0,0.0,0.0,0.0,0.0,0.0,0.0,0.0,0.0,0.0,0.0,0.0,0.0,0.0,0.0,0.0,0.0,0.0,0.0,0.0,0.0,0.0,0.0,0.0,0.0,0.0,0.0,0.0,0.0,-0.6261,-0.6188,-0.5432,-0.4697,-0.401,0.0,0.0,0.0,0.0,0.0,0.0,0.0,0.0,0.0,0.0,0.0,0.0,0.0,0.0,0.0,0.0,0.0,0.0,0.0,0.0,0.0,0.0,0.0,0.0,0.0,0.0,0.0,0.0,0.0,0.0,0.0,0.0,0.0,0.0,0.0,0.0,0.0,0.0,0.0,0.0,0.0,0.0,0.0,0.0,0.0,0.0,0.0,0.0,0.0,0.0,0.0,0.0,0.0,0.0,0.0,0.0,0.0,0.0,0.0,0.0,0.0,0.0,0.0,0.0,0.0,0.0,0.0,0.0,0.0,0.0,0.0,0.0,0.0,0.0,0.0,0.0,0.0,0.0,0.0,0.0,0.0,0.0,0.0,0.0,0.0,0.0,0.0,0.0,0.0,0.0,0.0,0.0,0.0,0.0,0.0,0.0,0.0,0.0,0.0,0.0,0.0,0.0,0.0,0.0,0.0,0.0,0.0,0.0,0.0,0.0,0.0,0.0,-0.5153,-0.4281,-0.3547,0.0,0.0,0.0,0.0,0.0,0.0,0.0,0.0,0.0,0.0,0.0,0.0,0.0,0.0,0.0,0.0,0.0,0.0,0.0,0.0,0.0,0.0,0.0,0.0,0.0,0.0,0.0,0.0,0.0,0.0,0.0,0.0,0.0,0.0,0.0,0.0,0.0,0.0,0.0,0.0,0.0,0.0,0.0,0.0,0.0,0.0,0.0,0.0,0.0,0.0,0.0,0.0,0.0,0.0,0.0,0.0,0.0,0.0,0.0,0.0,0.0,0.0,0.0,0.0,0.0,0.0,0.0,0.0,0.0,0.0,0.0,0.0,0.0,0.0,0.0,0.0,0.0,0.0,0.0,0.0,0.0,0.0,0.0,0.0,0.0,0.0,0.0,0.0,0.0,0.0,0.0,0.0,0.0,0.0,0.0,0.0,0.0,0.0,0.0,0.0,0.0,0.0,0.0,0.0,0.0,0.0,0.0,0.0,0.0,0.0,-0.5429,-0.5993,-0.5134,0.0,-0.2273,0.0,0.0,0.0,0.0,0.0,0.0,0.0,0.0,0.0,0.0,0.0,0.0,0.0,0.0,0.0,0.0,0.0,0.0,0.0,0.0,0.0,0.0,0.0,0.0,0.0,0.0,0.0,0.0,0.0,0.0,0.0,0.0,0.0,0.0,0.0,0.0,0.0,0.0,0.0,0.0,0.0,0.0,0.0,0.0,0.0,0.0,0.0,0.0,0.0,0.0,0.0,0.0,0.0,0.0,0.0,0.0,0.0,0.0,0.0,0.0,0.0,0.0,0.0,0.0,0.0,0.0,0.0,0.0,0.0,0.0,0.0,0.0,0.0,0.0,0.0,0.0,0.0,0.0,0.0,0.0,0.0,0.0,0.0,0.0,0.0,0.0,0.0,0.0,0.0,0.0,0.0,0.0,0.0,0.0,0.0,0.0,0.0,0.0,0.0,0.0,0.0,0.0,0.0,0.0,0.0,0.0,0.0,0.0,0.0,0.0,0.0,-0.5585,-0.4335,-0.3116,0.0,0.0,0.0,0.0,0.0,0.0,0.0,0.0,0.0,0.0,0.0,0.0,0.0,0.0,0.0,0.0,0.0,0.0,0.0,0.0,0.0,0.0,0.0,0.0,0.0,0.0,0.0,0.0,0.0,0.0,0.0,0.0,0.0,0.0,0.0,0.0,0.0,0.0,0.0,0.0,0.0,0.0,0.0,0.0,0.0,0.0,0.0,0.0,0.0,0.0,0.0,0.0,0.0,0.0,0.0,0.0,0.0,0.0,0.0,0.0,0.0,0.0,0.0,0.0,0.0,0.0,0.0,0.0,0.0,0.0,0.0,0.0,0.0,0.0,0.0,0.0,0.0,0.0,0.0,0.0,0.0,0.0,0.0,0.0,0.0,0.0,0.0,0.0,0.0,0.0,0.0,0.0,0.0,0.0,0.0,0.0,0.0,0.0,0.0,0.0,0.0,0.0,0.0,0.0,0.0,0.0,0.0,0.0,0.0,0.0,-0.5138,0.0,-0.4784,-0.3286,-0.226,-0.1802,0.0,0.0,0.0,0.0,0.0,0.0,0.0,0.0,0.0,0.0,0.0,0.0,0.0,0.0,0.0,0.0,0.0,0.0,0.0,0.0,0.0,0.0,0.0,0.0,0.0,0.0,0.0,0.0,0.0,0.0,0.0,0.0,0.0,0.0,0.0,0.0,0.0,0.0,0.0,0.0,0.0,0.0,0.0,0.0,0.0,0.0,0.0,0.0,0.0,0.0,0.0,0.0,0.0,0.0,0.0,0.0,0.0,0.0,0.0,0.0,0.0,0.0,0.0,0.0,0.0,0.0,0.0,0.0,0.0,0.0,0.0,0.0,0.0,0.0,0.0,0.0,0.0,0.0,0.0,0.0,0.0,0.0,0.0,0.0,0.0,0.0,0.0,0.0,0.0,0.0,0.0,0.0,0.0,0.0,0.0,0.0,0.0,0.0,0.0,0.0,0.0,0.0,0.0,0.0,0.0,0.0,0.0,0.0,0.0,-0.4271,-0.3688,-0.3701,-0.2186,-0.135,0.0,0.0,0.0,0.0,0.0,0.0,0.0,0.0,0.0,0.0,0.0,0.0,0.0,0.0,0.0,0.0,0.0,0.0,0.0,0.0,0.0,0.0,0.0,0.0,0.0,0.0,0.0,0.0,0.0,0.0,0.0,0.0,0.0,0.0,0.0,0.0,0.0,0.0,0.0,0.0,0.0,0.0,0.0,0.0,0.0,0.0,0.0,0.0,0.0,0.0,0.0,0.0,0.0,0.0,0.0,0.0,0.0,0.0,0.0,0.0,0.0,0.0,0.0,0.0,0.0,0.0,0.0,0.0,0.0,0.0,0.0,0.0,0.0,0.0,0.0,0.0,0.0,0.0,0.0,0.0,0.0,0.0,0.0,0.0,0.0,0.0,0.0,0.0,0.0,0.0,0.0,0.0,0.0,0.0,0.0,0.0,0.0,0.0,0.0,0.0,0.0,0.0,0.0,0.0,0.0,0.0,0.0,0.0,0.0,-0.3972,-0.3902,-0.4048,0.0,-0.2682,-0.1609,0.0,0.0,0.0,0.0,0.0,0.0,0.0,0.0,0.0,0.0,0.0,0.0,0.0,0.0,0.0,0.0,0.0,0.0,0.0,0.0,0.0,0.0,0.0,0.0,0.0,0.0,0.0,0.0,0.0,0.0,0.0,0.0,0.0,0.0,0.0,0.0,0.0,0.0,0.0,0.0,0.0,0.0,0.0,0.0,0.0,0.0,0.0,0.0,0.0,0.0,0.0,0.0,0.0,0.0,0.0,0.0,0.0,0.0,0.0,0.0,0.0,0.0,0.0,0.0,0.0,0.0,0.0,0.0,0.0,0.0,0.0,0.0,0.0,0.0,0.0,0.0,0.0,0.0,0.0,0.0,0.0,0.0,0.0,0.0,0.0,0.0,0.0,0.0,0.0,0.0,0.0,0.0,0.0,0.0,0.0,0.0,0.0,0.0,0.0,0.0,0.0,0.0,0.0,0.0,0.0,0.0,0.0,0.0,0.0,-0.3506,0.0,-0.4293,0.0,-0.2849,-0.1706,0.0,0.0,0.0,0.0,0.0,0.0,0.0,0.0,0.0,0.0,0.0,0.0,0.0,0.0,0.0,0.0,0.0,0.0,0.0,0.0,0.0,0.0,0.0,0.0,0.0,0.0,0.0,0.0,0.0,0.0,0.0,0.0,0.0,0.0,0.0,0.0,0.0,0.0,0.0,0.0,0.0,0.0,0.0,0.0,0.0,0.0,0.0,0.0,0.0,0.0,0.0,0.0,0.0,0.0,0.0,0.0,0.0,0.0,0.0,0.0,0.0,0.0,0.0,0.0,0.0,0.0,0.0,0.0,0.0,0.0,0.0,0.0,0.0,0.0,0.0,0.0,0.0,0.0,0.0,0.0,0.0,0.0,0.0,0.0,0.0,0.0,0.0,0.0,0.0,0.0,0.0,0.0,0.0,0.0,0.0,0.0,0.0,0.0,0.0,0.0,0.0,0.0,0.0,0.0,0.0,0.0,0.0,0.0,-0.3143,-0.3972,-0.4436,-0.4268,-0.3428,-0.2498,-0.1594,0.0,0.0,0.0,0.0,0.0,0.0,0.0,0.0,0.0,0.0,0.0,0.0,0.0,0.0,0.0,0.0,0.0,0.0,0.0,0.0,0.0,0.0,0.0,0.0,0.0,0.0,0.0,0.0,0.0,0.0,0.0,0.0,0.0,0.0,0.0,0.0,0.0,0.0,0.0,0.0,0.0,0.0,0.0,0.0,0.0,0.0,0.0,0.0,0.0,0.0,0.0,0.0,0.0,0.0,0.0,0.0,0.0,0.0,0.0,0.0,0.0,0.0,0.0,0.0,0.0,0.0,0.0,0.0,0.0,0.0,0.0,0.0,0.0,0.0,0.0,0.0,0.0,0.0,0.0,0.0,0.0,0.0,0.0,0.0,0.0,0.0,0.0,0.0,0.0,0.0,0.0,0.0,0.0,0.0,0.0,0.0,0.0,0.0,0.0,0.0,0.0,0.0,0.0,0.0,0.0,0.0,0.0,0.0,0.0,-0.3856,-0.3999,-0.3907,-0.3525,-0.2451,-0.1615,0.0,0.0,0.0,0.0,0.0,0.0,0.0,0.0,0.0,0.0,0.0,0.0,0.0,0.0,0.0,0.0,0.0,0.0,0.0,0.0,0.0,0.0,0.0,0.0,0.0,0.0,0.0,0.0,0.0,0.0,0.0,0.0,0.0,0.0,0.0,0.0,0.0,0.0,0.0,0.0,0.0,0.0,0.0,0.0,0.0,0.0,0.0,0.0,0.0,0.0,0.0,0.0,0.0,0.0,0.0,0.0,0.0,0.0,0.0,0.0,0.0,0.0,0.0,0.0,0.0,0.0,0.0,0.0,0.0,0.0,0.0,0.0,0.0,0.0,0.0,0.0,0.0,0.0,0.0,0.0,0.0,0.0,0.0,0.0,0.0,0.0,0.0,0.0,0.0,0.0,0.0,0.0,0.0,0.0,0.0,0.0,0.0,0.0,0.0,0.0,0.0,0.0,0.0,0.0,0.0,0.0,0.0,0.0,0.0,-0.3792,-0.4211,-0.4151,-0.3615,-0.2657,-0.1817,-0.1098,0.0,0.0,0.0,0.0,0.0,0.0,0.0,0.0,0.0,0.0,0.0,0.0,0.0,0.0,0.0,0.0,0.0,0.0,0.0,0.0,0.0,0.0,0.0,0.0,0.0,0.0,0.0,0.0,0.0,0.0,0.0,0.0,0.0,0.0,0.0,0.0,0.0,0.0,0.0,0.0,0.0,0.0,0.0,0.0,0.0,0.0,0.0,0.0,0.0,0.0,0.0,0.0,0.0,0.0,0.0,0.0,0.0,0.0,0.0,0.0,0.0,0.0,0.0,0.0,0.0,0.0,0.0,0.0,0.0,0.0,0.0,0.0,0.0,0.0,0.0,0.0,0.0,0.0,0.0,0.0,0.0,0.0,0.0,0.0,0.0,0.0,0.0,0.0,0.0,0.0,0.0,0.0,0.0,0.0,0.0,0.0,0.0,0.0,0.0,0.0,0.0,0.0,0.0,0.0,0.0,0.0,0.0,0.0,-0.3732,-0.4741,-0.472,-0.366,-0.3032,-0.2091,0.0,0.0,0.0,0.0,0.0,0.0,0.0,0.0,0.0,0.0,0.0,0.0,0.0,0.0,0.0,0.0,0.0,0.0,0.0,0.0,0.0,0.0,0.0,0.0,0.0,0.0,0.0,0.0,0.0,0.0,0.0,0.0,0.0,0.0,0.0,0.0,0.0,0.0,0.0,0.0,0.0,0.0,0.0,0.0,0.0,0.0,0.0,0.0,0.0,0.0,0.0,0.0,0.0,0.0,0.0,0.0,0.0,0.0,0.0,0.0,0.0,0.0,0.0,0.0,0.0,0.0,0.0,0.0,0.0,0.0,0.0,0.0,0.0,0.0,0.0,0.0,0.0,0.0,0.0,0.0,0.0,0.0,0.0,0.0,0.0,0.0,0.0,0.0,0.0,0.0,0.0,0.0,0.0,0.0,0.0,0.0,0.0,0.0,0.0,0.0,0.0,0.0,0.0,0.0,0.0,0.0,0.0,0.0,0.0,-0.2939,-0.3251,-0.3591,-0.4005,-0.3182,-0.2219,0.0,0.0,0.0,0.0,0.0,0.0,0.0,0.0,0.0,0.0,0.0,0.0,0.0,0.0,0.0,0.0,0.0,0.0,0.0,0.0,0.0,0.0,0.0,0.0,0.0,0.0,0.0,0.0,0.0,0.0,0.0,0.0,0.0,0.0,0.0,0.0,0.0,0.0,0.0,0.0,0.0,0.0,0.0,0.0,0.0,0.0,0.0,0.0,0.0,0.0,0.0,0.0,0.0,0.0,0.0,0.0,0.0,0.0,0.0,0.0,0.0,0.0,0.0,0.0,0.0,0.0,0.0,0.0,0.0,0.0,0.0,0.0,0.0,0.0,0.0,0.0,0.0,0.0,0.0,0.0,0.0,0.0,0.0,0.0,0.0,0.0,0.0,0.0,0.0,0.0,0.0,0.0,0.0,0.0,0.0,0.0,0.0,0.0,0.0,0.0,0.0,0.0,0.0,0.0,0.0,0.0,0.0,0.0,-0.1866,-0.2756,-0.283,-0.2947,-0.3089,-0.2464,-0.1595,0.0,0.0,0.0,0.0,0.0,0.0,0.0,0.0,0.0,0.0,0.0,0.0,0.0,0.0,0.0,0.0,0.0,0.0,0.0,0.0,0.0,0.0,0.0,0.0,0.0,0.0,0.0,0.0,0.0,0.0,0.0,0.0,0.0,0.0,0.0,0.0,0.0,0.0,0.0,0.0,0.0,0.0,0.0,0.0,0.0,0.0,0.0,0.0,0.0,0.0,0.0,0.0,0.0,0.0,0.0,0.0,0.0,0.0,0.0,0.0,0.0,0.0,0.0,0.0,0.0,0.0,0.0,0.0,0.0,0.0,0.0,0.0,0.0,0.0,0.0,0.0,0.0,0.0,0.0,0.0,0.0,0.0,0.0,0.0,0.0,0.0,0.0,0.0,0.0,0.0,0.0,0.0,0.0,0.0,0.0,0.0,0.0,0.0,0.0,0.0,0.0,0.0,0.0,0.0,0.0,0.0,0.0,0.0,-0.1816,-0.2548,-0.2708,-0.233,-0.1491,-0.138,-0.0682,0.0,0.0,0.0,0.0,0.0,0.0,0.0,0.0,0.0,0.0,0.0,0.0,0.0,0.0,0.0,0.0,0.0,0.0,0.0,0.0,0.0,0.0,0.0,0.0,0.0,0.0,0.0,0.0,0.0,0.0,0.0,0.0,0.0,0.0,0.0,0.0,0.0,0.0,0.0,0.0,0.0,0.0,0.0,0.0,0.0,0.0,0.0,0.0,0.0,0.0,0.0,0.0,0.0,0.0,0.0,0.0,0.0,0.0,0.0,0.0,0.0,0.0,0.0,0.0,0.0,0.0,0.0,0.0,0.0,0.0,0.0,0.0,0.0,0.0,0.0,0.0,0.0,0.0,0.0,0.0,0.0,0.0,0.0,0.0,0.0,0.0,0.0,0.0,0.0,0.0,0.0,0.0,0.0,0.0,0.0,0.0,0.0,0.0,0.0,0.0,0.0,0.0,0.0,0.0,0.0,0.0,0.0,0.0,-0.0431,-0.0596,-0.0642,-0.0575,-0.0365,-0.1143,-0.0785,0.0,0.0,0.0,0.0,0.0,0.0,0.0,0.0,0.0,0.0,0.0,0.0,0.0,0.0,0.0,0.0,0.0,0.0,0.0,0.0,0.0,0.0,0.0,0.0,0.0,0.0,0.0,0.0,0.0,0.0,0.0,0.0,0.0,0.0,0.0,0.0,0.0,0.0,0.0,0.0,0.0,0.0,0.0,0.0,0.0,0.0,0.0,0.0,-0.3723,0.0,0.0,0.0,0.0,0.0,0.0,0.0,0.0,0.0,0.0,0.0,0.0,0.0,0.0,0.0,0.0,0.0,0.0,0.0,0.0,0.0,0.0,0.0,0.0,0.0,0.0,0.0,0.0,0.0,0.0,0.0,0.0,0.0,0.0,0.0,0.0,0.0,0.0,0.0,0.0,0.0,0.0,0.0,0.0,0.0,0.0,0.0,0.0,0.0,0.0,0.0,0.0,0.0,0.0,0.0,0.0,0.0,0.0,0.0,-0.0204,-0.0581,-0.0191,0.0,0.0,-0.0545,-0.034,0.0,0.0,0.0,0.0,0.0,0.0,0.0,0.0,0.0,0.0,0.0,0.0,0.0,0.0,0.0,0.0,0.0,0.0,0.0,0.0,0.0,0.0,0.0,0.0,0.0,0.0,0.0,0.0,0.0,0.0,0.0,0.0,0.0,0.0,0.0,0.0,0.0,0.0,0.0,0.0,0.0,0.0,0.0,0.0,0.0,0.0,0.0,0.0,0.0,0.0,0.0,0.0,0.0,0.0,0.0,0.0,0.0,0.0,0.0,0.0,0.0,0.0,0.0,0.0,0.0,0.0,0.0,0.0,0.0,0.0,0.0,0.0,0.0,0.0,0.0,0.0,0.0,0.0,0.0,0.0,0.0,0.0,0.0,0.0,0.0,0.0,0.0,0.0,0.0,0.0,0.0,0.0,0.0,0.0,0.0,0.0,0.0,0.0,0.0,0.0,0.0,0.0,0.0,0.0,0.0,0.0,0.0,-0.038,-0.0348,-0.1049,-0.0385,0.0,0.0,0.0,0.0188,0.0589,0.0,0.0,0.0,0.0,0.0,0.0,0.0,0.0,0.0,0.0,0.0,0.0,0.0,0.0,0.0,0.0,0.0,0.0,0.0,0.0,0.0,0.0,0.0,0.0,0.0,0.0,0.0,0.0,0.0,0.0,0.0,0.0,0.0,0.0,0.0,0.0,0.0,0.0,-0.3466,-0.3554,0.0,0.0,0.0,0.0,0.0,0.0,0.0,0.0,-0.3931,0.0,0.0,0.0,0.0,0.0,0.0,0.0,0.0,0.0,0.0,0.0,0.0,0.0,0.0,0.0,0.0,0.0,0.0,0.0,0.0,0.0,0.0,0.0,0.0,0.0,0.0,0.0,0.0,0.0,0.0,0.0,0.0,0.0,0.0,0.0,0.0,0.0,0.0,0.0,0.0,0.0,0.0,0.0,0.0,0.0,0.0,0.0,0.0,0.0,0.0,0.0,0.0,0.0,0.0,0.0,0.0,-0.0233,-0.0063,-0.0068,-0.0219,-0.0075,0.0,0.0,0.0,0.0031,0.0134,0.0,0.0,0.0,0.0,0.0,0.0,0.0,0.0,0.0,0.0,0.0,0.0,0.0,0.0,0.0,0.0,0.0,0.0,0.0,0.0,0.0,0.0,0.0,0.0,0.0,0.0,0.0,0.0,0.0,0.0,0.0,0.0,0.0,0.0,0.0,0.0,0.0,0.0,0.0,-0.4,-0.3958,0.0,0.0,0.0,0.0,0.0,0.0,0.0,0.0,-0.3863,0.0,0.0,0.0,0.0,0.0,0.0,0.0,0.0,0.0,0.0,0.0,0.0,0.0,0.0,0.0,0.0,0.0,0.0,0.0,0.0,0.0,0.0,0.0,0.0,0.0,0.0,0.0,0.0,0.0,0.0,0.0,0.0,0.0,0.0,0.0,0.0,0.0,0.0,0.0,0.0,0.0,0.0,0.0,0.0,0.0,0.0,0.0,0.0,0.0,0.0,0.0,0.0,0.0,0.0,0.0,0.0,0.0,0.0,0.0,0.0,0.0,0.0,0.0,0.0118,0.0,0.0,0.0,0.0,0.0,0.0,0.0,0.0,0.0,0.0,0.0,0.0,0.0,0.0,0.0,0.0,0.0,0.0,0.0,0.0,0.0,0.0,0.0,0.0,0.0,0.0,0.0,0.0,0.0,0.0,0.0,0.0,0.0,0.0,0.0,0.0,0.0,0.0,0.0,0.0,-0.407,-0.4086,-0.4086,0.0,0.0,0.0,0.0,0.0,0.0,-0.4076,-0.4001,0.0,0.0,0.0,0.0,0.0,0.0,0.0,0.0,0.0,0.0,0.0,0.0,0.0,0.0,0.0,0.0,0.0,0.0,0.0,0.0,0.0,0.0,0.0,0.0,0.0,0.0,0.0,0.0,0.0,0.0,0.0,0.0,0.0,0.0,0.0,0.0,0.0,0.0,0.0,0.0,0.0,0.0,0.0,0.0,0.0,0.0,0.0,0.0,0.0,0.0,0.0,0.0,0.0,0.0,0.0,0.0,0.0,0.0,0.0,0.0,0.0,0.0,0.0,0.0201,0.0,0.0,0.0,0.0,0.0,0.0,0.0,0.0,0.0,0.0,0.0,0.0,0.0,0.0,0.0,0.0,0.0,0.0,0.0,0.0,0.0,0.0,0.0,0.0,0.0,0.0,0.0,0.0,0.0,0.0,0.0,0.0,0.0,0.0,0.0,0.0,0.0,0.0,0.0,0.0,0.0,-0.4284,-0.4284,-0.4409,0.0,0.0,0.0,0.0,-0.4321,-0.4331,0.0,0.0,0.0,0.0,0.0,0.0,0.0,0.0,0.0,0.0,0.0,0.0,0.0,0.0,0.0,0.0,0.0,0.0,0.0,0.0,0.0,0.0,0.0,0.0,0.0,0.0,0.0,0.0,0.0,0.0,0.0,0.0,0.0,0.0,0.0,0.0,0.0,0.0,0.0,0.0,0.0,0.0,0.0,0.0,0.0,0.0,0.0,0.0,0.0,0.0,0.0,0.0,0.0,0.0,0.0,0.0,0.0,0.0,0.0,0.0,0.0,0.0,0.0,0.0,0.0232,0.0,0.0,0.0,0.0,0.0,0.0,0.0,0.0,0.0,0.0,0.0,0.0,0.0,0.0,0.0,0.0,0.0,0.0,0.0,0.0,0.0,0.0,0.0,0.0,0.0,0.0,0.0,0.0,0.0,0.0,0.0,0.0,0.0,0.0,0.0,0.0,0.0,0.0,0.0,0.0,0.0,-0.4668,-0.464,-0.4566,-0.4573,0.0,0.0,0.0,-0.4769,-0.4728,0.0,0.0,0.0,0.0,0.0,0.0,0.0,0.0,0.0,0.0,0.0,0.0,0.0,0.0,0.0,0.0,0.0,0.0,0.0,0.0,0.0,0.0,0.0,0.0,0.0,0.0,0.0,0.0,0.0,0.0,0.0,0.0,0.0,0.0,0.0,0.0,0.0,0.0,0.0,0.0,0.0,0.0,0.0,0.0,0.0,0.0,0.0,0.0,0.0,0.0,0.0,0.0,0.0,0.0,0.0,0.0163,0.0,0.0,0.0,0.0,0.0,0.0,0.0,0.0,0.0333,0.0,0.0,0.0,0.0,0.0,0.0,0.0,0.0,0.0,0.0,0.0,0.0,0.0,0.0,0.0,0.0,0.0,0.0,0.0,0.0,0.0,0.0,0.0,0.0,0.0,0.0,0.0,0.0,0.0,0.0,0.0,0.0,0.0,0.0,0.0,0.0,0.0,0.0,0.0,0.0,0.0,0.0,-0.4694,-0.4779,0.0,0.0,0.0,-0.486,-0.4881,0.0,0.0,0.0,0.0,0.0,0.0,0.0,0.0,0.0,0.0,0.0,0.0,0.0,0.0,0.0,0.0,0.0,0.0,0.0,0.0,0.0,0.0,0.0,0.0,0.0,0.0,0.0,0.0,0.0,0.0,0.0,0.0,0.0,0.0,0.0,0.0,0.0,0.0,0.0,0.0,0.0,0.0,0.0,0.0,0.0,0.0,0.0,0.0,0.0,0.0,0.0,0.0,0.0,0.0,0.0,0.0,0.0,0.0251,0.0275,0.0197,0.0,0.0,0.0,0.0,0.0,0.0,0.0,0.0,0.0,0.0,0.0,0.0,0.0,0.0,0.0,0.0,0.0,0.0,0.0,0.0,0.0,0.0,0.0,0.0,0.0,0.0,0.0,0.0,0.0,0.0,0.0,0.0,-0.1742,0.0,0.0,0.0,0.0,0.0,0.0,0.0,0.0,0.0,0.0,0.0,0.0,0.0,0.0,-0.4816,-0.4883,-0.5081,-0.522,0.0,0.0,-0.5066,-0.4779,-0.4894,-0.485,0.0,0.0,0.0,0.0,0.0,0.0,0.0,0.0,0.0,0.0,0.0,0.0,0.0,0.0,0.0,0.0,0.0,0.0,0.0,0.0,0.0,0.0,0.0,0.0,0.0,0.0,0.0,0.0,0.0,0.0,0.0,0.0,0.0,0.0,0.0,0.0,0.0,0.0,0.0,0.0,0.0,0.0,0.0,0.0,0.0,0.0,0.0,0.0,0.0,0.0,0.0,0.0,0.0,0.0,0.0,0.0862,0.0956,0.0701,0.0,0.0,0.0,0.0,0.0,0.0427,0.0,0.0,0.0,0.0,0.0,0.0,0.0,0.0,0.0,0.0,0.0,0.0,0.0,0.0,0.0,0.0,0.0,0.0,0.0,0.0,0.0,0.0,0.0,0.0,0.0,0.0,0.0,0.0,0.0,0.0,0.0,0.0,0.0,0.0,0.0,0.0,0.0,0.0,0.0,0.0,0.0,-0.5152,-0.533,-0.5487,-0.5603,0.0,0.0,-0.5119,-0.4346,-0.4879,-0.4954,-0.3674,0.0,0.0,0.0,0.0,0.0,0.0,0.0,0.0,0.0,0.0,0.0,0.0,0.0,0.0,0.0,0.0,0.0,0.0,0.0,0.0,0.0,0.0,0.0,0.0,0.0,0.0,0.0,0.0,0.0,0.0,0.0,0.0,0.0,0.0,0.0,0.0,0.0,0.0,0.0,0.0,0.0,0.0,0.0,0.0,0.0,0.0,0.0,0.0,0.0,0.0,0.0,0.0,0.0,0.154,0.0919,0.1607,0.1583,0.087,0.1343,0.1688,0.1671,0.1593,0.1757,0.0,0.0,0.0,0.0,0.0,0.0,0.0,0.0,0.0,0.0,0.0,0.0,0.0,0.0,0.0,0.0,0.0,0.0,0.0,0.0,0.0,0.0,0.0,0.0,0.0,0.0,0.0,0.0,-0.1299,-0.1109,-0.1365,0.0,0.0,0.0,0.0,0.0,0.0,0.0,0.0,0.0,0.0,-0.4331,-0.4408,-0.407,0.0,0.0,-0.3869,-0.3723,-0.3324,-0.3544,-0.3533,-0.293,-0.2227,0.0,0.0,0.0,0.0,0.0,0.0,0.0,0.0,0.0,0.0,0.0,0.0,0.0,0.0,0.0,0.0,0.0,0.0,0.0,0.0,0.0,0.0,0.0,0.0,0.0,0.0,0.0,0.0,0.0,0.0,0.0,0.0,0.0,0.0,0.0,0.0,0.0,0.0,0.0,0.0,0.0,0.0,0.0,0.0,0.0,0.0,0.0,0.0,0.0,0.0,0.0,0.0,0.214,0.1558,0.2411,0.2465,0.174,0.2344,0.2673,0.2695,0.2589,0.2648,0.0,0.0,0.0,0.0,0.0,0.0,0.0,0.0,0.0,0.0,0.0,0.0,0.0,0.0,0.0,0.0,0.0,0.0,0.0,0.0,0.0,0.0,0.0,0.0,0.0,0.0,0.0,0.0,-0.1064,-0.0752,-0.0704,0.0,0.0,0.0,0.0,0.0,0.0,0.0,0.0,0.0,0.0,-0.3475,-0.3537,-0.3139,-0.2821,-0.2821,-0.2866,-0.2763,-0.2416,-0.2554,-0.2561,-0.2139,0.0,0.0,0.0,0.0,0.0,0.0,0.0,0.0,0.0,0.0,0.0,0.0,0.0,0.0,0.0,0.0,0.0,0.0,0.0,0.0,0.0,0.0,0.0,0.0,0.0,0.0,0.0,0.0,0.0,0.0,0.3525,0.0,0.0,0.0,0.0,0.0,0.0,0.0,0.0,0.0,0.0,0.0,0.0,0.0,0.0,0.0,0.0,0.0,0.0,0.0,0.0,0.0,0.0,0.0,0.3056,0.3396,0.329,0.2704,0.2711,0.2741,0.2761,0.2589,0.2704,0.3107,0.0,0.0,0.0,0.0,0.0,0.0,0.0,0.0,0.0,0.0,0.0,0.0,0.0,0.0,0.0,0.0,0.0,0.0,0.0,0.0,0.0,0.0,0.0,0.0,0.0,0.0,-0.0704,-0.1224,-0.1296,0.0,0.0,0.0,0.0,0.0,0.0,0.0,0.0,0.0,0.0,-0.2515,-0.278,-0.2884,-0.2994,-0.2957,-0.3036,-0.2925,-0.2581,-0.1744,-0.2199,-0.2327,0.0,0.0,0.0,0.0,0.0,0.0,0.0,0.0,0.0,0.0,0.0,0.0,0.0,0.0,0.0,0.0,0.0,0.0,0.0,0.0,0.0,0.0,0.0,0.0,0.0,0.0,0.0,0.3482,0.3582,0.0,0.0,0.0,0.0,0.0,0.0,0.0,0.0,0.0,0.0,0.0,0.4741,0.4886,0.0,0.0,0.0,0.0,0.0,0.0,0.0,0.0,0.0,0.0,0.0,0.0,0.3432,0.3292,0.4138,0.4252,0.3609,0.4184,0.4499,0.4486,0.4224,0.3961,0.37,0.0,0.0,0.0,0.0,0.0,0.0,0.0,0.0,0.0,0.0,0.0,0.0,0.0,0.0,0.0,0.0,0.0,0.0,0.0,0.0,0.0,0.0,0.0,0.0,0.0,-0.0153,0.0,0.0,0.0,0.0,0.0,0.0,0.0,0.0,0.0,0.0,0.0,-0.1754,-0.2326,-0.2044,-0.1757,-0.1809,-0.1388,-0.1058,0.0,0.0,0.0,0.0,0.0,0.0,0.0,0.0,0.0,0.0,0.0,0.0,0.0,0.0,-0.0447,-0.1155,-0.1374,-0.1643,-0.2334,0.0,0.0,0.0,0.0,0.0,0.0,0.0,0.0,0.0,0.0,0.0,0.0,0.0,0.0,0.4272,0.0,0.4805,0.0,0.0,0.0,0.0,0.0,0.0,0.0,0.0,0.5045,0.5253,0.5159,0.5298,0.5258,0.0,0.503,0.4521,0.0,0.0,0.0,0.0,0.0,0.0,0.0,0.0,0.3793,0.3822,0.4636,0.491,0.4544,0.509,0.5395,0.5388,0.5074,0.4631,0.4089,0.389,0.3693,0.0,0.0,0.0,0.0,0.0,0.0,0.0,0.0,0.0,0.0,0.0,0.0,0.0,0.0,0.0,0.0,0.0,0.0,0.0,0.0,0.0,0.0,0.0,0.0,0.0,0.0,0.0,0.0,0.0,0.0,0.0,0.0,0.0,-0.065,-0.0798,-0.1034,-0.1573,-0.1168,-0.0845,-0.0852,0.0,0.0,0.0,0.0,0.0,0.0,0.0,0.0,0.0,0.0,0.0,0.0,0.0,0.0,0.0,0.0,0.0,-0.0916,-0.098,-0.1185,-0.1914,-0.2049,-0.2081,-0.2174,-0.2732,-0.321,0.0,0.0,0.0,0.0,0.0,0.0,0.0,0.0,0.4466,0.5253,0.0,0.6273,0.0,0.0,0.0,0.0,0.0,0.0,0.0,0.0,0.5447,0.5728,0.5613,0.5745,0.5742,0.562,0.5728,0.5488,0.487,0.4092,0.0,0.0,0.0,0.0,0.0,0.0,0.4382,0.4678,0.4965,0.5209,0.5355,0.5395,0.5388,0.5368,0.5067,0.4682,0.4257,0.4197,0.4024,0.3626,0.3425,0.0,0.0,0.0,0.0,0.0,0.0,0.0,0.0,0.0,0.0,0.0,0.0,0.0,0.0,0.0,0.0,0.0,0.0,0.0,0.0,0.0,0.0,0.0,0.0,0.0,0.0,0.0,0.0,0.0,0.0,0.0,0.0,0.0,0.0,0.0,0.0,0.0,0.0,0.0,0.0,0.0,0.0,0.0,0.0,0.0,0.0,0.0,0.0,0.0,0.0,0.0,0.0,0.0,0.0,-0.0263,-0.1096,-0.1099,-0.129,-0.2119,-0.2147,-0.2173,-0.2359,-0.2332,-0.2489,1.0002,0.0,0.0,0.0,0.0,0.7511,0.752,0.7406,0.7348,0.7549,0.7906,0.7958,0.0,0.0,0.0,0.0,0.0,0.0,0.5125,0.5342,0.5661,0.5837,0.5908,0.6057,0.6085,0.5908,0.5909,0.5769,0.5399,0.5138,0.4613,0.3819,0.0,0.0,0.0,0.0,0.4707,0.4968,0.5199,0.5351,0.5392,0.5395,0.5296,0.5053,0.4962,0.4755,0.4443,0.4402,0.4297,0.4041,0.3782,0.0,0.0,0.0,0.0,0.0,0.0,0.0,0.0,0.0,0.0,0.0,0.0,0.0,0.0,0.0,0.0,0.0,0.0,0.0,0.0,0.0,0.0,0.0,0.0,0.0,0.0,0.0,0.0,0.0,0.0,0.0,0.0,0.0,0.0,0.0,0.0,0.0,0.0,0.0,0.0,0.0,0.0,0.0,0.0,0.0,0.0,0.0,0.0,0.0,0.0,0.0,0.0,0.0,0.0,-0.0078,-0.0307,-0.0334,0.0,-0.0647,-0.068,-0.0646,-0.0734,-0.1203,-0.1628,1.2018,1.084,1.0573,0.9931,0.9179,0.9349,0.9299,0.9043,0.9043,0.9262,0.9621,0.9676,0.9728,0.9754,0.9065,0.0,0.0,0.0,0.5497,0.5769,0.631,0.666,0.6719,0.682,0.682,0.6682,0.6308,0.6,0.5766,0.5766,0.5386,0.4663,0.0,0.0,0.4545,0.4746,0.4952,0.5096,0.5284,0.5395,0.5395,0.5395,0.5252,0.4931,0.4918,0.4775,0.4501,0.4491,0.445,0.4334,0.4078,0.3812,0.0,0.0,0.0,0.0,0.0,0.0,0.0,0.0,0.0,0.0,0.0,0.1695,0.0,0.0,0.0,0.0,0.0331,0.0,0.0,0.0,0.0,0.0,0.0,0.0,0.0,0.0,0.0,0.0,0.0,0.0,0.0,0.0,0.0,0.0,0.0,0.0,0.0,0.0,0.0,0.0,0.0,0.0,0.0,0.0,0.0,0.0,0.0,0.0,0.0,0.0,0.0,0.0,0.0,0.0,0.0,0.0,0.0,0.0,0.0,0.0,0.0,-0.0417,-0.0791,1.3513,1.324,1.2435,1.1578,1.0834,1.1063,1.0697,1.0014,0.997,1.0602,1.1593,1.1312,1.1483,1.1852,0.9417,0.0,0.0,0.6873,0.6243,0.6382,0.7465,0.7957,0.7957,0.794,0.7859,0.7778,0.6872,0.6263,0.6054,0.6047,0.5908,0.5644,0.5348,0.516,0.5137,0.5147,0.5147,0.514,0.5344,0.5409,0.5395,0.5395,0.5216,0.4928,0.4918,0.4772,0.4508,0.4491,0.4491,0.4484,0.4311,0.4048,0.3675,0.0,0.0,0.0,0.0,0.0,0.0,0.0,0.0,0.0,0.0,0.0,0.0,0.0,0.0,0.0,0.081,0.0,0.0241,0.0172,0.0,0.0,0.0,0.0068,0.024,0.0,0.0039,0.0119,0.0,0.0,0.0,0.0,0.0,0.0,0.0,0.0,0.0,0.0,0.0,0.0,0.0,0.0,0.0,0.0,0.0,0.0,0.0,0.0,0.0,0.0,0.0,0.0,0.0,0.0,0.0,0.0,0.0,0.0,0.0,0.0,0.0,0.0,0.0,1.4269,1.4168,1.3741,1.318,1.2583,1.2648,1.2551,1.2355,1.2355,1.255,1.2779,1.2713,1.2758,1.2802,1.1419,1.0829,1.081,0.9654,0.9158,0.9196,0.9208,0.9238,0.9228,0.9033,0.8542,0.7821,0.7557,0.7042,0.6283,0.6242,0.6207,0.6132,0.5911,0.5669,0.5494,0.5589,0.5589,0.5481,0.5518,0.5515,0.5399,0.5395,0.522,0.4928,0.4918,0.4775,0.4505,0.4491,0.4491,0.4491,0.4457,0.4314,0.4072,0.3697,0.0,0.0,0.0,0.0,0.0,0.0,0.0,0.0,0.0,0.3168,0.259,0.0,0.2971,0.0,0.2501,0.2321,0.2212,0.1599,0.0,0.0,0.1022,0.0716,0.2501,0.1125,0.0368,0.1267,0.0568,0.0,0.0,0.0,0.0,0.0,0.0,0.0,0.0,0.0,0.0,0.0,0.0,0.0,0.0,0.0,0.0,0.0,0.0,0.0,0.0,0.0,0.0,0.0,0.0,0.0,0.0,0.0,0.0,0.0,0.0,0.0,0.0,0.0,0.0,1.4723,1.4696,1.4402,1.4088,1.3788,1.3654,1.3601,1.3607,1.3601,1.3601,1.3594,1.346,1.3327,1.3127,1.2148,1.1708,1.1628,1.0646,1.0201,1.0191,1.0471,1.051,1.0367,1.0198,0.9769,0.914,0.8689,0.8199,0.7672,0.7629,0.7629,0.7625,0.7526,0.7409,0.7218,0.6295,0.5759,0.5688,0.562,0.5515,0.5402,0.5395,0.522,0.4931,0.4918,0.4775,0.4501,0.4491,0.4491,0.4491,0.4491,0.4399,0.42,0.3948,0.3707,0.0,0.0,0.0,0.0,0.0,0.0,0.0,0.0,0.0,0.0,0.0,0.3421,0.0,0.3198,0.0,0.3215,0.275,0.2725,0.3377,0.2318,0.2125,0.3433,0.2483,0.1954,0.262,0.2134,0.1796,0.1796,0.1765,0.1764,0.1685,0.1679,0.1494,0.0898,0.0807,0.0807,0.0808,0.0359,0.0,0.0,0.0,0.0,0.0,0.0,0.0,0.0,0.0,0.0,0.0,0.0,0.0,0.0,0.0,0.0,0.0,0.0,0.0,0.0,0.0,0.0,1.5068,1.5042,1.4703,1.4576,1.4556,1.4309,1.4155,1.4088,1.4088,1.4088,1.4075,1.3814,1.352,1.328,1.2413,1.2011,1.193,1.1109,1.0697,1.0738,1.1566,1.1796,1.1489,1.1492,1.126,1.0842,0.9976,0.9478,0.9301,0.9296,0.9296,0.9296,0.9296,0.9296,0.9205,0.7269,0.61,0.5827,0.5671,0.5559,0.5426,0.5405,0.5255,0.4935,0.4918,0.4772,0.4508,0.4508,0.4522,0.4522,0.4539,0.4457,0.4284,0.4153,0.4029,0.0,0.3734,0.0,0.0,0.0,0.0,0.0,0.0,0.0,0.0,0.4157,0.3955,0.3684,0.3705,0.3786,0.3982,0.3859,0.3829,0.399,0.3785,0.3713,0.4023,0.3931,0.3883,0.4022,0.4047,0.4,0.3889,0.3996,0.3927,0.3714,0.3837,0.3587,0.258,0.2201,0.1969,0.1878,0.0897,0.0,0.0,0.0,0.0,0.0,0.0,0.0449,0.0,0.0,0.0,0.0,0.0,0.0,0.0,0.0,0.0,0.0,0.0,0.0,0.0,0.0,0.0,1.5311,1.5291,1.5042,1.4928,1.4914,1.4861,1.4573,1.4088,1.4088,1.4088,1.4088,1.4028,1.3981,1.3921,1.3754,1.3622,1.3622,1.3448,1.3358,1.3352,1.3292,1.3202,1.3131,1.2909,1.2212,1.1168,1.0925,1.0319,0.9296,0.9296,0.9296,0.9296,0.9296,0.9296,0.9291,0.0,0.0,0.0,0.5725,0.5576,0.5545,0.546,0.5252,0.4931,0.4918,0.0,0.4515,0.461,0.4675,0.4679,0.4765,0.0,0.0,0.0,0.0,0.0,0.0,0.0,0.0,0.0,0.0,0.0,0.5129,0.4969,0.466,0.5196,0.5552,0.5495,0.5812,0.6027,0.5949,0.5256,0.5219,0.6071,0.4761,0.4507,0.6334,0.5118,0.434,0.5282,0.4608,0.4012,0.4104,0.3995,0.4053,0.4169,0.4812,0.5275,0.5062,0.3966,0.2907,0.2013,0.1612,0.1478,0.1478,0.2236,0.268,0.2903,0.2948,0.2858,0.2769,0.2814,0.2858,0.2814,0.2139,0.1468,0.1468,0.0701,0.0,0.0,0.0,0.0,0.0,0.0,0.0,1.5611,0.0,1.5297,1.5177,0.0,1.5075,1.4841,1.4509,1.4362,1.4222,1.4088,1.4088,1.4088,1.4088,1.4088,1.4088,1.4088,1.4088,1.4088,1.4082,1.3928,1.3781,1.36,1.3453,1.2988,1.2186,1.208,1.1661,1.1027,1.0859,1.0801,1.0763,1.0801,1.0763,1.0763,1.0265,0.8951,0.6763,0.6596,0.6224,0.5631,0.5515,0.5332,0.5009,0.0,0.0,0.0,0.0,0.0,0.0,0.0,0.0,0.0,0.0,0.0,0.4802,0.4837,0.4972,0.5143,0.5196,0.5368,0.5593,0.5754,0.5713,0.5376,0.584,0.6234,0.6414,0.6685,0.6814,0.6768,0.6374,0.6352,0.7007,0.6184,0.6144,0.7108,0.6564,0.6109,0.6604,0.6311,0.5969,0.5966,0.5953,0.5943,0.5891,0.6351,0.6759,0.6591,0.5458,0.4117,0.291,0.2681,0.2681,0.2726,0.3126,0.3614,0.3614,0.3614,0.3614,0.3614,0.3614,0.3614,0.357,0.3081,0.268,0.2634,0.2171,0.1806,0.176,0.179,0.1764,0.1686,0.0833,0.0164,1.5825,1.5758,1.5578,1.5471,1.5451,1.5256,1.5129,1.5068,0.0,0.0,0.0,1.4168,1.4142,1.4088,1.4088,1.4088,1.4088,1.4088,1.4088,1.4088,1.4088,1.3955,1.3686,1.368,1.3527,1.324,1.3065,1.2918,1.2857,1.2563,1.2378,1.2371,1.2331,1.2305,1.2261,1.1471,1.0085,0.8171,0.7877,0.7279,0.6262,0.619,0.603,0.5724,0.5721,0.5642,0.552,0.5543,0.5558,0.5558,0.5584,0.5588,0.5565,0.5676,0.5745,0.5693,0.585,0.5899,0.583,0.5844,0.5937,0.6207,0.6304,0.6296,0.6114,0.6291,0.6583,0.6932,0.6923,0.697,0.7085,0.7122,0.7234,0.736,0.7463,0.7502,0.7624,0.7763,0.7754,0.7865,0.7809,0.7988,0.7875,0.7875,0.7948,0.7833,0.7706,0.7797,0.7509,0.636,0.5125,0.4195,0.3944,0.3927,0.3926,0.4239,0.4194,0.4417,0.4328,0.4237,0.4194,0.4239,0.4239,0.4417,0.4103,0.3926,0.3881,0.3611,0.3614,0.3614,0.3614,0.3597,0.3453,0.2064,0.1055,1.5825,1.5778,1.5785,1.5724,1.5711,1.5725,1.5565,1.5317,1.503,1.4736,1.4456,1.4462,1.4322,1.4088,1.4088,1.4088,1.4088,1.4088,1.4088,0.0,1.4088,1.4068,1.4021,1.4021,1.3874,1.3553,1.3493,1.3387,1.3133,1.2878,1.2723,1.269,1.2432,1.2305,1.2268,1.215,1.1527,1.0353,0.938,0.8782,0.8614,0.8457,0.8285,0.8124,0.8066,0.8032,0.7918,0.7987,0.8059,0.8064,0.8195,0.8215,0.8084,0.8147,0.7862,0.6963,0.6972,0.6761,0.602,0.5959,0.6516,0.7672,0.7008,0.6488,0.66,0.6704,0.6869,0.7048,0.7061,0.7071,0.7105,0.7258,0.7343,0.739,0.76,0.7756,0.778,0.7857,0.7948,0.7948,0.7971,0.7988,0.7988,0.7988,0.7982,0.7958,0.7934,0.7901,0.7591,0.6508,0.5629,0.5357,0.5238,0.5144,0.522,0.598,0.6334,0.6602,0.6467,0.6334,0.629,0.6334,0.6334,0.6514,0.5711,0.5223,0.5132,0.4283,0.3927,0.3881,0.3881,0.3829,0.3903,0.3402,0.314,1.5825,1.5825,1.5825,1.5825,1.5825,1.5825,1.5704,1.5618,1.5491,1.5177,1.4776,1.4763,1.4596,1.4329,1.4322,1.4235,1.4088,1.4088,1.4088,1.4088,1.4088,1.4088,1.4088,1.4088,1.4015,1.3881,1.3673,1.3533,1.338,1.314,1.2951,1.2777,1.2489,1.2305,1.2305,1.2305,1.207,1.1613,1.0561,0.9706,0.9108,0.9037,0.8877,0.8719,0.8713,0.8667,0.8625,0.8685,0.8713,0.8708,0.8767,0.8783,0.8729,0.8856,0.8725,0.8215,0.8324,0.7963,0.701,0.7103,0.7716,0.8869,0.8199,0.7729,0.7811,0.7222,0.6943,0.7078,0.7095,0.7177,0.7258,0.7333,0.7434,0.7597,0.7736,0.7845,0.7923,0.7987,0.7988,0.7988,0.7988,0.7988,0.7988,0.7988,0.7988,0.7988,0.7988,0.7958,0.7936,0.7315,0.6745,0.6618,0.6536,0.6418,0.6355,0.6694,0.7095,0.7095,0.7095,0.7095,0.7095,0.7095,0.7095,0.7095,0.665,0.6381,0.6293,0.5888,0.5573,0.5487,0.5487,0.5487,0.5484,0.5484,0.5228,1.5825,1.5825,1.5825,1.5825,1.5825,1.5825,1.5825,1.5825,1.5825,1.5578,1.5184,1.5097,1.4863,1.4529,1.4516,1.4362,1.4115,1.4088,1.4088,1.4088,1.4088,1.4088,1.4088,1.4088,1.4088,1.4062,1.3854,1.3741,1.3673,1.3407,1.3153,1.2891,1.2583,1.2405,1.2405,1.2338,1.2305,1.2231,1.1545,1.0689,0.9887,0.984,0.9741,0.9605,0.9619,0.9583,0.9583,0.9583,0.9583,0.9583,0.9583,0.9583,0.9594,0.973,0.9725,0.9526,0.9606,0.9241,0.8347,0.8399,0.9039,1.0134,0.9509,0.9208,0.9376,0.8414,0.7534,0.7207,0.7132,0.7248,0.7353,0.7491,0.7563,0.7784,0.7845,0.7913,0.7968,0.7988,0.7988,0.7988,0.7988,0.7988,0.7988,0.7988,0.7988,0.7988,0.7988,0.7988,0.7975,0.7929,0.7756,0.755,0.7467,0.726,0.7129,0.7095,0.7095,0.7095,0.7095,0.7095,0.7095,0.7095,0.7095,0.7095,0.7095,0.7007,0.7095,0.7051,0.6959,0.6871,0.6827,0.6962,0.6871,0.6915,0.6711,1.5825,1.5825,1.5825,1.5825,1.5825,1.5825,1.5825,1.5825,1.5825,1.5758,1.5698,1.5478,1.505,1.4563,1.4529,1.4382,1.4115,1.4088,1.4088,1.4088,1.4088,1.4088,1.4088,1.4088,1.4088,1.4082,1.4041,1.4015,1.4001,1.3686,1.3413,1.3166,1.2898,1.2744,1.2717,1.2445,1.2311,1.2305,1.2224,1.21,1.2037,1.1994,1.1981,1.1961,1.1955,1.1998,1.1849,1.1998,1.1955,1.1991,1.1905,1.1948,1.1911,1.1981,1.1575,1.0705,1.0659,1.0317,0.9647,0.9531,1.0245,1.1624,1.0871,1.0705,1.1651,1.0871,0.933,0.7819,0.7358,0.7573,0.7433,0.7695,0.7904,0.7963,0.7982,0.7978,0.7985,0.7988,0.7988,0.7988,0.7988,0.7988,0.7988,0.7988,0.7988,0.7988,0.7988,0.7988,0.7985,0.7968,0.7936,0.7756,0.756,0.7343,0.721,0.7098,0.7115,0.7109,0.7095,0.7095,0.7095,0.7095,0.7095,0.7095,0.7095,0.7095,0.7095,0.7095,0.7095,0.7095,0.7095,0.7095,0.7095,0.7095,0.6893,1.5825,1.5825,1.5825,1.5825,1.5825,1.5825,1.5825,1.5825,1.5825,1.5825,1.5812,1.5651,1.5424,1.503,1.4856,1.4616,1.4335,1.4168,1.4088,1.4088,1.4088,1.4088,1.4088,1.4088,1.4088,1.4088,1.4088,1.4088,1.4035,1.3746,1.3547,1.3407,1.3173,1.3065,1.3038,1.2757,1.2603,1.2596,1.2392,1.2305,1.2305,1.2305,1.2305,1.2305,1.2305,1.2305,1.2305,1.2305,1.2305,1.2305,1.2305,1.2305,1.2305,1.2305,1.2114,1.1706,1.1288,1.1263,1.1721,1.1358,1.1653,1.2918,1.2093,1.1793,1.2182,1.1257,1.0226,0.9651,0.9562,0.9601,0.9601,0.928,0.8995,0.8995,0.8495,0.8038,0.7988,0.7988,0.7988,0.7988,0.7988,0.7988,0.7988,0.7988,0.7988,0.7988,0.7988,0.7988,0.7988,0.7988,0.7924,0.7838,0.7699,0.7584,0.7431,0.7326,0.7288,0.7261,0.7152,0.7098,0.7095,0.7095,0.7095,0.7095,0.7095,0.7095,0.7095,0.7095,0.7095,0.7095,0.7095,0.7095,0.7095,0.7095,0.7061,1.5825,1.5825,1.5825,1.5825,1.5825,1.5825,1.5825,1.5825,1.5825,1.5825,1.5825,1.5825,1.5718,1.5491,1.5211,1.4923,1.4629,1.4335,1.4202,1.4195,1.4128,1.4088,1.4088,1.4088,1.4088,1.4088,1.4088,1.4088,1.4062,1.3881,1.3726,1.3686,1.3433,1.3293,1.3293,1.3019,1.2911,1.2884,1.2579,1.2425,1.2418,1.2345,1.2305,1.2305,1.2305,1.2305,1.2305,1.2305,1.2305,1.2305,1.2305,1.2305,1.2305,1.2305,1.2338,1.2401,1.2005,1.2172,1.3227,1.281,1.2874,1.3555,1.3144,1.2808,1.2693,1.2098,1.1821,1.1982,1.2176,1.2173,1.1354,1.0768,1.0474,1.0418,0.9608,0.897,0.8627,0.8581,0.8428,0.8088,0.7988,0.7988,0.7988,0.7988,0.7988,0.7988,0.7988,0.7988,0.7988,0.7985,0.7948,0.7843,0.7826,0.7787,0.7634,0.7458,0.739,0.7339,0.7244,0.7098,0.7095,0.7095,0.7095,0.7095,0.7095,0.7095,0.7095,0.7095,0.7095,0.7095,0.7095,0.7095,0.7095,0.7095,0.7095,1.5825,1.5825,1.5825,1.5825,1.5825,1.5825,1.5825,1.5825,1.5825,1.5825,1.5825,1.5825,1.5818,1.5724,1.5491,1.5217,1.4975,1.4636,1.4489,1.4449,1.4229,1.4088,1.4088,1.4088,1.4088,1.4088,1.4088,1.4088,1.4088,1.4068,1.4068,1.4041,1.3761,1.3586,1.3547,1.334,1.3193,1.316,1.2924,1.2764,1.2737,1.2465,1.2351,1.2358,1.2305,1.2305,1.2311,1.2311,1.2318,1.2311,1.2345,1.2331,1.2318,1.2331,1.2496,1.2764,1.2987,1.3194,1.3533,1.3484,1.3644,1.3995,1.3928,1.3955,1.3835,1.3916,1.3991,1.4268,1.4546,1.4041,1.2319,1.1917,1.1803,1.1789,1.1702,1.1019,1.0047,0.9899,0.9312,0.8478,0.8382,0.8382,0.8137,0.7988,0.8283,0.8283,0.8137,0.8137,0.8184,0.8088,0.7975,0.7971,0.7944,0.788,0.7665,0.7543,0.7441,0.7373,0.7305,0.7105,0.7098,0.7095,0.7095,0.7095,0.7095,0.7095,0.7095,0.7095,0.7095,0.7095,0.7095,0.7095,0.7095,0.7095,0.7095,1.5825,1.5825,1.5825,1.5825,1.5825,1.5825,1.5825,1.5825,1.5825,1.5825,1.5825,1.5825,1.5825,1.5825,1.5718,1.5518,1.5231,1.4937,1.4703,1.4529,1.4416,1.4262,1.4095,1.4088,1.4088,1.4088,1.4088,1.4088,1.4088,1.4088,1.4088,1.4082,1.3981,1.3928,1.3874,1.3593,1.3447,1.342,1.3193,1.3046,1.3039,1.2933,1.2886,1.2859,1.2498,1.2305,1.2305,1.2516,1.2623,1.2623,1.2772,1.2886,1.2886,1.2886,1.3013,1.328,1.3387,1.3573,1.3874,1.3921,1.3968,1.4062,1.4088,1.4095,1.4135,1.4349,1.4589,1.483,1.515,1.4875,1.4442,1.364,1.3204,1.3102,1.2431,1.1799,1.1365,1.1219,1.097,1.0627,1.0485,1.0194,0.9604,0.9944,1.0485,1.0435,0.9801,0.9361,0.9114,0.8627,0.8137,0.8038,0.7988,0.7958,0.7923,0.7756,0.7631,0.7512,0.7404,0.7258,0.7197,0.7105,0.7095,0.7095,0.7095,0.7095,0.7095,0.7095,0.7095,0.7095,0.7095,0.7095,0.7095,0.7095,0.7095,1.6062,1.6386,1.6433,1.6662,1.6976,1.6976,1.6976,1.6976,1.6976,1.6976,1.7023,1.7023,1.6976,1.6976,1.7023,1.6915,1.66,1.5679,1.5208,1.5357,1.5297,1.5268,1.5339,1.538,1.5287,1.5082,1.4734,1.4608,1.4573,1.4243,1.4088,1.4088,1.4088,1.4088,1.4048,1.3881,1.374,1.3693,1.346,1.3313,1.33,1.326,1.3206,1.3153,1.2799,1.2599,1.2599,1.2792,1.2931,1.2965,1.31,1.3206,1.3213,1.33,1.3393,1.3573,1.3734,1.3868,1.4048,1.4088,1.4082,1.4088,1.4088,1.4115,1.4222,1.4496,1.4783,1.5122,1.5364,1.5638,1.5623,1.4997,1.4507,1.4411,1.3692,1.2963,1.2624,1.2576,1.2334,1.1848,1.1702,1.1409,1.0925,1.1409,1.1702,1.1896,1.1072,1.0681,1.0485,0.9899,0.9266,0.9262,0.946,0.9505,0.9604,0.9631,0.8457,0.8146,0.7834,0.7601,0.7499,0.7402,0.7268,0.7228,0.7183,0.7139,0.7139,0.7139,0.7183,0.7228,0.7095,0.7095,0.7095,0.7095,0.7268,1.6622,1.7638,1.7738,1.828,1.9077,1.9131,1.936,1.9222,1.9268,1.9085,1.8993,1.9314,1.9085,1.9314,1.9039,1.9298,1.8706,1.6815,1.6292,1.7041,1.6891,1.7161,1.7694,1.7595,1.735,1.6944,1.615,1.5737,1.5662,1.4894,1.4412,1.425,1.4292,1.4328,1.4166,1.4216,1.4146,1.4037,1.385,1.3722,1.3573,1.3414,1.33,1.3273,1.3227,1.3246,1.3292,1.3246,1.3213,1.3213,1.3247,1.3227,1.332,1.3507,1.3613,1.3673,1.3921,1.4062,1.4082,1.4088,1.4088,1.4088,1.4088,1.4202,1.4449,1.4743,1.5082,1.5317,1.5605,1.5818,1.5818,1.5683,1.5588,1.5784,1.5391,1.4902,1.4172,1.3878,1.3392,1.2425,1.2237,1.1999,1.195,1.2285,1.2479,1.2431,1.2091,1.1945,1.1896,1.1556,1.1707,1.1653,1.1263,1.0921,1.1409,1.1682,1.0105,0.882,0.8447,0.8144,0.8282,0.8253,0.8201,0.8141,0.8185,0.8185,0.8225,0.8225,0.8009,0.7965,0.7617,0.7661,0.7921,0.8141,0.7834,1.858,1.891,1.8948,1.9131,1.9497,1.9497,1.9497,1.9497,1.9497,1.9497,1.9497,1.9497,1.9497,1.9497,1.9497,1.9542,1.9443,1.8545,1.8342,1.8531,1.8447,1.8423,1.8386,1.8171,1.7772,1.731,1.6976,1.6813,1.6731,1.6445,1.6281,1.6206,1.5545,1.5213,1.5179,1.5171,1.4887,1.4237,1.476,1.4711,1.4025,1.3903,1.3856,1.3814,1.3814,1.4131,1.4794,1.4007,1.3514,1.3514,1.3707,1.3814,1.3834,1.3901,1.3948,1.3955,1.4028,1.4088,1.4088,1.4088,1.4088,1.4088,1.4088,1.4235,1.4496,1.4803,1.5097,1.5378,1.5651,1.5825,1.5825,1.5825,1.5825,1.5825,1.5778,1.5683,1.5242,1.5146,1.4609,1.368,1.4028,1.4178,1.3692,1.3836,1.437,1.4274,1.3788,1.3295,1.3199,1.2624,1.1896,1.1896,1.1896,1.2285,1.2528,1.2673,1.1874,1.0704,1.0043,0.9287,0.9317,0.9194,0.9139,0.9139,0.9183,0.9226,0.9266,0.9222,0.9048,0.9222,0.9353,0.9444,0.9488,0.927,0.8921,1.9761,2.0169,2.0169,2.044,2.0818,2.0863,2.0854,2.0818,2.0854,2.0809,2.0863,2.0863,2.0818,2.0818,2.0809,2.0863,2.0818,2.0809,2.073,2.0483,2.005,1.993,1.9952,1.9623,1.92,1.8711,1.8365,1.8076,1.7917,1.7496,1.7302,1.7131,1.6601,1.6314,1.6273,1.6281,1.5918,1.547,1.5951,1.5951,1.5428,1.5269,1.5269,1.5311,1.5262,1.5636,1.6175,1.5427,1.4808,1.4434,1.4239,1.4124,1.4088,1.4082,1.4088,1.4088,1.4088,1.4088,1.4088,1.4088,1.4088,1.4095,1.4188,1.4382,1.4663,1.495,1.5244,1.5531,1.5671,1.5825,1.5825,1.5825,1.5825,1.5825,1.5825,1.5825,1.5825,1.5825,1.5534,1.4902,1.5242,1.5289,1.5092,1.5146,1.5778,1.5676,1.514,1.4609,1.4465,1.3932,1.3494,1.3301,1.3638,1.374,1.3499,1.3499,1.3494,1.2718,1.1958,1.1109,1.0617,1.0239,1.0048,1.0005,1.0048,0.9961,1.0005,1.0135,1.0135,1.0567,1.0788,1.0394,1.0091,1.0221,1.0005,2.0404,2.1337,2.1391,2.1987,2.2862,2.2916,2.2818,2.296,2.296,2.2862,2.2916,2.2731,2.2872,2.296,2.2687,2.2687,2.3003,2.2775,2.2721,2.2454,2.1922,2.162,2.1935,2.1675,2.1259,2.0864,2.012,1.9534,1.9163,1.8365,1.7521,1.7747,1.7577,1.7374,1.7374,1.7383,1.7293,1.705,1.7253,1.7334,1.7098,1.7131,1.7131,1.709,1.7058,1.7131,1.7326,1.726,1.6732,1.5737,1.4727,1.4292,1.4124,1.4088,1.4088,1.4088,1.4088,1.4088,1.4088,1.4286,1.4397,1.4458,1.4606,1.4751,1.525,1.5379,1.5458,1.5738,1.5812,1.5825,1.5825,1.5825,1.5825,1.5825,1.5825,1.5825,1.5825,1.5825,1.5683,1.5683,1.5778,1.5778,1.5629,1.573,1.5778,1.5778,1.5683,1.5581,1.5534,1.5242,1.5635,1.5486,1.5045,1.4949,1.4567,1.4567,1.4561,1.4213,1.359,1.2899,1.2233,1.1826,1.1652,1.1494,1.1185,1.1029,1.111,1.1554,1.1543,1.1617,1.1483,1.0918,1.1004,1.1397,1.144,2.2359,2.2633,2.2633,2.2818,2.3091,2.3101,2.3101,2.3101,2.3101,2.3101,2.3101,2.3101,2.3101,2.3101,2.3101,2.3101,2.3101,2.3101,2.3101,2.3047,2.2818,2.2534,2.2526,2.2412,2.2129,2.1675,2.1351,2.1048,2.0625,2.0195,1.9916,1.9687,1.8913,1.8567,1.8559,1.8559,1.8069,1.7585,1.8181,1.8149,1.7496,1.7415,1.7302,1.7302,1.7383,1.7779,1.843,1.855,1.7609,1.5861,1.5455,1.4894,1.4328,1.425,1.4292,1.4292,1.4208,1.4173,1.4334,1.4908,1.5405,1.5659,1.5762,1.5966,1.6548,1.5881,1.5631,1.5758,1.5825,1.5825,1.5825,1.5825,1.5825,1.5825,1.5825,1.5825,1.5825,1.5825,1.5825,1.5825,1.5825,1.5825,1.5825,1.5825,1.5825,1.5825,1.5825,1.5825,1.5825,1.5825,1.5825,1.5825,1.5581,1.5683,1.5683,1.5683,1.5615,1.5434,1.5063,1.4711,1.4232,1.3968,1.3976,1.3983,1.3364,1.3045,1.3391,1.3818,1.3473,1.2831,1.2972,1.2865,1.3034,1.3319,1.3185,2.3101,2.3101,2.3101,2.3101,2.3101,2.3101,2.3101,2.3101,2.3101,2.3101,2.3101,2.3101,2.3101,2.3101,2.3101,2.3101,2.3101,2.3101,2.3101,2.3101,2.3047,2.2955,2.2779,2.273,2.2559,2.2187,2.2158,2.1904,2.1531,2.1514,2.1357,2.0992,2.0313,1.9958,1.9918,1.9713,1.9402,1.8908,1.9353,1.9313,1.8749,1.87,1.8709,1.8709,1.8709,1.9067,1.9599,1.9678,1.8661,1.6919,1.6355,1.6075,1.5545,1.5428,1.5428,1.547,1.5428,1.5477,1.5582,1.6239,1.6734,1.7004,1.7157,1.7541,1.773,1.7022,1.6467,1.6633,1.615,1.5872,1.5825,1.5825,1.5825,1.5825,1.5825,1.5825,1.5825,1.5825,1.5825,1.5825,1.5825,1.5825,1.5825,1.5825,1.5825,1.5825,1.5825,1.5825,1.5825,1.5825,1.5825,1.5825,1.5825,1.5825,1.5825,1.5825,1.5825,1.5738,1.5691,1.5524,1.5331,1.5177,1.5025,1.4894,1.4977,1.5001,1.4934,1.4836,1.4566,1.4247,1.4639,1.4583,1.4396,1.4318,1.4249,2.3101,2.3101,2.3101,2.3101,2.3101,2.3101,2.3101,2.3101,2.3101,2.3101,2.3101,2.3101,2.3101,2.3101,2.3101,2.3101,2.3101,2.3101,2.3101,2.3101,2.3101,2.3052,2.3033,2.3013,2.2881,2.2607,2.2568,2.2324,2.2041,2.1953,2.1904,2.1668,2.1345,2.1228,2.1049,2.0868,2.0742,2.0594,2.0603,2.0662,2.0465,2.0408,2.032,2.032,2.0311,2.0447,2.0624,2.0614,1.9834,1.7914,1.7627,1.7342,1.7261,1.7229,1.7286,1.722,1.7187,1.7261,1.7475,1.7804,1.8272,1.8439,1.8926,1.9295,1.912,1.8444,1.7825,1.7855,1.685,1.6608,1.652,1.6379,1.6513,1.656,1.6332,1.6015,1.5967,1.5872,1.5825,1.5825,1.5825,1.5825,1.5825,1.5825,1.5825,1.5825,1.5825,1.5825,1.5825,1.5825,1.5825,1.5825,1.5825,1.5825,1.5825,1.5825,1.5825,1.5764,1.5764,1.5671,1.5431,1.5277,1.5223,1.5182,1.5284,1.5237,1.5122,1.5075,1.5089,1.5001,1.491,1.479,1.4656,1.4596,1.4599,2.3101,2.3101,2.3101,2.3101,2.3101,2.3101,2.3101,2.3101,2.3101,2.3101,2.3101,2.3101,2.3101,2.3101,2.3101,2.3101,2.3101,2.3101,2.3101,2.3101,2.3101,2.3101,2.3101,2.3101,2.3042,2.2925,2.2955,2.2773,2.2471,2.2353,2.2217,2.1924,2.1855,2.1748,2.1709,2.1592,2.1592,2.1642,2.1572,2.1533,2.1445,2.123,2.1094,2.1094,2.1094,2.1279,2.1533,2.1602,2.1387,2.0684,1.9516,1.8414,1.7865,1.7887,1.8045,1.8154,1.8272,1.8363,1.8481,1.9209,1.9885,2.0177,2.0339,2.05,2.0704,1.974,1.9177,1.9085,1.8856,1.8442,1.8395,1.8626,1.8442,1.8211,1.7762,1.7311,1.7124,1.6386,1.5872,1.5825,1.5825,1.5825,1.5825,1.5825,1.5825,1.5825,1.5825,1.5825,1.5825,1.5825,1.5825,1.5825,1.5825,1.5825,1.5825,1.5825,1.5825,1.6015,1.6055,1.619,1.5944,1.5737,1.5768,1.571,1.5671,1.5545,1.5331,1.5431,1.5484,1.5311,1.5189,1.5064,1.499,1.4923,1.4847,2.333,2.3101,2.3101,2.3101,2.3101,2.3101,2.3101,2.3101,2.3101,2.3101,2.3101,2.3101,2.3101,2.3101,2.3101,2.3101,2.3101,2.3101,2.3101,2.3101,2.3101,2.3101,2.3101,2.3101,2.3101,2.3135,2.3091,2.2945,2.2808,2.273,2.2705,2.2461,2.2275,2.2178,2.2129,2.2012,2.1865,2.1897,2.1936,2.1936,2.1836,2.168,2.1543,2.1543,2.1543,2.167,2.1836,2.1875,2.1916,2.1644,2.0907,2.0105,1.9616,1.9673,1.9781,1.9886,2.0003,2.0138,2.0358,2.0795,2.1372,2.1607,2.1733,2.1895,2.1789,2.1033,2.044,2.0215,1.9861,1.9497,1.9497,1.9451,1.9497,1.9405,1.8948,1.8588,1.8272,1.6983,1.5825,1.5825,1.5825,1.5825,1.5825,1.6055,1.5967,1.6015,1.592,1.5872,1.5825,1.5825,1.5825,1.5825,1.5825,1.5825,1.5825,1.5825,1.5825,1.615,1.6567,1.6803,1.6897,1.6671,1.6525,1.6278,1.5934,1.5778,1.5638,1.5731,1.5744,1.5638,1.5484,1.5398,1.5304,1.5204,1.505,2.3535,2.3101,2.3101,2.3101,2.3101,2.3101,2.3101,2.3101,2.3101,2.3101,2.3101,2.3101,2.3101,2.3101,2.3101,2.3101,2.3101,2.3101,2.3101,2.3101,2.3474,2.3517,2.3594,2.3767,2.394,2.3604,2.3266,2.3105,2.3071,2.3091,2.2984,2.2984,2.275,2.2617,2.2519,2.2305,2.2187,2.2217,2.2217,2.2207,2.2139,2.207,2.1982,2.1973,2.1982,2.206,2.2168,2.2197,2.2139,2.207,2.208,2.208,2.207,2.1992,2.1982,2.1899,2.1839,2.1861,2.1834,2.2252,2.2489,2.2637,2.2814,2.3008,2.2765,2.2217,2.1712,2.1302,2.0944,2.0395,2.0087,2.0359,2.0314,2.0169,2.0034,1.9761,1.936,1.7708,1.6835,1.6608,1.6976,1.7117,1.6796,1.6702,1.6473,1.6244,1.615,1.6103,1.6103,1.6015,1.615,1.5872,1.5825,1.6339,1.6433,1.7156,1.6976,1.7023,1.7397,1.7677,1.7956,1.7909,1.7576,1.6567,1.619,1.6028,1.5839,1.5758,1.5818,1.5825,1.5772,1.5625,1.5538,1.5471,1.5508,2.3535,2.3101,2.3101,2.3101,2.3101,2.3091,2.3178,2.3101,2.3266,2.3135,2.3178,2.3135,2.3178,2.3135,2.3101,2.3091,2.3222,2.3299,2.3309,2.3507,2.4092,2.451,2.4638,2.5189,2.5652,2.54,2.4349,2.343,2.3353,2.3101,2.3387,2.3159,2.3134,2.3075,2.3099,2.2896,2.2889,2.2797,2.2859,2.2955,2.2744,2.2559,2.2402,2.2402,2.2402,2.2559,2.2769,2.2857,2.2886,2.2886,2.2886,2.2857,2.2793,2.2559,2.2432,2.2461,2.2666,2.273,2.2769,2.2886,2.2984,2.3013,2.3052,2.3081,2.3047,2.2906,2.258,2.2589,2.2501,2.2359,2.2501,2.2138,2.2369,2.2217,2.1578,2.1033,2.0711,1.9852,1.8894,1.8848,1.8856,1.858,1.8079,1.7762,1.7716,1.7623,1.7537,1.7444,1.735,1.7124,1.6943,1.6433,1.5825,1.6574,1.7225,1.8265,1.8764,1.8618,1.8802,1.8993,1.9177,1.9177,1.8718,1.7987,1.7023,1.6466,1.6237,1.6197,1.6285,1.6655,1.6318,1.5893,1.6268,1.6682,1.6779,2.3867,2.3467,2.3188,2.3101,2.3222,2.3757,2.3963,2.4092,2.4595,2.4851,2.4681,2.4307,2.3963,2.3844,2.3309,2.3387,2.3887,2.3963,2.4307,2.484,2.5431,2.5683,2.5683,2.6348,2.6442,2.6235,2.5358,2.4851,2.4766,2.4264,2.4307,2.4638,2.4339,2.4006,2.3963,2.4018,2.3637,2.343,2.3637,2.3671,2.3222,2.29,2.2842,2.2832,2.2822,2.2906,2.3023,2.3101,2.3091,2.3081,2.3091,2.3101,2.3033,2.2935,2.2789,2.2852,2.3018,2.3101,2.3101,2.3101,2.3081,2.3091,2.3101,2.3101,2.3101,2.3091,2.3101,2.3101,2.3101,2.3101,2.3003,2.3101,2.3101,2.3003,2.2536,2.2262,2.2085,2.1587,2.132,2.0953,2.0042,1.9497,1.9222,1.8993,1.9047,1.9001,1.891,1.8772,1.8634,1.8272,1.7948,1.7755,1.7336,1.7848,1.8542,1.9314,2.0087,2.0079,2.0169,2.0359,2.0449,2.044,2.0305,1.9889,1.8802,1.7801,1.7755,1.8079,1.7848,1.7615,1.7701,1.7747,1.7794,1.7886,1.7994,2.4604,2.4053,2.3497,2.3475,2.3897,2.4457,2.4957,2.5305,2.6069,2.6348,2.6348,2.5588,2.5126,2.4914,2.4425,2.4349,2.5126,2.5136,2.5588,2.6182,2.6678,2.6842,2.6842,2.7098,2.7395,2.7545,2.7302,2.6935,2.6099,2.5515,2.5724,2.5797,2.542,2.5126,2.5126,2.5136,2.4478,2.4382,2.4553,2.4585,2.3973,2.3551,2.342,2.343,2.3474,2.3497,2.3594,2.3594,2.3594,2.3464,2.3299,2.3101,2.3101,2.3091,2.3222,2.3333,2.3212,2.3135,2.3101,2.3101,2.3101,2.3101,2.3101,2.3101,2.3101,2.3101,2.3101,2.3101,2.3101,2.3101,2.3101,2.3101,2.3101,2.3091,2.3091,2.3047,2.296,2.2731,2.2643,2.1996,2.0953,2.0629,2.0593,2.0215,2.0215,2.0494,2.0449,1.9988,1.9807,1.9405,1.9123,1.9306,1.9298,1.9571,1.9988,2.0359,2.0944,2.1177,2.14,2.1632,2.1676,2.1667,2.148,2.1302,2.1033,2.0178,2.0087,1.9542,1.8948,1.8764,1.9268,1.9314,1.8856,1.8848,1.9077,2.6073,2.5161,2.4167,2.4643,2.581,2.5263,2.5462,2.6307,2.6554,2.6483,2.6771,2.64,2.6265,2.6099,2.6058,2.6099,2.6265,2.6307,2.6513,2.7017,2.7574,2.7936,2.8068,2.9028,2.8961,2.891,2.9079,2.8211,2.718,2.6554,2.6431,2.6595,2.6584,2.6307,2.6295,2.6295,2.6224,2.6099,2.6141,2.6141,2.5891,2.5094,2.467,2.4585,2.4628,2.4628,2.4585,2.4595,2.4585,2.45,2.3671,2.3222,2.3101,2.3101,2.3671,2.3963,2.38,2.3091,2.3222,2.3309,2.3309,2.3343,2.3353,2.3178,2.3256,2.3299,2.3256,2.3101,2.3101,2.3101,2.3101,2.3101,2.3101,2.3101,2.3101,2.3101,2.3101,2.3101,2.3101,2.3047,2.1996,2.2227,2.2369,2.181,2.1436,2.1756,2.1898,2.1391,2.1033,2.0674,2.0087,2.0133,2.0666,2.1033,2.1168,2.1534,2.1721,2.2085,2.2315,2.2633,2.2501,2.2403,2.2677,2.2501,2.2271,2.173,2.0908,2.0223,1.9724,1.9906,2.0404,2.0087,1.9443,1.9716,2.026,2.8545,2.726,2.6193,2.6206,2.6917,2.6697,2.6942,2.7441,2.8079,2.8383,2.8211,2.7626,2.7087,2.673,2.6483,2.6842,2.729,2.7412,2.7839,2.8211,2.874,2.9028,2.9157,2.9534,2.9779,2.9779,2.974,2.9417,2.8331,2.7747,2.7654,2.8171,2.7695,2.74,2.7412,2.74,2.7005,2.6637,2.6524,2.6801,2.6964,2.6419,2.5755,2.5744,2.5766,2.5766,2.5755,2.5766,2.5766,2.5714,2.5189,2.5062,2.502,2.5062,2.5347,2.5599,2.5347,2.4808,2.4211,2.4092,2.4049,2.4264,2.4467,2.4851,2.4286,2.4039,2.3714,2.3135,2.3091,2.3178,2.3222,2.3101,2.3101,2.3101,2.3178,2.3101,2.3101,2.3101,2.3101,2.3101,2.3101,2.3101,2.3101,2.2677,2.2217,2.2359,2.2545,2.2359,2.2217,2.2227,2.1507,2.0737,2.1498,2.2306,2.2359,2.2545,2.2457,2.2677,2.2677,2.2916,2.296,2.3047,2.3101,2.3101,2.2818,2.2183,2.1445,2.1409,2.1409,2.1454,2.1587,2.1266,2.0998,2.1454,2.1908,3.0882,2.954,2.8051,2.7606,2.7927,2.8061,2.8255,2.8636,2.9326,2.974,2.9573,2.8897,2.8028,2.7516,2.7516,2.7919,2.8518,2.8518,2.9028,2.9573,2.9779,2.974,2.9702,2.9779,2.9779,2.9779,2.9779,2.9663,2.9456,2.9079,2.8949,2.9753,2.887,2.8557,2.8505,2.8478,2.8199,2.7718,2.7597,2.7907,2.8187,2.7452,2.7005,2.6871,2.6883,2.6883,2.6883,2.6883,2.6924,2.6883,2.6431,2.6182,2.6182,2.6141,2.6431,2.6637,2.6472,2.6141,2.5714,2.5504,2.5115,2.5252,2.5724,2.5891,2.5378,2.5168,2.5052,2.4264,2.4221,2.4145,2.3887,2.3844,2.3681,2.3551,2.3353,2.3222,2.3135,2.3222,2.3178,2.3101,2.3101,2.3101,2.3101,2.3101,2.3003,2.3047,2.3101,2.3101,2.3091,2.3047,2.2599,2.1695,2.205,2.2818,2.2906,2.3047,2.3101,2.3101,2.3101,2.3101,2.3101,2.3101,2.3101,2.3101,2.3101,2.2862,2.2271,2.2687,2.3091,2.2643,2.2369,2.2731,2.2818,2.3101,2.3091,3.2559,3.1762,2.9028,2.8591,2.9477,2.8502,2.8727,2.9482,2.974,2.9779,2.9779,2.9624,2.9443,2.9378,2.917,2.9287,2.9611,2.9675,2.9702,2.974,2.9779,2.9779,2.9779,2.9779,2.9779,2.9779,2.9779,2.9779,2.9779,2.9611,2.9611,2.9702,2.9495,2.9585,2.9534,2.9365,2.9365,2.904,2.9079,2.9157,2.9197,2.8609,2.8016,2.8004,2.7964,2.7964,2.7976,2.8016,2.8016,2.7976,2.7371,2.7017,2.7098,2.7058,2.7412,2.7747,2.7383,2.7209,2.7157,2.6655,2.5922,2.5546,2.5922,2.6812,2.6419,2.6389,2.6276,2.5933,2.5599,2.5808,2.5641,2.5431,2.4798,2.4553,2.4264,2.38,2.3681,2.343,2.3387,2.3178,2.3101,2.3101,2.3101,2.3101,2.3101,2.3101,2.3101,2.3101,2.3101,2.3091,2.3091,2.2731,2.2775,2.3047,2.3047,2.3101,2.3101,2.3101,2.3101,2.3101,2.3101,2.3101,2.3101,2.3101,2.3101,2.3101,2.3101,2.3101,2.3101,2.3101,2.3101,2.3101,2.3101,2.3101,2.3101,3.2215,3.158,3.0146,2.9829,3.0229,2.9462,2.9417,2.974,2.9779,2.9779,2.9779,2.9779,2.9779,2.9779,2.9779,2.9779,2.9779,2.9779,2.9779,2.9779,2.9779,2.9779,2.9779,2.9779,2.9779,2.9779,2.9779,2.9779,2.9779,2.9779,2.9779,2.9779,2.9779,2.9779,2.9779,2.9779,2.9779,2.9779,2.9779,2.9779,2.9702,2.9495,2.9157,2.9145,2.9145,2.9145,2.9145,2.9157,2.9145,2.8988,2.8621,2.8422,2.8291,2.8331,2.8581,2.8988,2.849,2.8359,2.8056,2.7815,2.7574,2.8079,2.8291,2.8211,2.7585,2.7493,2.7046,2.676,2.6648,2.6812,2.6389,2.6141,2.585,2.5714,2.5347,2.4723,2.4382,2.4221,2.3724,2.3594,2.3309,2.3101,2.3101,2.3101,2.3101,2.3101,2.3101,2.3101,2.3101,2.3101,2.3101,2.3101,2.3101,2.3101,2.3101,2.3101,2.3101,2.3178,2.3178,2.3222,2.3266,2.3101,2.3101,2.3101,2.3178,2.3299,2.3299,2.3135,2.3091,2.3135,2.3135,2.3101,2.3101,2.3101,2.3101,3.1888,3.1348,3.0834,3.0507,3.0319,2.9955,2.9779,2.9779,2.9779,2.9779,2.9779,2.9779,2.9779,2.9779,2.9779,2.9779,2.9779,2.9779,2.9779,2.9779,2.9779,2.9779,2.9779,2.9779,2.9779,2.9779,2.9779,2.9779,2.9779,2.9779,2.9779,2.9779,2.9779,2.9779,2.9779,2.9779,2.9779,2.9779,2.9779,2.9779,2.9779,2.9753,2.9753,2.9702,2.9663,2.965,2.965,2.9611,2.9663,2.965,2.9624,2.9702,2.974,2.9779,2.9779,2.9779,2.9702,2.9365,2.8806,2.8347,2.8648,2.9197,2.9495,2.9197,2.8858,2.8557,2.8291,2.7827,2.7597,2.7424,2.7342,2.729,2.7046,2.6871,2.6265,2.5683,2.5473,2.5263,2.4553,2.4049,2.38,2.3627,2.3135,2.3178,2.3222,2.3178,2.3101,2.3101,2.3101,2.3101,2.3101,2.3101,2.3101,2.3101,2.3101,2.3135,2.3256,2.3714,2.3714,2.3594,2.3507,2.343,2.3222,2.3135,2.3256,2.3507,2.3844,2.4264,2.381,2.3178,2.3266,2.3343,2.3101,2.3101,2.3101,3.1876,3.1348,3.0809,3.0294,2.988,2.9804,2.9779,2.9779,2.9779,2.9779,2.9779,2.9779,2.9779,2.9779,2.9779,2.9779,2.9779,2.9779,2.9779,2.9779,2.9779,2.9779,2.9779,2.9779,2.9779,2.9779,2.9779,2.9779,2.9779,2.9779,2.9779,2.9779,2.9779,2.9779,2.9779,2.9779,2.9779,2.9779,2.9779,2.9779,2.9779,2.9779,2.9779,2.9779,2.9779,2.9779,2.9779,2.9779,2.9779,2.9779,2.9779,2.9779,2.9779,2.9779,2.9779,2.9779,2.9779,2.974,2.9611,2.8676,2.8897,2.9611,2.9779,2.9611,2.9663,2.9624,2.9495,2.891,2.9197,2.9365,2.9197,2.874,2.8279,2.7907,2.7342,2.6883,2.6666,2.6419,2.5786,2.5052,2.4755,2.4414,2.3671,2.3266,2.3343,2.3299,2.3135,2.3091,2.3135,2.3101,2.3101,2.3101,2.3135,2.343,2.3474,2.3299,2.3464,2.4006,2.4425,2.4467,2.4349,2.4264,2.3973,2.3517,2.393,2.4681,2.5179,2.5599,2.4978,2.4349,2.3767,2.3637,2.3343,2.343,2.381,3.1562,3.1323,3.0432,2.9967,2.9792,2.9779,2.9779,2.9779,2.9779,2.9779,2.9779,2.9779,2.9779,2.9779,2.9779,2.9779,2.9779,2.9779,2.9779,2.9779,2.9779,2.9779,2.9779,2.9779,2.9779,2.9779,2.9779,2.9779,2.9779,2.9779,2.9779,2.9779,2.9779,2.9779,2.9779,2.9779,2.9779,2.9779,2.9779,2.9779,2.9779,2.9779,2.9779,2.9779,2.9779,2.9779,2.9779,2.9779,2.9779,2.9779,2.9779,2.9779,2.9779,2.9779,2.9779,2.9779,2.9779,2.9779,2.9753,2.9365,2.9404,2.9702,2.9779,2.9779,2.9779,2.9779,2.9779,2.9779,2.9779,2.9779,2.9573,2.9443,2.9197,2.9236,2.8791,2.8279,2.7947,2.7643,2.7145,2.6378,2.5839,2.5294,2.4585,2.4467,2.4478,2.4102,2.3973,2.3474,2.3353,2.3222,2.3144,2.3101,2.3178,2.3637,2.3887,2.4092,2.4681,2.5462,2.5755,2.5808,2.5641,2.5305,2.5221,2.5062,2.5515,2.5975,2.6389,2.6637,2.6193,2.561,2.5431,2.5105,2.4935,2.5147,2.5568,3.1122,3.1022,3.0168,2.9779,2.9779,2.9779,2.9779,2.9779,2.9779,2.9779,2.9779,2.9779,2.9779,2.9779,2.9779,2.9779,2.9779,2.9779,2.9779,2.9779,2.9779,2.9779,2.9779,2.9818,2.9779,2.9779,2.9779,2.9779,2.9779,2.9779,2.9779,2.9779,2.9818,2.9779,2.9779,2.9779,2.9779,2.9779,2.9779,2.9779,2.9779,2.9779,2.9779,2.9779,2.9779,2.9779,2.9779,2.9779,2.9779,2.9779,2.9779,2.9779,2.9779,2.9779,2.9779,2.9779,2.9779,2.9779,2.9753,2.9753,2.9702,2.9779,2.9779,2.9779,2.9779,2.9779,2.9779,2.9779,2.9779,2.9779,2.9779,2.9779,2.9779,2.974,2.9573,2.9028,2.8937,2.8609,2.8227,2.7464,2.6964,2.6326,2.5714,2.5839,2.585,2.5347,2.4808,2.4307,2.3887,2.3897,2.3854,2.3767,2.4059,2.4766,2.5136,2.5305,2.6005,2.6924,2.6964,2.6853,2.676,2.6419,2.6513,2.6648,2.6842,2.7075,2.7545,2.7678,2.7557,2.7597,2.7678,2.7261,2.673,2.6648,2.6812,3.0633,3.0545,3.003,2.9779,2.9779,2.9779,2.9779,2.9779,2.9779,2.9779,2.9779,2.9779,2.9779,2.9779,2.9779,2.9779,2.9779,2.9779,2.9779,2.9895,2.9998,2.996,2.9998,2.9998,3.0101,2.996,2.9856,2.9895,2.9856,3.0355,3.0317,3.0062,3.0165,3.0101,3.0062,2.9895,2.9856,2.9779,2.9779,2.9779,2.9779,2.9779,2.9779,2.9779,2.9779,2.9779,2.9779,2.9779,2.9779,2.9779,2.9779,2.9779,2.9779,2.9779,2.9779,2.9779,2.9779,2.9779,2.9779,2.9779,2.9779,2.9779,2.9779,2.9779,2.9779,2.9779,2.9779,2.9779,2.9779,2.9779,2.9779,2.9779,2.9779,2.9779,2.9779,2.9611,2.965,2.9404,2.9028,2.8581,2.8279,2.7695,2.6871,2.6801,2.7226,2.676,2.6337,2.613,2.5755,2.5473,2.5347,2.4978,2.5389,2.6141,2.6431,2.6502,2.7128,2.7988,2.7706,2.7545,2.7504,2.7626,2.7666,2.7747,2.7896,2.8187,2.8581,2.9,2.9326,2.9326,2.8961,2.8633,2.7839,2.7464,2.7424,3.062,3.0557,3.0018,2.9779,2.9779,2.9779,2.9779,2.9779,2.9779,2.9779,2.9779,2.9792,2.9895,2.9779,2.9779,2.9856,2.9818,2.9779,2.9779,2.9998,3.052,3.0733,3.0809,3.0809,3.0809,3.0558,3.0355,3.0317,3.0871,3.1304,3.1696,3.1792,3.1044,3.0871,3.0558,3.0139,2.9998,2.9856,2.9856,2.9779,2.9779,2.9779,2.9779,2.9779,2.9779,2.9779,2.9779,2.9779,2.9779,2.9779,2.9779,2.9818,2.9779,2.9779,2.9779,2.9779,2.9779,2.9779,2.9779,2.9779,2.9818,2.9856,2.983,2.9779,2.9779,2.9856,2.9856,2.9779,2.9779,2.9779,2.9779,2.9779,2.9779,2.9779,2.9779,2.9779,2.9779,2.9702,2.9378,2.9475,2.9162,2.8906,2.8096,2.8319,2.8646,2.8207,2.7907,2.7695,2.7452,2.7168,2.6666,2.6254,2.6554,2.7261,2.7533,2.7643,2.8347,2.8897,2.8569,2.8462,2.87,2.8831,2.8831,2.8819,2.8819,2.9106,2.9495,2.9779,2.9779,2.9779,2.9495,2.9287,2.904,2.8581,2.8371,3.0294,3.0244,2.9942,2.9779,2.9779,2.9779,2.9779,2.9779,2.9779,2.9779,2.9856,3.0216,3.0343,3.0495,3.0771,3.0809,3.0419,3.0908,3.0908,3.0658,3.1328,3.1609,3.1756,3.1756,3.1742,3.1499,3.1328,3.1328,3.1829,3.2177,3.2522,3.2429,3.1924,3.1815,3.1609,3.1304,3.0809,3.0419,3.0062,2.9856,2.9818,2.9856,2.9792,2.9895,2.9856,2.9856,2.9818,2.9818,2.9818,2.9934,2.9998,3.0343,3.0381,3.0381,3.0024,2.9998,2.9779,2.9779,2.9779,2.9779,2.9998,3.0139,3.0113,3.033,3.0355,3.047,3.0075,2.9779,2.9779,2.9779,2.9779,2.9779,2.9779,2.9779,2.9779,2.9779,2.9779,2.9779,2.9878,3.0054,2.9997,2.9886,2.9821,3.005,3.0015,2.9517,2.9172,2.8949,2.874,2.849,2.7907,2.7319,2.7747,2.8291,2.8478,2.8597,2.9015,2.9404,2.9365,2.9404,2.9779,2.9702,2.9365,2.9456,2.965,2.9779,2.9779,2.9779,2.9779,2.9779,2.9779,2.9624,2.9495,2.9417,2.9326,2.9792,2.9855,2.9908,2.996,2.9934,3.0075,3.0139,3.0011,3.0292,3.0036,3.019,3.0908,3.1291,3.1439,3.1865,3.1829,3.1623,3.1865,3.1792,3.1402,3.2285,3.2713,3.2713,3.2713,3.2713,3.27,3.2522,3.2249,3.2629,3.3101,3.3325,3.2806,3.2735,3.27,3.2629,3.2321,3.1829,3.1291,3.0771,3.0432,3.0177,3.0037,3.0011,3.0139,3.0177,3.0139,3.0049,2.9972,2.9946,3.0216,3.0558,3.1068,3.1278,3.1291,3.0796,3.0558,3.0457,3.0457,3.0495,3.0533,3.0771,3.0796,3.0595,3.1095,3.1318,3.0533,2.9921,3.0419,3.0595,3.0355,3.0279,3.0558,3.0633,3.0317,3.0062,3.0047,3.0094,3.0181,3.0457,3.0595,3.0631,3.0558,3.0645,3.0771,3.0658,3.0478,3.0326,3.009,2.9911,2.9702,2.9123,2.8387,2.8633,2.9064,2.9236,2.9353,2.9521,2.974,2.9804,2.9779,2.9779,2.9779,2.9779,2.9779,2.9779,2.9779,2.9779,2.9779,2.9779,2.9779,2.9779,2.9779,2.9779,2.9779,2.9779,2.9779,2.9856,3.0558,3.0871,3.097,3.1659,3.1901,3.1978,3.2498,3.1987,3.1209,3.1792,3.2236,3.2357,3.2642,3.2607,3.25,3.2749,3.25,3.2607,3.3255,3.3685,3.3671,3.3671,3.3685,3.3415,3.3192,3.3136,3.3671,3.4225,3.4706,3.4624,3.4143,3.3671,3.3636,3.3241,3.2664,3.2236,3.2155,3.1563,3.1095,3.1586,3.1938,3.1865,3.1792,3.1341,3.1169,3.0884,3.0871,3.102,3.1044,3.1536,3.22,3.2236,3.2141,3.1974,3.1719,3.1659,3.1659,3.1623,3.1865,3.2046,3.2046,3.2213,3.1865,3.0558,3.0279,3.1057,3.1378,3.1057,3.0945,3.1254,3.1479,3.0947,3.0407,3.0418,3.0435,3.071,3.0984,3.1122,3.1198,3.1298,3.1399,3.1361,3.1248,3.1185,3.112,3.0994,3.0894,3.0726,3.0211,2.9613,2.945,2.9686,2.9905,2.998,3.008,2.9967,2.993,2.988,2.9804,2.9779,2.9779,2.9779,2.9779,2.9779,2.9779,2.9779,2.9779,2.9779,2.9779,2.9779,2.9779,2.9779,2.9779,2.9779,2.9934,3.0796,3.1204,3.1389,3.2213,3.2593,3.2789,3.3746,3.3744,3.2999,3.3373,3.3508,3.3451,3.365,3.3478,3.3394,3.3754,3.3602,3.3671,3.4041,3.4558,3.4658,3.4576,3.4658,3.4476,3.4225,3.4341,3.4643,3.5019,3.5359,3.5424,3.4824,3.4576,3.4558,3.4075,3.3567,3.3276,3.3567,3.3255,3.2393,3.2642,3.2642,3.2593,3.25,3.2249,3.2105,3.1829,3.1815,3.2033,3.2285,3.2642,3.3136,3.3192,3.2961,3.2642,3.2486,3.2593,3.2664,3.2749,3.2925,3.308,3.2749,3.2642,3.3665,3.2563,3.1489,3.2119,3.2119,3.1829,3.1829,3.2069,3.2377,3.2182,3.1543,3.1242,3.1118,3.1072,3.1424,3.1725,3.1825,3.1976,3.2026,3.1938,3.1813,3.1662,3.1662,3.1474,3.1461,3.1653,3.1122,3.0796,3.0595,3.0507,3.067,3.0645,3.0557,3.0382,3.0168,3.0018,2.9955,2.9842,2.9779,2.9779,2.9779,2.9779,2.9779,2.9779,2.9779,2.9779,2.9779,2.9779,2.9856,2.9998,3.0037,2.9856,3.0101,3.1007,3.1462,3.1719,3.2593,3.3122,3.341,3.4679,3.5331,3.5261,3.5369,3.4998,3.485,3.5086,3.4716,3.4606,3.4773,3.4624,3.4576,3.5019,3.5166,3.5279,3.5392,3.5311,3.5311,3.518,3.518,3.5311,3.5489,3.5489,3.5489,3.5489,3.5457,3.5504,3.5359,3.492,3.4543,3.4576,3.4758,3.4143,3.3463,3.3276,3.3101,3.2975,3.289,3.2855,3.2784,3.277,3.3101,3.3518,3.3959,3.4143,3.4177,3.3842,3.3533,3.3429,3.3359,3.3255,3.3359,3.3685,3.3802,3.322,3.3526,3.462,3.4351,3.3297,3.3114,3.3114,3.2931,3.2931,3.3219,3.3541,3.3386,3.2742,3.2188,3.1962,3.1738,3.2021,3.2386,3.2458,3.2621,3.2541,3.2453,3.2353,3.2202,3.2026,3.1788,3.17,3.203,3.1967,3.1775,3.1675,3.1612,3.1399,3.1223,3.1035,3.0884,3.0658,3.0357,3.0131,3.0118,3.0018,2.9779,2.9779,2.9907,2.9843,2.9779,2.9779,3.0151,3.0203,3.0419,3.0809,3.0884,3.0558,3.0254,3.1007,3.1924,3.2749,3.3484,3.4476,3.5233,3.5828,3.6487,3.6921,3.7005,3.7396,3.7164,3.6015,3.6164,3.59,3.5444,3.5663,3.5532,3.5359,3.5645,3.5606,3.5519,3.5564,3.5504,3.5489,3.5489,3.5489,3.5489,3.5489,3.5489,3.5489,3.5489,3.5504,3.5549,3.5499,3.5526,3.5358,3.5329,3.5428,3.5431,3.5008,3.5001,3.4953,3.4968,3.4442,3.4027,3.3774,3.3739,3.4027,3.4528,3.4938,3.5052,3.5019,3.4791,3.461,3.4476,3.4524,3.4491,3.4491,3.4806,3.4868,3.4534,3.4771,3.541,3.5469,3.4908,3.5146,3.4994,3.4415,3.4464,3.5219,3.556,3.4677,3.3971,3.3606,3.3328,3.3039,3.3005,3.3035,3.3,3.2991,3.2935,3.2898,3.2885,3.2772,3.2759,3.2546,3.271,3.2765,3.2701,3.2777,3.2769,3.2064,3.1587,3.1612,3.1474,3.1336,3.1269,3.114,3.0912,3.052,3.0409,3.0817,3.0381,3.0188,3.006,3.0778,3.0765,3.1197,3.1037,3.1156,3.1626,3.1957,3.1899]}]]